Wetterdaten: Dienstag, 28.11.2017
Datum Zeit Temp. A. Pool Temp. Feuchte A. Luftdruck Regen Wind Richtung Richtung Sonnenschein ET UV Solar Taupunkt Windchill Windben Empfang
28.11.2017 00:00 2,8 C 4,4 C 72 % 1017,2 hPa 0,0 l/m 2,5 km/h (1 Bft) S 175 0 min 0,000 mm 0,0 UV-I 0 W/m -1,7 C 2,8 C 3,2 km/h (1 Bft) 97,87 %
28.11.2017 00:02 2,8 C 4,4 C 71 % 1017,2 hPa 0,0 l/m 3,1 km/h (1 Bft) S 175 0 min 0,000 mm 0,0 UV-I 0 W/m -1,9 C 2,8 C 4,8 km/h (1 Bft) 100,00 %
28.11.2017 00:04 2,8 C 4,4 C 72 % 1017,2 hPa 0,0 l/m 2,8 km/h (1 Bft) S 175 0 min 0,000 mm 0,0 UV-I 0 W/m -1,7 C 2,8 C 4,8 km/h (1 Bft) 100,00 %
28.11.2017 00:06 2,7 C 4,4 C 72 % 1017,2 hPa 0,0 l/m 4,4 km/h (1 Bft) S-SW 194 0 min 0,000 mm 0,0 UV-I 0 W/m -1,8 C 2,7 C 6,4 km/h (2 Bft) 97,87 %
28.11.2017 00:08 2,7 C 4,4 C 72 % 1017,1 hPa 0,0 l/m 4,6 km/h (1 Bft) S 186 0 min 0,000 mm 0,0 UV-I 0 W/m -1,8 C 2,7 C 8,0 km/h (2 Bft) 97,87 %
28.11.2017 00:10 2,7 C 4,4 C 73 % 1017,1 hPa 0,0 l/m 2,4 km/h (1 Bft) S 181 0 min 0,000 mm 0,0 UV-I 0 W/m -1,6 C 2,7 C 4,8 km/h (1 Bft) 100,00 %
28.11.2017 00:12 2,6 C 4,4 C 74 % 1017,1 hPa 0,0 l/m 2,3 km/h (1 Bft) S 181 0 min 0,000 mm 0,0 UV-I 0 W/m -1,6 C 2,6 C 4,8 km/h (1 Bft) 100,00 %
28.11.2017 00:14 2,6 C 4,4 C 74 % 1017,0 hPa 0,0 l/m 1,8 km/h (1 Bft) S 181 0 min 0,000 mm 0,0 UV-I 0 W/m -1,6 C 2,6 C 3,2 km/h (1 Bft) 97,87 %
28.11.2017 00:16 2,6 C 4,4 C 74 % 1017,0 hPa 0,0 l/m 3,0 km/h (1 Bft) S 181 0 min 0,000 mm 0,0 UV-I 0 W/m -1,6 C 2,6 C 4,8 km/h (1 Bft) 100,00 %
28.11.2017 00:18 2,5 C 4,4 C 75 % 1017,1 hPa 0,0 l/m 4,1 km/h (1 Bft) S 181 0 min 0,000 mm 0,0 UV-I 0 W/m -1,5 C 2,5 C 6,4 km/h (2 Bft) 98,00 %
28.11.2017 00:20 2,5 C 4,4 C 75 % 1017,0 hPa 0,0 l/m 2,7 km/h (1 Bft) S 182 0 min 0,000 mm 0,0 UV-I 0 W/m -1,5 C 2,5 C 4,8 km/h (1 Bft) 97,87 %
28.11.2017 00:22 2,4 C 4,4 C 76 % 1016,9 hPa 0,0 l/m 1,2 km/h (1 Bft) S 182 0 min 0,000 mm 0,0 UV-I 0 W/m -1,4 C 2,4 C 3,2 km/h (1 Bft) 100,00 %
28.11.2017 00:24 2,4 C 4,4 C 76 % 1016,9 hPa 0,0 l/m 1,6 km/h (1 Bft) S 182 0 min 0,000 mm 0,0 UV-I 0 W/m -1,4 C 2,4 C 3,2 km/h (1 Bft) 97,87 %
28.11.2017 00:26 2,4 C 4,4 C 76 % 1016,9 hPa 0,0 l/m 4,7 km/h (1 Bft) S-SW 194 0 min 0,000 mm 0,0 UV-I 0 W/m -1,4 C 2,4 C 6,4 km/h (2 Bft) 97,87 %
28.11.2017 00:28 2,5 C 4,4 C 75 % 1016,9 hPa 0,0 l/m 2,4 km/h (1 Bft) S 169 0 min 0,000 mm 0,0 UV-I 0 W/m -1,5 C 2,5 C 4,8 km/h (1 Bft) 100,00 %
28.11.2017 00:30 2,5 C 4,4 C 76 % 1016,8 hPa 0,0 l/m 2,3 km/h (1 Bft) S 169 0 min 0,000 mm 0,0 UV-I 0 W/m -1,3 C 2,5 C 3,2 km/h (1 Bft) 97,87 %
28.11.2017 00:32 2,6 C 4,4 C 75 % 1016,8 hPa 0,0 l/m 2,0 km/h (1 Bft) S 169 0 min 0,000 mm 0,0 UV-I 0 W/m -1,4 C 2,6 C 3,2 km/h (1 Bft) 100,00 %
28.11.2017 00:34 2,6 C 4,4 C 75 % 1016,8 hPa 0,0 l/m 1,3 km/h (1 Bft) S 169 0 min 0,000 mm 0,0 UV-I 0 W/m -1,4 C 2,6 C 3,2 km/h (1 Bft) 100,00 %
28.11.2017 00:36 2,6 C 4,4 C 75 % 1016,7 hPa 0,0 l/m 1,0 km/h (0 Bft) S 169 0 min 0,000 mm 0,0 UV-I 0 W/m -1,4 C 2,6 C 3,2 km/h (1 Bft) 100,00 %
28.11.2017 00:38 2,5 C 4,4 C 76 % 1016,7 hPa 0,0 l/m 1,4 km/h (1 Bft) S 169 0 min 0,000 mm 0,0 UV-I 0 W/m -1,3 C 2,5 C 3,2 km/h (1 Bft) 94,44 %
28.11.2017 00:40 2,6 C 4,4 C 76 % 1016,7 hPa 0,0 l/m 2,2 km/h (1 Bft) S 169 0 min 0,000 mm 0,0 UV-I 0 W/m -1,2 C 2,6 C 3,2 km/h (1 Bft) 100,00 %
28.11.2017 00:42 2,6 C 4,4 C 76 % 1016,7 hPa 0,0 l/m 2,2 km/h (1 Bft) S 169 0 min 0,000 mm 0,0 UV-I 0 W/m -1,2 C 2,6 C 3,2 km/h (1 Bft) 97,92 %
28.11.2017 00:44 2,6 C 4,4 C 75 % 1016,7 hPa 0,0 l/m 0,7 km/h (0 Bft) S 169 0 min 0,000 mm 0,0 UV-I 0 W/m -1,4 C 2,6 C 1,6 km/h (1 Bft) 97,87 %
28.11.2017 00:46 2,6 C 4,4 C 75 % 1016,7 hPa 0,0 l/m 1,1 km/h (1 Bft) S 180 0 min 0,000 mm 0,0 UV-I 0 W/m -1,4 C 2,6 C 3,2 km/h (1 Bft) 96,00 %
28.11.2017 00:48 2,6 C 4,4 C 75 % 1016,6 hPa 0,0 l/m 1,6 km/h (1 Bft) SW 236 0 min 0,000 mm 0,0 UV-I 0 W/m -1,4 C 2,6 C 3,2 km/h (1 Bft) 97,87 %
28.11.2017 00:50 2,5 C 4,4 C 76 % 1016,6 hPa 0,0 l/m 0,0 km/h (0 Bft) SW 236 0 min 0,000 mm 0,0 UV-I 0 W/m -1,3 C 2,5 C 0,0 km/h (0 Bft) 95,74 %
28.11.2017 00:52 2,4 C 4,4 C 76 % 1016,5 hPa 0,0 l/m 1,3 km/h (1 Bft) SW 234 0 min 0,000 mm 0,0 UV-I 0 W/m -1,4 C 2,4 C 3,2 km/h (1 Bft) 97,87 %
28.11.2017 00:54 2,4 C 4,4 C 77 % 1016,5 hPa 0,0 l/m 1,7 km/h (1 Bft) S 184 0 min 0,000 mm 0,0 UV-I 0 W/m -1,2 C 2,4 C 3,2 km/h (1 Bft) 95,74 %
28.11.2017 00:56 2,4 C 4,4 C 78 % 1016,5 hPa 0,0 l/m 0,6 km/h (0 Bft) SW 219 0 min 0,000 mm 0,0 UV-I 0 W/m -1,0 C 2,4 C 3,2 km/h (1 Bft) 98,00 %
28.11.2017 00:58 2,4 C 4,4 C 78 % 1016,5 hPa 0,0 l/m 2,4 km/h (1 Bft) W 262 0 min 0,000 mm 0,0 UV-I 0 W/m -1,0 C 2,4 C 4,8 km/h (1 Bft) 95,74 %
28.11.2017 01:00 2,3 C 4,4 C 78 % 1016,5 hPa 0,0 l/m 2,7 km/h (1 Bft) W 263 0 min 0,000 mm 0,0 UV-I 0 W/m -1,1 C 2,3 C 3,2 km/h (1 Bft) 91,49 %
28.11.2017 01:02 2,3 C 4,4 C 79 % 1016,5 hPa 0,0 l/m 1,7 km/h (1 Bft) W 263 0 min 0,000 mm 0,0 UV-I 0 W/m -1,0 C 2,3 C 3,2 km/h (1 Bft) 100,00 %
28.11.2017 01:04 2,2 C 4,4 C 79 % 1016,5 hPa 0,0 l/m 0,7 km/h (0 Bft) SW 231 0 min 0,000 mm 0,0 UV-I 0 W/m -1,1 C 2,2 C 3,2 km/h (1 Bft) 93,75 %
28.11.2017 01:06 2,2 C 4,4 C 79 % 1016,4 hPa 0,0 l/m 0,8 km/h (0 Bft) SW 230 0 min 0,000 mm 0,0 UV-I 0 W/m -1,1 C 2,2 C 3,2 km/h (1 Bft) 97,87 %
28.11.2017 01:08 2,2 C 4,4 C 80 % 1016,4 hPa 0,0 l/m 0,6 km/h (0 Bft) SW 230 0 min 0,000 mm 0,0 UV-I 0 W/m -0,9 C 2,2 C 3,2 km/h (1 Bft) 97,87 %
28.11.2017 01:10 2,2 C 4,4 C 80 % 1016,3 hPa 0,0 l/m 1,5 km/h (1 Bft) SW 230 0 min 0,000 mm 0,0 UV-I 0 W/m -0,9 C 2,2 C 4,8 km/h (1 Bft) 95,74 %
28.11.2017 01:12 2,2 C 4,4 C 80 % 1016,3 hPa 0,0 l/m 3,9 km/h (1 Bft) S 171 0 min 0,000 mm 0,0 UV-I 0 W/m -0,9 C 2,2 C 6,4 km/h (2 Bft) 93,75 %
28.11.2017 01:14 2,2 C 4,4 C 80 % 1016,2 hPa 0,0 l/m 5,2 km/h (1 Bft) S-SO 163 0 min 0,000 mm 0,0 UV-I 0 W/m -0,9 C 2,2 C 8,0 km/h (2 Bft) 95,74 %
28.11.2017 01:16 2,2 C 4,4 C 80 % 1016,2 hPa 0,0 l/m 1,4 km/h (1 Bft) S-SO 163 0 min 0,000 mm 0,0 UV-I 0 W/m -0,9 C 2,2 C 3,2 km/h (1 Bft) 97,87 %
28.11.2017 01:18 2,2 C 4,4 C 79 % 1016,1 hPa 0,0 l/m 1,3 km/h (1 Bft) S-SO 163 0 min 0,000 mm 0,0 UV-I 0 W/m -1,1 C 2,2 C 3,2 km/h (1 Bft) 97,87 %
28.11.2017 01:20 2,3 C 4,4 C 79 % 1016,1 hPa 0,0 l/m 0,7 km/h (0 Bft) S-SO 163 0 min 0,000 mm 0,0 UV-I 0 W/m -1,0 C 2,3 C 1,6 km/h (1 Bft) 97,87 %
28.11.2017 01:22 2,3 C 4,4 C 79 % 1016,1 hPa 0,0 l/m 1,7 km/h (1 Bft) S-SO 163 0 min 0,000 mm 0,0 UV-I 0 W/m -1,0 C 2,3 C 3,2 km/h (1 Bft) 93,62 %
28.11.2017 01:24 2,3 C 4,4 C 79 % 1016,1 hPa 0,0 l/m 1,9 km/h (1 Bft) S-SO 163 0 min 0,000 mm 0,0 UV-I 0 W/m -1,0 C 2,3 C 3,2 km/h (1 Bft) 96,00 %
28.11.2017 01:26 2,3 C 4,4 C 80 % 1016,0 hPa 0,0 l/m 1,2 km/h (1 Bft) S-SO 163 0 min 0,000 mm 0,0 UV-I 0 W/m -0,8 C 2,3 C 3,2 km/h (1 Bft) 97,87 %
28.11.2017 01:28 2,1 C 4,4 C 83 % 1016,0 hPa 0,0 l/m 0,0 km/h (0 Bft) S-SO 163 0 min 0,000 mm 0,0 UV-I 0 W/m -0,5 C 2,1 C 0,0 km/h (0 Bft) 91,49 %
28.11.2017 01:30 2,1 C 4,4 C 82 % 1016,0 hPa 0,0 l/m 0,0 km/h (0 Bft) S-SO 163 0 min 0,000 mm 0,0 UV-I 0 W/m -0,6 C 2,1 C 0,0 km/h (0 Bft) 98,00 %
28.11.2017 01:32 2,0 C 4,4 C 83 % 1015,9 hPa 0,0 l/m 0,0 km/h (0 Bft) S-SO 163 0 min 0,000 mm 0,0 UV-I 0 W/m -0,6 C 2,0 C 0,0 km/h (0 Bft) 97,87 %
28.11.2017 01:34 2,0 C 4,4 C 82 % 1015,9 hPa 0,0 l/m 0,0 km/h (0 Bft) S-SO 163 0 min 0,000 mm 0,0 UV-I 0 W/m -0,7 C 2,0 C 0,0 km/h (0 Bft) 93,62 %
28.11.2017 01:36 2,1 C 4,4 C 82 % 1015,8 hPa 0,0 l/m 0,5 km/h (0 Bft) S-SO 163 0 min 0,000 mm 0,0 UV-I 0 W/m -0,6 C 2,1 C 3,2 km/h (1 Bft) 97,87 %
28.11.2017 01:38 2,1 C 4,4 C 83 % 1015,8 hPa 0,0 l/m 1,6 km/h (1 Bft) S-SO 163 0 min 0,000 mm 0,0 UV-I 0 W/m -0,5 C 2,1 C 3,2 km/h (1 Bft) 97,87 %
28.11.2017 01:40 2,1 C 4,4 C 84 % 1015,7 hPa 0,0 l/m 0,4 km/h (0 Bft) S-SO 163 0 min 0,000 mm 0,0 UV-I 0 W/m -0,3 C 2,1 C 1,6 km/h (1 Bft) 93,62 %
28.11.2017 01:42 2,1 C 4,4 C 83 % 1015,7 hPa 0,0 l/m 2,4 km/h (1 Bft) S-SO 163 0 min 0,000 mm 0,0 UV-I 0 W/m -0,5 C 2,1 C 6,4 km/h (2 Bft) 95,74 %
28.11.2017 01:44 2,1 C 4,4 C 82 % 1015,7 hPa 0,0 l/m 1,1 km/h (1 Bft) S-SO 163 0 min 0,000 mm 0,0 UV-I 0 W/m -0,6 C 2,1 C 3,2 km/h (1 Bft) 97,87 %
28.11.2017 01:46 2,1 C 4,4 C 82 % 1015,7 hPa 0,0 l/m 0,4 km/h (0 Bft) S-SO 163 0 min 0,000 mm 0,0 UV-I 0 W/m -0,6 C 2,1 C 3,2 km/h (1 Bft) 95,74 %
28.11.2017 01:48 2,2 C 4,4 C 82 % 1015,8 hPa 0,0 l/m 0,7 km/h (0 Bft) S-SO 163 0 min 0,000 mm 0,0 UV-I 0 W/m -0,5 C 2,2 C 1,6 km/h (1 Bft) 95,74 %
28.11.2017 01:50 2,2 C 4,4 C 82 % 1015,8 hPa 0,0 l/m 0,9 km/h (0 Bft) S-SO 163 0 min 0,000 mm 0,0 UV-I 0 W/m -0,5 C 2,2 C 1,6 km/h (1 Bft) 97,87 %
28.11.2017 01:52 2,3 C 4,4 C 82 % 1015,7 hPa 0,0 l/m 0,5 km/h (0 Bft) S-SO 163 0 min 0,000 mm 0,0 UV-I 0 W/m -0,4 C 2,3 C 1,6 km/h (1 Bft) 97,22 %
28.11.2017 01:54 2,3 C 4,4 C 82 % 1015,7 hPa 0,0 l/m 0,0 km/h (0 Bft) S-SO 163 0 min 0,000 mm 0,0 UV-I 0 W/m -0,4 C 2,3 C 0,0 km/h (0 Bft) 98,00 %
28.11.2017 01:56 2,3 C 4,4 C 81 % 1015,7 hPa 0,0 l/m 0,5 km/h (0 Bft) S-SO 163 0 min 0,000 mm 0,0 UV-I 0 W/m -0,6 C 2,3 C 3,2 km/h (1 Bft) 95,74 %
28.11.2017 01:58 2,2 C 4,4 C 82 % 1015,7 hPa 0,0 l/m 2,5 km/h (1 Bft) S-SO 163 0 min 0,000 mm 0,0 UV-I 0 W/m -0,5 C 2,2 C 3,2 km/h (1 Bft) 95,74 %
28.11.2017 02:00 2,1 C 4,4 C 84 % 1015,7 hPa 0,0 l/m 1,1 km/h (1 Bft) S-SO 163 0 min 0,000 mm 0,0 UV-I 0 W/m -0,3 C 2,1 C 3,2 km/h (1 Bft) 97,87 %
28.11.2017 02:02 2,1 C 4,4 C 84 % 1015,7 hPa 0,0 l/m 0,0 km/h (0 Bft) S-SO 163 0 min 0,000 mm 0,0 UV-I 0 W/m -0,3 C 2,1 C 0,0 km/h (0 Bft) 97,87 %
28.11.2017 02:04 2,0 C 4,4 C 84 % 1015,7 hPa 0,0 l/m 1,2 km/h (1 Bft) S-SO 163 0 min 0,000 mm 0,0 UV-I 0 W/m -0,4 C 2,0 C 3,2 km/h (1 Bft) 96,00 %
28.11.2017 02:06 1,9 C 4,4 C 85 % 1015,6 hPa 0,0 l/m 0,2 km/h (0 Bft) S-SO 163 0 min 0,000 mm 0,0 UV-I 0 W/m -0,3 C 1,9 C 1,6 km/h (1 Bft) 97,87 %
28.11.2017 02:08 1,9 C 4,4 C 85 % 1015,6 hPa 0,0 l/m 0,0 km/h (0 Bft) S-SO 163 0 min 0,000 mm 0,0 UV-I 0 W/m -0,3 C 1,9 C 0,0 km/h (0 Bft) 97,87 %
28.11.2017 02:10 1,9 C 4,4 C 85 % 1015,5 hPa 0,0 l/m 0,9 km/h (0 Bft) S-SO 163 0 min 0,000 mm 0,0 UV-I 0 W/m -0,3 C 1,9 C 3,2 km/h (1 Bft) 97,87 %
28.11.2017 02:12 1,9 C 4,4 C 85 % 1015,5 hPa 0,0 l/m 0,0 km/h (0 Bft) S-SO 163 0 min 0,000 mm 0,0 UV-I 0 W/m -0,3 C 1,9 C 0,0 km/h (0 Bft) 97,87 %
28.11.2017 02:14 1,9 C 4,4 C 86 % 1015,5 hPa 0,0 l/m 0,1 km/h (0 Bft) S-SO 163 0 min 0,000 mm 0,0 UV-I 0 W/m -0,2 C 1,9 C 1,6 km/h (1 Bft) 95,74 %
28.11.2017 02:16 1,9 C 4,4 C 86 % 1015,5 hPa 0,0 l/m 0,2 km/h (0 Bft) S-SO 163 0 min 0,000 mm 0,0 UV-I 0 W/m -0,2 C 1,9 C 1,6 km/h (1 Bft) 95,83 %
28.11.2017 02:18 1,8 C 4,4 C 87 % 1015,5 hPa 0,0 l/m 1,4 km/h (1 Bft) S-SO 163 0 min 0,000 mm 0,0 UV-I 0 W/m -0,1 C 1,8 C 3,2 km/h (1 Bft) 95,74 %
28.11.2017 02:20 1,9 C 4,4 C 87 % 1015,5 hPa 0,0 l/m 0,0 km/h (0 Bft) S-SO 163 0 min 0,000 mm 0,0 UV-I 0 W/m -0,0 C 1,9 C 1,6 km/h (1 Bft) 92,11 %
28.11.2017 02:22 1,9 C 4,4 C 86 % 1015,6 hPa 0,0 l/m 0,5 km/h (0 Bft) S-SO 163 0 min 0,000 mm 0,0 UV-I 0 W/m -0,2 C 1,9 C 1,6 km/h (1 Bft) 97,87 %
28.11.2017 02:24 2,0 C 4,4 C 85 % 1015,7 hPa 0,0 l/m 0,1 km/h (0 Bft) S-SO 163 0 min 0,000 mm 0,0 UV-I 0 W/m -0,3 C 2,0 C 1,6 km/h (1 Bft) 97,87 %
28.11.2017 02:26 1,9 C 4,4 C 87 % 1015,6 hPa 0,0 l/m 0,2 km/h (0 Bft) S-SO 163 0 min 0,000 mm 0,0 UV-I 0 W/m -0,0 C 1,9 C 1,6 km/h (1 Bft) 97,96 %
28.11.2017 02:28 1,9 C 4,4 C 86 % 1015,6 hPa 0,0 l/m 0,6 km/h (0 Bft) S-SO 163 0 min 0,000 mm 0,0 UV-I 0 W/m -0,2 C 1,9 C 1,6 km/h (1 Bft) 95,83 %
28.11.2017 02:30 1,9 C 4,4 C 86 % 1015,6 hPa 0,0 l/m 0,9 km/h (0 Bft) S-SO 163 0 min 0,000 mm 0,0 UV-I 0 W/m -0,2 C 1,9 C 3,2 km/h (1 Bft) 95,74 %
28.11.2017 02:32 1,9 C 4,4 C 86 % 1015,7 hPa 0,0 l/m 0,1 km/h (0 Bft) S-SO 163 0 min 0,000 mm 0,0 UV-I 0 W/m -0,2 C 1,9 C 1,6 km/h (1 Bft) 95,74 %
28.11.2017 02:34 1,9 C 4,4 C 86 % 1015,6 hPa 0,0 l/m 2,5 km/h (1 Bft) NO 49 0 min 0,000 mm 0,0 UV-I 0 W/m -0,2 C 1,9 C 6,4 km/h (2 Bft) 100,00 %
28.11.2017 02:36 1,9 C 4,4 C 84 % 1015,4 hPa 0,0 l/m 5,9 km/h (2 Bft) NO 49 0 min 0,000 mm 0,0 UV-I 0 W/m -0,5 C 1,9 C 8,0 km/h (2 Bft) 100,00 %
28.11.2017 02:38 1,9 C 4,4 C 83 % 1015,4 hPa 0,0 l/m 5,6 km/h (1 Bft) O-NO 60 0 min 0,000 mm 0,0 UV-I 0 W/m -0,7 C 1,9 C 8,0 km/h (2 Bft) 97,87 %
28.11.2017 02:40 1,9 C 4,4 C 85 % 1015,5 hPa 0,0 l/m 5,3 km/h (1 Bft) NO 48 0 min 0,000 mm 0,0 UV-I 0 W/m -0,3 C 1,9 C 6,4 km/h (2 Bft) 100,00 %
28.11.2017 02:42 1,8 C 4,4 C 86 % 1015,6 hPa 0,0 l/m 0,4 km/h (0 Bft) NO 48 0 min 0,000 mm 0,0 UV-I 0 W/m -0,3 C 1,8 C 3,2 km/h (1 Bft) 95,74 %
28.11.2017 02:44 1,8 C 4,4 C 86 % 1015,4 hPa 0,0 l/m 2,9 km/h (1 Bft) NO 48 0 min 0,000 mm 0,0 UV-I 0 W/m -0,3 C 1,8 C 6,4 km/h (2 Bft) 98,00 %
28.11.2017 02:46 1,7 C 4,4 C 86 % 1015,6 hPa 0,0 l/m 4,5 km/h (1 Bft) W-SW 254 0 min 0,000 mm 0,0 UV-I 0 W/m -0,4 C 1,7 C 11,3 km/h (2 Bft) 97,87 %
28.11.2017 02:48 1,8 C 4,4 C 86 % 1015,2 hPa 0,0 l/m 5,0 km/h (1 Bft) S-SO 149 0 min 0,000 mm 0,0 UV-I 0 W/m -0,3 C 1,8 C 11,3 km/h (2 Bft) 94,74 %
28.11.2017 02:50 1,8 C 4,4 C 86 % 1015,1 hPa 0,0 l/m 6,9 km/h (2 Bft) O-SO 107 0 min 0,000 mm 0,0 UV-I 0 W/m -0,3 C 1,3 C 9,7 km/h (2 Bft) 95,74 %
28.11.2017 02:52 1,8 C 4,4 C 86 % 1015,2 hPa 0,0 l/m 3,6 km/h (1 Bft) SO 145 0 min 0,000 mm 0,0 UV-I 0 W/m -0,3 C 1,8 C 6,4 km/h (2 Bft) 95,74 %
28.11.2017 02:54 1,8 C 4,4 C 87 % 1015,3 hPa 0,0 l/m 1,2 km/h (1 Bft) SO 145 0 min 0,000 mm 0,0 UV-I 0 W/m -0,1 C 1,8 C 3,2 km/h (1 Bft) 97,87 %
28.11.2017 02:56 1,8 C 4,4 C 87 % 1015,2 hPa 0,0 l/m 1,6 km/h (1 Bft) W 262 0 min 0,000 mm 0,0 UV-I 0 W/m -0,1 C 1,8 C 3,2 km/h (1 Bft) 98,00 %
28.11.2017 02:58 1,8 C 4,4 C 87 % 1015,2 hPa 0,0 l/m 0,5 km/h (0 Bft) W 262 0 min 0,000 mm 0,0 UV-I 0 W/m -0,1 C 1,8 C 1,6 km/h (1 Bft) 97,87 %
28.11.2017 03:00 1,8 C 4,4 C 87 % 1015,3 hPa 0,0 l/m 2,3 km/h (1 Bft) W 262 0 min 0,000 mm 0,0 UV-I 0 W/m -0,1 C 1,8 C 4,8 km/h (1 Bft) 94,00 %
28.11.2017 03:02 1,8 C 4,4 C 86 % 1015,1 hPa 0,0 l/m 1,0 km/h (0 Bft) W 259 0 min 0,000 mm 0,0 UV-I 0 W/m -0,3 C 1,8 C 3,2 km/h (1 Bft) 95,74 %
28.11.2017 03:04 1,8 C 4,4 C 86 % 1015,0 hPa 0,0 l/m 2,8 km/h (1 Bft) W 260 0 min 0,000 mm 0,0 UV-I 0 W/m -0,3 C 1,8 C 4,8 km/h (1 Bft) 93,62 %
28.11.2017 03:06 1,8 C 4,4 C 87 % 1015,0 hPa 0,0 l/m 2,4 km/h (1 Bft) N-NW 343 0 min 0,000 mm 0,0 UV-I 0 W/m -0,1 C 1,8 C 4,8 km/h (1 Bft) 93,62 %
28.11.2017 03:08 1,8 C 4,4 C 87 % 1015,0 hPa 0,0 l/m 2,4 km/h (1 Bft) N-NW 343 0 min 0,000 mm 0,0 UV-I 0 W/m -0,1 C 1,8 C 3,2 km/h (1 Bft) 97,87 %
28.11.2017 03:10 1,8 C 4,4 C 87 % 1015,0 hPa 0,0 l/m 4,0 km/h (1 Bft) N 5 0 min 0,000 mm 0,0 UV-I 0 W/m -0,1 C 1,8 C 4,8 km/h (1 Bft) 97,87 %
28.11.2017 03:12 1,8 C 4,4 C 85 % 1015,0 hPa 0,0 l/m 2,5 km/h (1 Bft) N 5 0 min 0,000 mm 0,0 UV-I 0 W/m -0,4 C 1,8 C 4,8 km/h (1 Bft) 97,87 %
28.11.2017 03:14 1,8 C 4,4 C 85 % 1015,0 hPa 0,0 l/m 3,5 km/h (1 Bft) N 5 0 min 0,000 mm 0,0 UV-I 0 W/m -0,4 C 1,8 C 4,8 km/h (1 Bft) 97,87 %
28.11.2017 03:16 1,8 C 4,4 C 85 % 1015,0 hPa 0,0 l/m 1,7 km/h (1 Bft) N 5 0 min 0,000 mm 0,0 UV-I 0 W/m -0,4 C 1,8 C 4,8 km/h (1 Bft) 97,87 %
28.11.2017 03:18 1,8 C 4,4 C 86 % 1014,9 hPa 0,0 l/m 2,1 km/h (1 Bft) NO 56 0 min 0,000 mm 0,0 UV-I 0 W/m -0,3 C 1,8 C 6,4 km/h (2 Bft) 97,22 %
28.11.2017 03:20 1,8 C 4,4 C 85 % 1015,0 hPa 0,0 l/m 4,0 km/h (1 Bft) W-NW 303 0 min 0,000 mm 0,0 UV-I 0 W/m -0,4 C 1,8 C 6,4 km/h (2 Bft) 98,00 %
28.11.2017 03:22 1,8 C 4,4 C 86 % 1014,9 hPa 0,0 l/m 1,1 km/h (1 Bft) W-NW 303 0 min 0,000 mm 0,0 UV-I 0 W/m -0,3 C 1,8 C 3,2 km/h (1 Bft) 93,62 %
28.11.2017 03:24 1,8 C 4,4 C 86 % 1014,9 hPa 0,0 l/m 0,0 km/h (0 Bft) W-NW 303 0 min 0,000 mm 0,0 UV-I 0 W/m -0,3 C 1,8 C 1,6 km/h (1 Bft) 100,00 %
28.11.2017 03:26 1,8 C 4,4 C 86 % 1014,9 hPa 0,0 l/m 0,2 km/h (0 Bft) W-NW 303 0 min 0,000 mm 0,0 UV-I 0 W/m -0,3 C 1,8 C 1,6 km/h (1 Bft) 97,87 %
28.11.2017 03:28 1,8 C 4,4 C 86 % 1014,8 hPa 0,0 l/m 0,9 km/h (0 Bft) W-NW 303 0 min 0,000 mm 0,0 UV-I 0 W/m -0,3 C 1,8 C 3,2 km/h (1 Bft) 97,87 %
28.11.2017 03:30 1,8 C 4,4 C 87 % 1014,8 hPa 0,0 l/m 1,4 km/h (1 Bft) W-NW 303 0 min 0,000 mm 0,0 UV-I 0 W/m -0,1 C 1,8 C 3,2 km/h (1 Bft) 97,87 %
28.11.2017 03:32 1,7 C 4,4 C 87 % 1014,8 hPa 0,0 l/m 0,7 km/h (0 Bft) W-NW 303 0 min 0,000 mm 0,0 UV-I 0 W/m -0,2 C 1,7 C 3,2 km/h (1 Bft) 100,00 %
28.11.2017 03:34 1,7 C 4,4 C 86 % 1014,7 hPa 0,0 l/m 3,0 km/h (1 Bft) W-NW 303 0 min 0,000 mm 0,0 UV-I 0 W/m -0,4 C 1,7 C 3,2 km/h (1 Bft) 100,00 %
28.11.2017 03:36 1,7 C 4,4 C 86 % 1014,7 hPa 0,0 l/m 2,1 km/h (1 Bft) W-NW 303 0 min 0,000 mm 0,0 UV-I 0 W/m -0,4 C 1,7 C 3,2 km/h (1 Bft) 100,00 %
28.11.2017 03:38 1,7 C 4,4 C 87 % 1014,7 hPa 0,0 l/m 2,8 km/h (1 Bft) W-NW 303 0 min 0,000 mm 0,0 UV-I 0 W/m -0,2 C 1,7 C 3,2 km/h (1 Bft) 98,00 %
28.11.2017 03:40 1,6 C 4,4 C 87 % 1014,6 hPa 0,0 l/m 3,4 km/h (1 Bft) W-NW 303 0 min 0,000 mm 0,0 UV-I 0 W/m -0,3 C 1,6 C 4,8 km/h (1 Bft) 97,87 %
28.11.2017 03:42 1,6 C 4,4 C 87 % 1014,7 hPa 0,0 l/m 3,4 km/h (1 Bft) W-NW 302 0 min 0,000 mm 0,0 UV-I 0 W/m -0,3 C 1,6 C 4,8 km/h (1 Bft) 100,00 %
28.11.2017 03:44 1,6 C 4,4 C 87 % 1014,7 hPa 0,0 l/m 1,5 km/h (1 Bft) W-NW 302 0 min 0,000 mm 0,0 UV-I 0 W/m -0,3 C 1,6 C 3,2 km/h (1 Bft) 97,87 %
28.11.2017 03:46 1,6 C 4,4 C 87 % 1014,6 hPa 0,0 l/m 0,0 km/h (0 Bft) W-NW 302 0 min 0,000 mm 0,0 UV-I 0 W/m -0,3 C 1,6 C 0,0 km/h (0 Bft) 100,00 %
28.11.2017 03:48 1,6 C 4,4 C 87 % 1014,6 hPa 0,0 l/m 0,9 km/h (0 Bft) W-NW 302 0 min 0,000 mm 0,0 UV-I 0 W/m -0,3 C 1,6 C 3,2 km/h (1 Bft) 100,00 %
28.11.2017 03:50 1,5 C 4,4 C 88 % 1014,6 hPa 0,0 l/m 2,6 km/h (1 Bft) W-NW 302 0 min 0,000 mm 0,0 UV-I 0 W/m -0,3 C 1,5 C 3,2 km/h (1 Bft) 100,00 %
28.11.2017 03:52 1,4 C 4,4 C 88 % 1014,5 hPa 0,0 l/m 2,1 km/h (1 Bft) W-NW 302 0 min 0,000 mm 0,0 UV-I 0 W/m -0,4 C 1,4 C 3,2 km/h (1 Bft) 93,62 %
28.11.2017 03:54 1,3 C 4,4 C 89 % 1014,5 hPa 0,0 l/m 1,0 km/h (0 Bft) W-NW 302 0 min 0,000 mm 0,0 UV-I 0 W/m -0,3 C 1,3 C 3,2 km/h (1 Bft) 96,00 %
28.11.2017 03:56 1,2 C 4,4 C 89 % 1014,4 hPa 0,0 l/m 0,0 km/h (0 Bft) W-NW 302 0 min 0,000 mm 0,0 UV-I 0 W/m -0,4 C 1,2 C 0,0 km/h (0 Bft) 97,87 %
28.11.2017 03:58 1,1 C 4,4 C 90 % 1014,4 hPa 0,0 l/m 2,0 km/h (1 Bft) W-NW 302 0 min 0,000 mm 0,0 UV-I 0 W/m -0,4 C 1,1 C 3,2 km/h (1 Bft) 100,00 %
28.11.2017 04:00 1,1 C 4,4 C 90 % 1014,4 hPa 0,0 l/m 2,2 km/h (1 Bft) W-NW 302 0 min 0,000 mm 0,0 UV-I 0 W/m -0,4 C 1,1 C 3,2 km/h (1 Bft) 100,00 %
28.11.2017 04:02 1,1 C 4,4 C 89 % 1014,4 hPa 0,0 l/m 1,6 km/h (1 Bft) W-NW 301 0 min 0,000 mm 0,0 UV-I 0 W/m -0,5 C 1,1 C 3,2 km/h (1 Bft) 96,55 %
28.11.2017 04:04 1,1 C 4,4 C 89 % 1014,4 hPa 0,0 l/m 0,0 km/h (0 Bft) W-NW 301 0 min 0,000 mm 0,0 UV-I 0 W/m -0,5 C 1,1 C 1,6 km/h (1 Bft) 100,00 %
28.11.2017 04:06 1,1 C 4,4 C 89 % 1014,4 hPa 0,0 l/m 0,4 km/h (0 Bft) W-NW 301 0 min 0,000 mm 0,0 UV-I 0 W/m -0,5 C 1,1 C 1,6 km/h (1 Bft) 100,00 %
28.11.2017 04:08 1,1 C 4,4 C 89 % 1014,3 hPa 0,0 l/m 0,0 km/h (0 Bft) W-NW 301 0 min 0,000 mm 0,0 UV-I 0 W/m -0,5 C 1,1 C 0,0 km/h (0 Bft) 100,00 %
28.11.2017 04:10 1,1 C 4,4 C 88 % 1014,3 hPa 0,0 l/m 0,0 km/h (0 Bft) W-NW 301 0 min 0,000 mm 0,0 UV-I 0 W/m -0,7 C 1,1 C 0,0 km/h (0 Bft) 97,87 %
28.11.2017 04:12 1,1 C 4,4 C 88 % 1014,3 hPa 0,0 l/m 0,5 km/h (0 Bft) W-NW 300 0 min 0,000 mm 0,0 UV-I 0 W/m -0,7 C 1,1 C 1,6 km/h (1 Bft) 92,00 %
28.11.2017 04:14 1,1 C 4,4 C 88 % 1014,3 hPa 0,0 l/m 0,8 km/h (0 Bft) W-NW 291 0 min 0,000 mm 0,0 UV-I 0 W/m -0,7 C 1,1 C 3,2 km/h (1 Bft) 100,00 %
28.11.2017 04:16 0,9 C 4,4 C 88 % 1014,2 hPa 0,0 l/m 2,5 km/h (1 Bft) SO 144 0 min 0,000 mm 0,0 UV-I 0 W/m -0,9 C 0,9 C 3,2 km/h (1 Bft) 100,00 %
28.11.2017 04:18 0,9 C 4,4 C 88 % 1014,2 hPa 0,0 l/m 1,9 km/h (1 Bft) SO 144 0 min 0,000 mm 0,0 UV-I 0 W/m -0,9 C 0,9 C 3,2 km/h (1 Bft) 100,00 %
28.11.2017 04:20 0,9 C 4,4 C 88 % 1014,2 hPa 0,0 l/m 1,5 km/h (1 Bft) SO 144 0 min 0,000 mm 0,0 UV-I 0 W/m -0,9 C 0,9 C 4,8 km/h (1 Bft) 97,87 %
28.11.2017 04:22 1,0 C 4,4 C 87 % 1014,2 hPa 0,0 l/m 0,9 km/h (0 Bft) SO 144 0 min 0,000 mm 0,0 UV-I 0 W/m -0,9 C 1,0 C 1,6 km/h (1 Bft) 95,74 %
28.11.2017 04:24 0,9 C 4,4 C 87 % 1014,1 hPa 0,0 l/m 2,4 km/h (1 Bft) SO 140 0 min 0,000 mm 0,0 UV-I 0 W/m -1,0 C 0,9 C 6,4 km/h (2 Bft) 100,00 %
28.11.2017 04:26 0,9 C 4,4 C 87 % 1014,1 hPa 0,0 l/m 2,7 km/h (1 Bft) SO 146 0 min 0,000 mm 0,0 UV-I 0 W/m -1,0 C 0,9 C 4,8 km/h (1 Bft) 100,00 %
28.11.2017 04:28 1,1 C 4,4 C 86 % 1014,1 hPa 0,0 l/m 2,3 km/h (1 Bft) SO 146 0 min 0,000 mm 0,0 UV-I 0 W/m -1,0 C 1,1 C 4,8 km/h (1 Bft) 100,00 %
28.11.2017 04:30 1,2 C 4,4 C 85 % 1014,1 hPa 0,0 l/m 2,6 km/h (1 Bft) SO 145 0 min 0,000 mm 0,0 UV-I 0 W/m -1,0 C 1,2 C 6,4 km/h (2 Bft) 100,00 %
28.11.2017 04:32 1,3 C 4,4 C 85 % 1014,0 hPa 0,0 l/m 3,8 km/h (1 Bft) SO 144 0 min 0,000 mm 0,0 UV-I 0 W/m -0,9 C 1,3 C 4,8 km/h (1 Bft) 100,00 %
28.11.2017 04:34 1,3 C 4,4 C 84 % 1014,0 hPa 0,0 l/m 2,4 km/h (1 Bft) S-SO 149 0 min 0,000 mm 0,0 UV-I 0 W/m -1,1 C 1,3 C 4,8 km/h (1 Bft) 100,00 %
28.11.2017 04:36 1,4 C 4,4 C 84 % 1014,0 hPa 0,0 l/m 2,2 km/h (1 Bft) S-SO 149 0 min 0,000 mm 0,0 UV-I 0 W/m -1,0 C 1,4 C 4,8 km/h (1 Bft) 100,00 %
28.11.2017 04:38 1,5 C 4,4 C 83 % 1013,9 hPa 0,0 l/m 1,4 km/h (1 Bft) S-SO 149 0 min 0,000 mm 0,0 UV-I 0 W/m -1,1 C 1,5 C 3,2 km/h (1 Bft) 100,00 %
28.11.2017 04:40 1,3 C 4,4 C 84 % 1013,9 hPa 0,0 l/m 2,0 km/h (1 Bft) S-SO 149 0 min 0,000 mm 0,0 UV-I 0 W/m -1,1 C 1,3 C 3,2 km/h (1 Bft) 100,00 %
28.11.2017 04:42 1,3 C 4,4 C 84 % 1013,9 hPa 0,0 l/m 1,2 km/h (1 Bft) S-SO 149 0 min 0,000 mm 0,0 UV-I 0 W/m -1,1 C 1,3 C 3,2 km/h (1 Bft) 97,87 %
28.11.2017 04:44 1,4 C 4,4 C 84 % 1013,9 hPa 0,0 l/m 1,6 km/h (1 Bft) S-SO 149 0 min 0,000 mm 0,0 UV-I 0 W/m -1,0 C 1,4 C 3,2 km/h (1 Bft) 98,00 %
28.11.2017 04:46 1,6 C 4,4 C 83 % 1013,9 hPa 0,0 l/m 2,7 km/h (1 Bft) S-SO 148 0 min 0,000 mm 0,0 UV-I 0 W/m -1,0 C 1,6 C 6,4 km/h (2 Bft) 100,00 %
28.11.2017 04:48 1,4 C 4,4 C 84 % 1013,9 hPa 0,0 l/m 3,5 km/h (1 Bft) S-SO 148 0 min 0,000 mm 0,0 UV-I 0 W/m -1,0 C 1,4 C 6,4 km/h (2 Bft) 97,87 %
28.11.2017 04:50 1,3 C 4,4 C 85 % 1013,9 hPa 0,0 l/m 3,3 km/h (1 Bft) S-SO 149 0 min 0,000 mm 0,0 UV-I 0 W/m -0,9 C 1,3 C 4,8 km/h (1 Bft) 95,74 %
28.11.2017 04:52 1,3 C 4,4 C 86 % 1013,9 hPa 0,0 l/m 3,3 km/h (1 Bft) S-SO 148 0 min 0,000 mm 0,0 UV-I 0 W/m -0,8 C 1,3 C 4,8 km/h (1 Bft) 97,87 %
28.11.2017 04:54 1,4 C 4,4 C 85 % 1013,9 hPa 0,0 l/m 3,5 km/h (1 Bft) S-SO 148 0 min 0,000 mm 0,0 UV-I 0 W/m -0,8 C 1,4 C 6,4 km/h (2 Bft) 97,87 %
28.11.2017 04:56 1,4 C 4,4 C 85 % 1013,8 hPa 0,0 l/m 3,9 km/h (1 Bft) S-SO 148 0 min 0,000 mm 0,0 UV-I 0 W/m -0,8 C 1,4 C 4,8 km/h (1 Bft) 95,74 %
28.11.2017 04:58 1,6 C 4,4 C 85 % 1013,7 hPa 0,0 l/m 3,8 km/h (1 Bft) S-SO 148 0 min 0,000 mm 0,0 UV-I 0 W/m -0,6 C 1,6 C 6,4 km/h (2 Bft) 95,74 %
28.11.2017 05:00 1,6 C 4,4 C 85 % 1013,7 hPa 0,0 l/m 3,6 km/h (1 Bft) S-SO 148 0 min 0,000 mm 0,0 UV-I 0 W/m -0,6 C 1,6 C 4,8 km/h (1 Bft) 95,74 %
28.11.2017 05:02 1,6 C 4,4 C 85 % 1013,6 hPa 0,0 l/m 3,0 km/h (1 Bft) S-SO 148 0 min 0,000 mm 0,0 UV-I 0 W/m -0,6 C 1,6 C 4,8 km/h (1 Bft) 96,23 %
28.11.2017 05:04 1,6 C 4,4 C 85 % 1013,6 hPa 0,0 l/m 3,1 km/h (1 Bft) S-SO 148 0 min 0,000 mm 0,0 UV-I 0 W/m -0,6 C 1,6 C 4,8 km/h (1 Bft) 94,74 %
28.11.2017 05:06 1,4 C 4,4 C 85 % 1013,5 hPa 0,0 l/m 3,0 km/h (1 Bft) S-SO 148 0 min 0,000 mm 0,0 UV-I 0 W/m -0,8 C 1,4 C 4,8 km/h (1 Bft) 91,49 %
28.11.2017 05:08 1,4 C 4,4 C 85 % 1013,4 hPa 0,0 l/m 2,2 km/h (1 Bft) S-SO 148 0 min 0,000 mm 0,0 UV-I 0 W/m -0,8 C 1,4 C 4,8 km/h (1 Bft) 97,87 %
28.11.2017 05:10 1,4 C 4,4 C 85 % 1013,4 hPa 0,0 l/m 0,6 km/h (0 Bft) S-SO 148 0 min 0,000 mm 0,0 UV-I 0 W/m -0,8 C 1,4 C 3,2 km/h (1 Bft) 95,83 %
28.11.2017 05:12 1,6 C 4,4 C 84 % 1013,5 hPa 0,0 l/m 2,2 km/h (1 Bft) S-SO 148 0 min 0,000 mm 0,0 UV-I 0 W/m -0,8 C 1,6 C 6,4 km/h (2 Bft) 95,74 %
28.11.2017 05:14 1,6 C 4,4 C 83 % 1013,5 hPa 0,0 l/m 1,8 km/h (1 Bft) S-SO 148 0 min 0,000 mm 0,0 UV-I 0 W/m -1,0 C 1,6 C 4,8 km/h (1 Bft) 97,87 %
28.11.2017 05:16 1,7 C 4,4 C 83 % 1013,5 hPa 0,0 l/m 2,0 km/h (1 Bft) S-SO 148 0 min 0,000 mm 0,0 UV-I 0 W/m -0,9 C 1,7 C 3,2 km/h (1 Bft) 95,74 %
28.11.2017 05:18 1,7 C 4,4 C 82 % 1013,5 hPa 0,0 l/m 1,4 km/h (1 Bft) S-SO 148 0 min 0,000 mm 0,0 UV-I 0 W/m -1,0 C 1,7 C 3,2 km/h (1 Bft) 98,00 %
28.11.2017 05:20 1,8 C 4,4 C 81 % 1013,5 hPa 0,0 l/m 2,2 km/h (1 Bft) S-SO 148 0 min 0,000 mm 0,0 UV-I 0 W/m -1,1 C 1,8 C 4,8 km/h (1 Bft) 97,87 %
28.11.2017 05:22 1,8 C 4,4 C 81 % 1013,4 hPa 0,0 l/m 1,8 km/h (1 Bft) S-SO 148 0 min 0,000 mm 0,0 UV-I 0 W/m -1,1 C 1,8 C 4,8 km/h (1 Bft) 96,00 %
28.11.2017 05:24 1,9 C 4,4 C 80 % 1013,4 hPa 0,0 l/m 1,6 km/h (1 Bft) S-SO 148 0 min 0,000 mm 0,0 UV-I 0 W/m -1,2 C 1,9 C 3,2 km/h (1 Bft) 97,87 %
28.11.2017 05:26 1,8 C 4,4 C 81 % 1013,4 hPa 0,0 l/m 1,4 km/h (1 Bft) S-SO 148 0 min 0,000 mm 0,0 UV-I 0 W/m -1,1 C 1,8 C 3,2 km/h (1 Bft) 93,62 %
28.11.2017 05:28 1,8 C 4,4 C 82 % 1013,4 hPa 0,0 l/m 1,3 km/h (1 Bft) S-SO 148 0 min 0,000 mm 0,0 UV-I 0 W/m -0,9 C 1,8 C 3,2 km/h (1 Bft) 97,87 %
28.11.2017 05:30 1,8 C 4,4 C 81 % 1013,4 hPa 0,0 l/m 1,2 km/h (1 Bft) S-SO 148 0 min 0,000 mm 0,0 UV-I 0 W/m -1,1 C 1,8 C 3,2 km/h (1 Bft) 95,74 %
28.11.2017 05:32 1,8 C 4,4 C 81 % 1013,4 hPa 0,0 l/m 0,5 km/h (0 Bft) S-SO 148 0 min 0,000 mm 0,0 UV-I 0 W/m -1,1 C 1,8 C 1,6 km/h (1 Bft) 97,87 %
28.11.2017 05:34 1,8 C 4,4 C 81 % 1013,3 hPa 0,0 l/m 0,2 km/h (0 Bft) S-SO 148 0 min 0,000 mm 0,0 UV-I 0 W/m -1,1 C 1,8 C 1,6 km/h (1 Bft) 97,87 %
28.11.2017 05:36 1,8 C 4,4 C 82 % 1013,3 hPa 0,0 l/m 1,3 km/h (1 Bft) S-SO 148 0 min 0,000 mm 0,0 UV-I 0 W/m -0,9 C 1,8 C 3,2 km/h (1 Bft) 93,62 %
28.11.2017 05:38 1,7 C 4,4 C 82 % 1013,3 hPa 0,0 l/m 1,6 km/h (1 Bft) S-SO 148 0 min 0,000 mm 0,0 UV-I 0 W/m -1,0 C 1,7 C 3,2 km/h (1 Bft) 95,74 %
28.11.2017 05:40 1,8 C 4,4 C 82 % 1013,3 hPa 0,0 l/m 2,4 km/h (1 Bft) S-SO 148 0 min 0,000 mm 0,0 UV-I 0 W/m -0,9 C 1,8 C 3,2 km/h (1 Bft) 100,00 %
28.11.2017 05:42 1,8 C 4,4 C 83 % 1013,3 hPa 0,0 l/m 3,0 km/h (1 Bft) S-SO 148 0 min 0,000 mm 0,0 UV-I 0 W/m -0,8 C 1,8 C 4,8 km/h (1 Bft) 93,62 %
28.11.2017 05:44 1,9 C 4,4 C 81 % 1013,3 hPa 0,0 l/m 3,4 km/h (1 Bft) S-SO 148 0 min 0,000 mm 0,0 UV-I 0 W/m -1,0 C 1,9 C 4,8 km/h (1 Bft) 97,87 %
28.11.2017 05:46 1,9 C 4,4 C 80 % 1013,3 hPa 0,0 l/m 4,1 km/h (1 Bft) S-SO 148 0 min 0,000 mm 0,0 UV-I 0 W/m -1,2 C 1,9 C 4,8 km/h (1 Bft) 98,00 %
28.11.2017 05:48 1,9 C 4,4 C 80 % 1013,3 hPa 0,0 l/m 3,3 km/h (1 Bft) S-SO 148 0 min 0,000 mm 0,0 UV-I 0 W/m -1,2 C 1,9 C 4,8 km/h (1 Bft) 97,87 %
28.11.2017 05:50 1,9 C 4,4 C 82 % 1013,3 hPa 0,0 l/m 4,1 km/h (1 Bft) S-SO 148 0 min 0,000 mm 0,0 UV-I 0 W/m -0,8 C 1,9 C 4,8 km/h (1 Bft) 97,87 %
28.11.2017 05:52 1,7 C 4,4 C 85 % 1013,3 hPa 0,0 l/m 4,1 km/h (1 Bft) S-SO 148 0 min 0,000 mm 0,0 UV-I 0 W/m -0,5 C 1,7 C 4,8 km/h (1 Bft) 97,92 %
28.11.2017 05:54 1,6 C 4,4 C 85 % 1013,2 hPa 0,0 l/m 3,2 km/h (1 Bft) S-SO 148 0 min 0,000 mm 0,0 UV-I 0 W/m -0,6 C 1,6 C 4,8 km/h (1 Bft) 97,87 %
28.11.2017 05:56 1,6 C 4,4 C 84 % 1013,2 hPa 0,0 l/m 4,3 km/h (1 Bft) S-SO 148 0 min 0,000 mm 0,0 UV-I 0 W/m -0,8 C 1,6 C 6,4 km/h (2 Bft) 97,87 %
28.11.2017 05:58 1,7 C 4,4 C 84 % 1013,1 hPa 0,0 l/m 4,6 km/h (1 Bft) S-SO 147 0 min 0,000 mm 0,0 UV-I 0 W/m -0,7 C 1,7 C 6,4 km/h (2 Bft) 97,87 %
28.11.2017 06:00 1,7 C 4,4 C 84 % 1013,2 hPa 0,0 l/m 4,8 km/h (1 Bft) SO 146 0 min 0,000 mm 0,0 UV-I 0 W/m -0,7 C 1,7 C 6,4 km/h (2 Bft) 96,23 %
28.11.2017 06:02 1,7 C 4,4 C 83 % 1013,3 hPa 0,0 l/m 3,7 km/h (1 Bft) SO 146 0 min 0,000 mm 0,0 UV-I 0 W/m -0,9 C 1,7 C 4,8 km/h (1 Bft) 97,37 %
28.11.2017 06:04 1,7 C 4,4 C 83 % 1013,3 hPa 0,0 l/m 1,0 km/h (0 Bft) SO 146 0 min 0,000 mm 0,0 UV-I 0 W/m -0,9 C 1,7 C 3,2 km/h (1 Bft) 98,00 %
28.11.2017 06:06 1,7 C 4,4 C 84 % 1013,2 hPa 0,0 l/m 3,4 km/h (1 Bft) SO 146 0 min 0,000 mm 0,0 UV-I 0 W/m -0,7 C 1,7 C 4,8 km/h (1 Bft) 96,00 %
28.11.2017 06:08 1,7 C 4,4 C 84 % 1013,2 hPa 0,0 l/m 3,1 km/h (1 Bft) SO 146 0 min 0,000 mm 0,0 UV-I 0 W/m -0,7 C 1,7 C 4,8 km/h (1 Bft) 95,74 %
28.11.2017 06:10 1,7 C 4,4 C 84 % 1013,2 hPa 0,0 l/m 2,8 km/h (1 Bft) SO 146 0 min 0,000 mm 0,0 UV-I 0 W/m -0,7 C 1,7 C 4,8 km/h (1 Bft) 97,87 %
28.11.2017 06:12 1,7 C 4,4 C 84 % 1013,3 hPa 0,0 l/m 2,7 km/h (1 Bft) SO 146 0 min 0,000 mm 0,0 UV-I 0 W/m -0,7 C 1,7 C 3,2 km/h (1 Bft) 95,74 %
28.11.2017 06:14 1,7 C 4,4 C 85 % 1013,3 hPa 0,0 l/m 0,7 km/h (0 Bft) SO 146 0 min 0,000 mm 0,0 UV-I 0 W/m -0,5 C 1,7 C 3,2 km/h (1 Bft) 97,87 %
28.11.2017 06:16 1,6 C 4,4 C 86 % 1013,3 hPa 0,0 l/m 0,0 km/h (0 Bft) SO 146 0 min 0,000 mm 0,0 UV-I 0 W/m -0,5 C 1,6 C 1,6 km/h (1 Bft) 97,37 %
28.11.2017 06:18 1,5 C 4,4 C 88 % 1013,5 hPa 0,0 l/m 0,8 km/h (0 Bft) S-SO 152 0 min 0,000 mm 0,0 UV-I 0 W/m -0,3 C 1,5 C 3,2 km/h (1 Bft) 94,00 %
28.11.2017 06:20 1,4 C 4,4 C 89 % 1013,4 hPa 0,0 l/m 0,7 km/h (0 Bft) S-SO 159 0 min 0,000 mm 0,0 UV-I 0 W/m -0,2 C 1,4 C 3,2 km/h (1 Bft) 93,62 %
28.11.2017 06:22 1,3 C 4,4 C 89 % 1013,4 hPa 0,0 l/m 1,6 km/h (1 Bft) S-SO 159 0 min 0,000 mm 0,0 UV-I 0 W/m -0,3 C 1,3 C 3,2 km/h (1 Bft) 95,74 %
28.11.2017 06:24 1,3 C 4,4 C 88 % 1013,4 hPa 0,0 l/m 0,3 km/h (0 Bft) S-SO 159 0 min 0,000 mm 0,0 UV-I 0 W/m -0,5 C 1,3 C 1,6 km/h (1 Bft) 95,74 %
28.11.2017 06:26 1,3 C 4,4 C 88 % 1013,3 hPa 0,0 l/m 0,9 km/h (0 Bft) S-SO 159 0 min 0,000 mm 0,0 UV-I 0 W/m -0,5 C 1,3 C 3,2 km/h (1 Bft) 97,87 %
28.11.2017 06:28 1,3 C 4,4 C 88 % 1013,3 hPa 0,0 l/m 0,6 km/h (0 Bft) S-SO 159 0 min 0,000 mm 0,0 UV-I 0 W/m -0,5 C 1,3 C 1,6 km/h (1 Bft) 97,87 %
28.11.2017 06:30 1,3 C 4,4 C 88 % 1013,3 hPa 0,0 l/m 0,2 km/h (0 Bft) S-SO 159 0 min 0,000 mm 0,0 UV-I 0 W/m -0,5 C 1,3 C 1,6 km/h (1 Bft) 96,00 %
28.11.2017 06:32 1,3 C 4,4 C 88 % 1013,2 hPa 0,0 l/m 0,8 km/h (0 Bft) S-SO 159 0 min 0,000 mm 0,0 UV-I 0 W/m -0,5 C 1,3 C 3,2 km/h (1 Bft) 95,74 %
28.11.2017 06:34 1,2 C 4,4 C 88 % 1013,2 hPa 0,0 l/m 0,9 km/h (0 Bft) S-SO 159 0 min 0,000 mm 0,0 UV-I 0 W/m -0,6 C 1,2 C 3,2 km/h (1 Bft) 97,92 %
28.11.2017 06:36 1,2 C 4,4 C 88 % 1013,2 hPa 0,0 l/m 0,8 km/h (0 Bft) S-SO 159 0 min 0,000 mm 0,0 UV-I 0 W/m -0,6 C 1,2 C 1,6 km/h (1 Bft) 100,00 %
28.11.2017 06:38 1,3 C 4,4 C 88 % 1013,1 hPa 0,0 l/m 0,0 km/h (0 Bft) S-SO 159 0 min 0,000 mm 0,0 UV-I 0 W/m -0,5 C 1,3 C 0,0 km/h (0 Bft) 100,00 %
28.11.2017 06:40 1,4 C 4,4 C 88 % 1013,1 hPa 0,0 l/m 0,0 km/h (0 Bft) S-SO 159 0 min 0,000 mm 0,0 UV-I 0 W/m -0,4 C 1,4 C 0,0 km/h (0 Bft) 100,00 %
28.11.2017 06:42 1,4 C 4,4 C 87 % 1013,1 hPa 0,0 l/m 0,0 km/h (0 Bft) S-SO 159 0 min 0,000 mm 0,0 UV-I 0 W/m -0,5 C 1,4 C 0,0 km/h (0 Bft) 100,00 %
28.11.2017 06:44 1,4 C 4,4 C 87 % 1013,1 hPa 0,0 l/m 0,0 km/h (0 Bft) S-SO 159 0 min 0,000 mm 0,0 UV-I 0 W/m -0,5 C 1,4 C 0,0 km/h (0 Bft) 97,87 %
28.11.2017 06:46 1,4 C 4,4 C 87 % 1013,1 hPa 0,0 l/m 0,0 km/h (0 Bft) S-SO 159 0 min 0,000 mm 0,0 UV-I 0 W/m -0,5 C 1,4 C 0,0 km/h (0 Bft) 100,00 %
28.11.2017 06:48 1,4 C 4,4 C 87 % 1013,1 hPa 0,0 l/m 0,0 km/h (0 Bft) S-SO 159 0 min 0,000 mm 0,0 UV-I 0 W/m -0,5 C 1,4 C 0,0 km/h (0 Bft) 97,87 %
28.11.2017 06:50 1,4 C 4,4 C 87 % 1013,1 hPa 0,0 l/m 0,0 km/h (0 Bft) S-SO 159 0 min 0,000 mm 0,0 UV-I 0 W/m -0,5 C 1,4 C 0,0 km/h (0 Bft) 100,00 %
28.11.2017 06:52 1,4 C 4,4 C 88 % 1013,1 hPa 0,0 l/m 0,0 km/h (0 Bft) S-SO 159 0 min 0,000 mm 0,0 UV-I 0 W/m -0,4 C 1,4 C 1,6 km/h (1 Bft) 97,87 %
28.11.2017 06:54 1,3 C 4,4 C 88 % 1013,0 hPa 0,0 l/m 0,0 km/h (0 Bft) S-SO 159 0 min 0,000 mm 0,0 UV-I 0 W/m -0,5 C 1,3 C 0,0 km/h (0 Bft) 98,11 %
28.11.2017 06:56 1,3 C 4,4 C 88 % 1013,0 hPa 0,0 l/m 0,0 km/h (0 Bft) S-SO 159 0 min 0,000 mm 0,0 UV-I 0 W/m -0,5 C 1,3 C 0,0 km/h (0 Bft) 95,74 %
28.11.2017 06:58 1,3 C 4,4 C 88 % 1013,0 hPa 0,0 l/m 0,0 km/h (0 Bft) S-SO 159 0 min 0,000 mm 0,0 UV-I 0 W/m -0,5 C 1,3 C 1,6 km/h (1 Bft) 98,00 %
28.11.2017 07:00 1,2 C 4,4 C 89 % 1013,0 hPa 0,0 l/m 1,5 km/h (1 Bft) S-SO 159 0 min 0,000 mm 0,0 UV-I 0 W/m -0,4 C 1,2 C 3,2 km/h (1 Bft) 95,74 %
28.11.2017 07:02 1,2 C 4,4 C 90 % 1013,0 hPa 0,0 l/m 0,2 km/h (0 Bft) S-SO 159 0 min 0,000 mm 0,0 UV-I 0 W/m -0,3 C 1,2 C 1,6 km/h (1 Bft) 97,14 %
28.11.2017 07:04 1,1 C 4,4 C 90 % 1013,0 hPa 0,0 l/m 0,2 km/h (0 Bft) S-SO 159 0 min 0,000 mm 0,0 UV-I 0 W/m -0,4 C 1,1 C 1,6 km/h (1 Bft) 97,87 %
28.11.2017 07:06 1,1 C 4,4 C 91 % 1013,1 hPa 0,0 l/m 1,8 km/h (1 Bft) S-SO 159 0 min 0,000 mm 0,0 UV-I 0 W/m -0,2 C 1,1 C 3,2 km/h (1 Bft) 95,74 %
28.11.2017 07:08 1,1 C 4,4 C 91 % 1013,1 hPa 0,0 l/m 1,4 km/h (1 Bft) S-SO 159 0 min 0,000 mm 0,0 UV-I 0 W/m -0,2 C 1,1 C 3,2 km/h (1 Bft) 93,75 %
28.11.2017 07:10 1,1 C 4,4 C 91 % 1013,0 hPa 0,0 l/m 0,9 km/h (0 Bft) S-SO 159 0 min 0,000 mm 0,0 UV-I 0 W/m -0,2 C 1,1 C 1,6 km/h (1 Bft) 95,74 %
28.11.2017 07:12 1,1 C 4,4 C 92 % 1013,0 hPa 0,0 l/m 1,0 km/h (0 Bft) S-SO 159 0 min 0,000 mm 0,0 UV-I 0 W/m -0,1 C 1,1 C 3,2 km/h (1 Bft) 93,62 %
28.11.2017 07:14 1,1 C 4,4 C 91 % 1013,0 hPa 0,0 l/m 0,8 km/h (0 Bft) S-SO 159 0 min 0,000 mm 0,0 UV-I 0 W/m -0,2 C 1,1 C 1,6 km/h (1 Bft) 94,00 %
28.11.2017 07:16 1,2 C 4,4 C 90 % 1013,0 hPa 0,0 l/m 0,0 km/h (0 Bft) S-SO 159 0 min 0,000 mm 0,0 UV-I 0 W/m -0,3 C 1,2 C 0,0 km/h (0 Bft) 97,87 %
28.11.2017 07:18 1,2 C 4,4 C 90 % 1013,0 hPa 0,0 l/m 1,6 km/h (1 Bft) S-SO 159 0 min 0,000 mm 0,0 UV-I 0 W/m -0,3 C 1,2 C 3,2 km/h (1 Bft) 97,87 %
28.11.2017 07:20 1,2 C 4,4 C 91 % 1013,0 hPa 0,0 l/m 3,8 km/h (1 Bft) S-SO 159 0 min 0,000 mm 0,0 UV-I 0 W/m -0,1 C 1,2 C 6,4 km/h (2 Bft) 93,62 %
28.11.2017 07:22 1,2 C 4,4 C 91 % 1012,9 hPa 0,0 l/m 4,3 km/h (1 Bft) S-SO 159 0 min 0,000 mm 0,0 UV-I 0 W/m -0,1 C 1,2 C 6,4 km/h (2 Bft) 97,87 %
28.11.2017 07:24 1,2 C 4,4 C 90 % 1012,8 hPa 0,0 l/m 4,8 km/h (1 Bft) S-SO 159 0 min 0,000 mm 0,0 UV-I 1 W/m -0,3 C 1,2 C 6,4 km/h (2 Bft) 95,74 %
28.11.2017 07:26 1,2 C 4,4 C 90 % 1012,8 hPa 0,0 l/m 5,0 km/h (1 Bft) S-SO 159 0 min 0,000 mm 0,0 UV-I 5 W/m -0,3 C 1,2 C 6,4 km/h (2 Bft) 97,87 %
28.11.2017 07:28 1,2 C 4,4 C 91 % 1012,8 hPa 0,0 l/m 4,5 km/h (1 Bft) S-SO 159 0 min 0,000 mm 0,0 UV-I 5 W/m -0,1 C 1,2 C 6,4 km/h (2 Bft) 97,87 %
28.11.2017 07:30 1,2 C 4,4 C 90 % 1012,7 hPa 0,0 l/m 3,7 km/h (1 Bft) S-SO 159 0 min 0,000 mm 0,0 UV-I 5 W/m -0,3 C 1,2 C 6,4 km/h (2 Bft) 97,87 %
28.11.2017 07:32 1,2 C 4,4 C 90 % 1012,7 hPa 0,0 l/m 2,5 km/h (1 Bft) S-SO 159 0 min 0,000 mm 0,0 UV-I 5 W/m -0,3 C 1,2 C 3,2 km/h (1 Bft) 93,62 %
28.11.2017 07:34 1,3 C 4,4 C 90 % 1012,7 hPa 0,0 l/m 2,7 km/h (1 Bft) S-SO 159 0 min 0,000 mm 0,0 UV-I 5 W/m -0,2 C 1,3 C 3,2 km/h (1 Bft) 95,74 %
28.11.2017 07:36 1,3 C 4,4 C 89 % 1012,7 hPa 0,0 l/m 0,8 km/h (0 Bft) S-SO 159 0 min 0,000 mm 0,0 UV-I 5 W/m -0,3 C 1,3 C 1,6 km/h (1 Bft) 100,00 %
28.11.2017 07:38 1,4 C 4,4 C 89 % 1012,6 hPa 0,0 l/m 1,5 km/h (1 Bft) S-SO 159 0 min 0,000 mm 0,0 UV-I 6 W/m -0,2 C 1,4 C 6,4 km/h (2 Bft) 100,00 %
28.11.2017 07:40 1,5 C 4,4 C 89 % 1012,6 hPa 0,0 l/m 1,6 km/h (1 Bft) S-SO 159 0 min 0,000 mm 0,0 UV-I 7 W/m -0,1 C 1,5 C 3,2 km/h (1 Bft) 97,87 %
28.11.2017 07:42 1,5 C 4,4 C 88 % 1012,5 hPa 0,0 l/m 0,8 km/h (0 Bft) S-SO 159 0 min 0,000 mm 0,0 UV-I 7 W/m -0,3 C 1,5 C 1,6 km/h (1 Bft) 97,37 %
28.11.2017 07:44 1,5 C 4,4 C 89 % 1012,4 hPa 0,0 l/m 3,2 km/h (1 Bft) S-SO 158 0 min 0,000 mm 0,0 UV-I 9 W/m -0,1 C 1,5 C 6,4 km/h (2 Bft) 100,00 %
28.11.2017 07:46 1,4 C 4,4 C 89 % 1012,2 hPa 0,0 l/m 6,9 km/h (2 Bft) O 90 0 min 0,000 mm 0,0 UV-I 11 W/m -0,2 C 0,9 C 12,9 km/h (3 Bft) 100,00 %
28.11.2017 07:48 1,6 C 4,4 C 87 % 1012,2 hPa 0,0 l/m 6,7 km/h (2 Bft) O 85 0 min 0,000 mm 0,0 UV-I 12 W/m -0,3 C 1,3 C 9,7 km/h (2 Bft) 100,00 %
28.11.2017 07:50 1,7 C 4,4 C 86 % 1012,3 hPa 0,0 l/m 5,5 km/h (1 Bft) O 98 0 min 0,000 mm 0,0 UV-I 14 W/m -0,4 C 1,7 C 9,7 km/h (2 Bft) 97,87 %
28.11.2017 07:52 1,8 C 4,4 C 84 % 1012,3 hPa 0,0 l/m 6,1 km/h (2 Bft) O-SO 117 0 min 0,000 mm 0,0 UV-I 15 W/m -0,6 C 1,8 C 11,3 km/h (2 Bft) 97,87 %
28.11.2017 07:54 1,8 C 4,4 C 83 % 1012,3 hPa 0,0 l/m 5,5 km/h (1 Bft) O 98 0 min 0,000 mm 0,0 UV-I 17 W/m -0,8 C 1,8 C 9,7 km/h (2 Bft) 100,00 %
28.11.2017 07:56 1,9 C 4,4 C 82 % 1012,3 hPa 0,0 l/m 2,8 km/h (1 Bft) O 84 0 min 0,000 mm 0,0 UV-I 18 W/m -0,8 C 1,9 C 6,4 km/h (2 Bft) 98,00 %
28.11.2017 07:58 2,0 C 4,4 C 82 % 1012,3 hPa 0,0 l/m 1,9 km/h (1 Bft) O 84 0 min 0,000 mm 0,0 UV-I 19 W/m -0,7 C 2,0 C 3,2 km/h (1 Bft) 100,00 %
28.11.2017 08:00 2,1 C 4,4 C 81 % 1012,3 hPa 0,0 l/m 3,3 km/h (1 Bft) SO 132 0 min 0,000 mm 0,0 UV-I 20 W/m -0,8 C 2,1 C 6,4 km/h (2 Bft) 100,00 %
28.11.2017 08:02 2,1 C 4,4 C 82 % 1012,1 hPa 0,0 l/m 3,3 km/h (1 Bft) SO 132 0 min 0,000 mm 0,0 UV-I 21 W/m -0,6 C 2,1 C 4,8 km/h (1 Bft) 100,00 %
28.11.2017 08:04 2,1 C 4,4 C 82 % 1012,2 hPa 0,0 l/m 3,2 km/h (1 Bft) O 92 0 min 0,000 mm 0,0 UV-I 23 W/m -0,6 C 2,1 C 6,4 km/h (2 Bft) 100,00 %
28.11.2017 08:06 2,0 C 4,4 C 83 % 1012,1 hPa 0,0 l/m 6,4 km/h (2 Bft) SO 139 0 min 0,000 mm 0,0 UV-I 21 W/m -0,6 C 2,0 C 11,3 km/h (2 Bft) 95,00 %
28.11.2017 08:08 2,0 C 4,4 C 83 % 1012,0 hPa 0,0 l/m 3,5 km/h (1 Bft) SO 132 0 min 0,000 mm 0,0 UV-I 21 W/m -0,6 C 2,0 C 6,4 km/h (2 Bft) 94,00 %
28.11.2017 08:10 2,0 C 4,4 C 84 % 1012,0 hPa 0,0 l/m 1,7 km/h (1 Bft) SO 132 0 min 0,000 mm 0,0 UV-I 23 W/m -0,4 C 2,0 C 4,8 km/h (1 Bft) 100,00 %
28.11.2017 08:12 2,0 C 4,4 C 84 % 1011,9 hPa 0,0 l/m 4,3 km/h (1 Bft) O 98 0 min 0,000 mm 0,0 UV-I 25 W/m -0,4 C 2,0 C 9,7 km/h (2 Bft) 100,00 %
28.11.2017 08:14 2,1 C 4,4 C 83 % 1011,9 hPa 0,0 l/m 4,5 km/h (1 Bft) SO 127 0 min 0,000 mm 0,0 UV-I 27 W/m -0,5 C 2,1 C 9,7 km/h (2 Bft) 98,00 %
28.11.2017 08:16 2,1 C 4,4 C 83 % 1011,8 hPa 0,0 l/m 5,1 km/h (1 Bft) S-SO 153 0 min 0,000 mm 0,0 UV-I 29 W/m -0,5 C 2,1 C 11,3 km/h (2 Bft) 100,00 %
28.11.2017 08:18 2,1 C 4,4 C 83 % 1011,8 hPa 0,0 l/m 2,9 km/h (1 Bft) SO 144 0 min 0,000 mm 0,0 UV-I 32 W/m -0,5 C 2,1 C 6,4 km/h (2 Bft) 97,87 %
28.11.2017 08:20 2,1 C 4,4 C 83 % 1011,9 hPa 0,0 l/m 1,9 km/h (1 Bft) SO 144 0 min 0,000 mm 0,0 UV-I 33 W/m -0,5 C 2,1 C 4,8 km/h (1 Bft) 97,87 %
28.11.2017 08:22 2,1 C 4,4 C 83 % 1011,8 hPa 0,0 l/m 3,5 km/h (1 Bft) S-SO 152 0 min 0,000 mm 0,0 UV-I 37 W/m -0,5 C 2,1 C 6,4 km/h (2 Bft) 100,00 %
28.11.2017 08:24 2,1 C 4,4 C 83 % 1011,8 hPa 0,0 l/m 4,3 km/h (1 Bft) O-SO 115 0 min 0,000 mm 0,0 UV-I 39 W/m -0,5 C 2,1 C 12,9 km/h (3 Bft) 97,87 %
28.11.2017 08:26 2,2 C 4,4 C 82 % 1011,8 hPa 0,0 l/m 8,4 km/h (2 Bft) O-SO 117 0 min 0,000 mm 0,0 UV-I 43 W/m -0,5 C 0,3 C 11,3 km/h (2 Bft) 100,00 %
28.11.2017 08:28 2,2 C 4,4 C 82 % 1011,9 hPa 0,0 l/m 6,0 km/h (2 Bft) O-SO 115 0 min 0,000 mm 0,0 UV-I 47 W/m -0,5 C 2,2 C 12,9 km/h (3 Bft) 97,92 %
28.11.2017 08:30 2,1 C 4,4 C 82 % 1011,9 hPa 0,0 l/m 3,6 km/h (1 Bft) SO 130 0 min 0,000 mm 0,0 UV-I 50 W/m -0,6 C 2,1 C 8,0 km/h (2 Bft) 100,00 %
28.11.2017 08:32 2,1 C 4,4 C 82 % 1011,9 hPa 0,0 l/m 4,6 km/h (1 Bft) SO 128 0 min 0,000 mm 0,0 UV-I 53 W/m -0,6 C 2,1 C 6,4 km/h (2 Bft) 97,87 %
28.11.2017 08:34 2,1 C 4,4 C 81 % 1012,0 hPa 0,0 l/m 1,6 km/h (1 Bft) SO 128 0 min 0,000 mm 0,0 UV-I 55 W/m -0,8 C 2,1 C 3,2 km/h (1 Bft) 100,00 %
28.11.2017 08:36 2,2 C 4,4 C 81 % 1012,0 hPa 0,0 l/m 2,2 km/h (1 Bft) SO 128 0 min 0,000 mm 0,0 UV-I 58 W/m -0,7 C 2,2 C 4,8 km/h (1 Bft) 100,00 %
28.11.2017 08:38 2,2 C 4,4 C 80 % 1012,0 hPa 0,0 l/m 2,4 km/h (1 Bft) SO 128 0 min 0,000 mm 0,0 UV-I 61 W/m -0,9 C 2,2 C 4,8 km/h (1 Bft) 100,00 %
28.11.2017 08:40 2,3 C 4,4 C 83 % 1012,1 hPa 0,0 l/m 0,9 km/h (0 Bft) SO 128 0 min 0,000 mm 0,0 UV-I 63 W/m -0,3 C 2,3 C 3,2 km/h (1 Bft) 100,00 %
28.11.2017 08:42 2,1 C 4,4 C 85 % 1012,0 hPa 0,0 l/m 0,1 km/h (0 Bft) SO 128 0 min 0,000 mm 0,0 UV-I 65 W/m -0,2 C 2,1 C 1,6 km/h (1 Bft) 100,00 %
28.11.2017 08:44 1,9 C 4,4 C 86 % 1012,1 hPa 0,0 l/m 0,0 km/h (0 Bft) SO 128 0 min 0,000 mm 0,0 UV-I 68 W/m -0,2 C 1,9 C 0,0 km/h (0 Bft) 97,96 %
28.11.2017 08:46 1,8 C 4,4 C 87 % 1012,0 hPa 0,0 l/m 0,3 km/h (0 Bft) SO 128 0 min 0,000 mm 0,0 UV-I 71 W/m -0,1 C 1,8 C 1,6 km/h (1 Bft) 100,00 %
28.11.2017 08:48 1,8 C 4,4 C 87 % 1012,1 hPa 0,0 l/m 0,8 km/h (0 Bft) SO 128 0 min 0,000 mm 0,0 UV-I 73 W/m -0,1 C 1,8 C 4,8 km/h (1 Bft) 97,87 %
28.11.2017 08:50 1,8 C 4,4 C 86 % 1012,1 hPa 0,0 l/m 0,1 km/h (0 Bft) SO 128 0 min 0,000 mm 0,0 UV-I 75 W/m -0,3 C 1,8 C 1,6 km/h (1 Bft) 95,74 %
28.11.2017 08:52 1,9 C 4,4 C 86 % 1012,1 hPa 0,0 l/m 0,4 km/h (0 Bft) SO 128 0 min 0,000 mm 0,0 UV-I 77 W/m -0,2 C 1,9 C 1,6 km/h (1 Bft) 97,87 %
28.11.2017 08:54 1,8 C 4,4 C 87 % 1012,1 hPa 0,0 l/m 0,2 km/h (0 Bft) SO 128 0 min 0,000 mm 0,0 UV-I 79 W/m -0,1 C 1,8 C 1,6 km/h (1 Bft) 100,00 %
28.11.2017 08:56 1,9 C 4,4 C 86 % 1012,0 hPa 0,0 l/m 0,0 km/h (0 Bft) SO 128 0 min 0,000 mm 0,0 UV-I 81 W/m -0,2 C 1,9 C 0,0 km/h (0 Bft) 100,00 %
28.11.2017 08:58 1,9 C 4,4 C 85 % 1012,0 hPa 0,0 l/m 0,9 km/h (0 Bft) SO 128 0 min 0,000 mm 0,0 UV-I 83 W/m -0,3 C 1,9 C 3,2 km/h (1 Bft) 97,37 %
28.11.2017 09:00 2,0 C 4,4 C 86 % 1012,1 hPa 0,0 l/m 1,3 km/h (1 Bft) SO 128 0 min 0,025 mm 0,0 UV-I 85 W/m -0,1 C 2,0 C 3,2 km/h (1 Bft) 97,87 %
28.11.2017 09:02 2,0 C 4,4 C 85 % 1012,0 hPa 0,0 l/m 1,1 km/h (1 Bft) SO 128 0 min 0,000 mm 0,0 UV-I 87 W/m -0,3 C 2,0 C 3,2 km/h (1 Bft) 97,87 %
28.11.2017 09:04 2,1 C 4,4 C 85 % 1012,0 hPa 0,0 l/m 0,2 km/h (0 Bft) SO 128 0 min 0,000 mm 0,0 UV-I 90 W/m -0,2 C 2,1 C 1,6 km/h (1 Bft) 95,74 %
28.11.2017 09:07 2,1 C 4,4 C 84 % 1012,0 hPa 0,0 l/m 0,5 km/h (0 Bft) SO 128 0 min 0,000 mm 0,0 UV-I 93 W/m -0,3 C 2,1 C 3,2 km/h (1 Bft) 97,59 %
28.11.2017 09:08 2,1 C 4,4 C 85 % 1012,0 hPa 0,0 l/m 1,7 km/h (1 Bft) SO 128 0 min 0,000 mm 0,0 UV-I 96 W/m -0,2 C 2,1 C 3,2 km/h (1 Bft) 91,30 %
28.11.2017 09:10 2,1 C 4,4 C 85 % 1012,0 hPa 0,0 l/m 1,1 km/h (1 Bft) SO 128 0 min 0,000 mm 0,0 UV-I 97 W/m -0,2 C 2,1 C 3,2 km/h (1 Bft) 94,44 %
28.11.2017 09:12 2,1 C 4,4 C 86 % 1012,0 hPa 0,0 l/m 2,1 km/h (1 Bft) SO 128 0 min 0,000 mm 0,0 UV-I 100 W/m 0,0 C 2,1 C 3,2 km/h (1 Bft) 97,87 %
28.11.2017 09:14 2,1 C 4,4 C 86 % 1012,0 hPa 0,0 l/m 0,6 km/h (0 Bft) SO 128 0 min 0,000 mm 0,0 UV-I 102 W/m 0,0 C 2,1 C 3,2 km/h (1 Bft) 91,49 %
28.11.2017 09:16 2,1 C 4,4 C 86 % 1012,0 hPa 0,0 l/m 0,7 km/h (0 Bft) SO 128 0 min 0,000 mm 0,0 UV-I 106 W/m 0,0 C 2,1 C 3,2 km/h (1 Bft) 97,87 %
28.11.2017 09:18 2,1 C 4,4 C 86 % 1011,9 hPa 0,0 l/m 0,2 km/h (0 Bft) SO 128 0 min 0,000 mm 0,0 UV-I 109 W/m 0,0 C 2,1 C 1,6 km/h (1 Bft) 95,92 %
28.11.2017 09:20 2,1 C 4,4 C 86 % 1011,9 hPa 0,0 l/m 1,3 km/h (1 Bft) SO 128 0 min 0,000 mm 0,0 UV-I 112 W/m 0,0 C 2,1 C 3,2 km/h (1 Bft) 96,00 %
28.11.2017 09:22 2,1 C 4,4 C 86 % 1011,8 hPa 0,0 l/m 0,8 km/h (0 Bft) SO 128 0 min 0,000 mm 0,0 UV-I 114 W/m 0,0 C 2,1 C 1,6 km/h (1 Bft) 97,87 %
28.11.2017 09:24 2,2 C 4,4 C 86 % 1011,7 hPa 0,0 l/m 1,4 km/h (1 Bft) SO 128 0 min 0,000 mm 0,0 UV-I 116 W/m 0,1 C 2,2 C 4,8 km/h (1 Bft) 94,00 %
28.11.2017 09:26 2,1 C 4,4 C 86 % 1011,7 hPa 0,0 l/m 1,0 km/h (0 Bft) SO 128 0 min 0,000 mm 0,0 UV-I 118 W/m 0,0 C 2,1 C 4,8 km/h (1 Bft) 100,00 %
28.11.2017 09:28 2,2 C 4,4 C 86 % 1011,8 hPa 0,0 l/m 1,6 km/h (1 Bft) SO 128 0 min 0,000 mm 0,0 UV-I 120 W/m 0,1 C 2,2 C 3,2 km/h (1 Bft) 94,00 %
28.11.2017 09:30 2,2 C 4,4 C 86 % 1011,8 hPa 0,0 l/m 0,5 km/h (0 Bft) SO 128 0 min 0,000 mm 0,0 UV-I 121 W/m 0,1 C 2,2 C 1,6 km/h (1 Bft) 93,62 %
28.11.2017 09:32 2,2 C 4,4 C 85 % 1011,9 hPa 0,0 l/m 2,1 km/h (1 Bft) SO 128 0 min 0,000 mm 0,0 UV-I 122 W/m -0,1 C 2,2 C 3,2 km/h (1 Bft) 95,74 %
28.11.2017 09:34 2,2 C 4,4 C 85 % 1011,9 hPa 0,0 l/m 2,0 km/h (1 Bft) SO 128 0 min 0,000 mm 0,0 UV-I 125 W/m -0,1 C 2,2 C 3,2 km/h (1 Bft) 94,00 %
28.11.2017 09:36 2,2 C 4,4 C 85 % 1011,8 hPa 0,0 l/m 1,8 km/h (1 Bft) W 280 0 min 0,000 mm 0,0 UV-I 127 W/m -0,1 C 2,2 C 4,8 km/h (1 Bft) 97,87 %
28.11.2017 09:38 2,2 C 4,4 C 86 % 1011,9 hPa 0,0 l/m 2,0 km/h (1 Bft) NW 315 0 min 0,000 mm 0,0 UV-I 129 W/m 0,1 C 2,2 C 4,8 km/h (1 Bft) 95,74 %
28.11.2017 09:40 2,2 C 4,4 C 86 % 1011,9 hPa 0,0 l/m 1,5 km/h (1 Bft) NW 315 0 min 0,000 mm 0,0 UV-I 132 W/m 0,1 C 2,2 C 3,2 km/h (1 Bft) 97,87 %
28.11.2017 09:42 2,3 C 4,4 C 87 % 1011,9 hPa 0,0 l/m 1,4 km/h (1 Bft) NW 315 0 min 0,000 mm 0,0 UV-I 128 W/m 0,4 C 2,3 C 3,2 km/h (1 Bft) 95,74 %
28.11.2017 09:44 2,3 C 4,4 C 86 % 1011,9 hPa 0,0 l/m 2,6 km/h (1 Bft) NW 313 0 min 0,000 mm 0,0 UV-I 129 W/m 0,2 C 2,3 C 4,8 km/h (1 Bft) 97,87 %
28.11.2017 09:46 2,3 C 4,4 C 86 % 1011,9 hPa 0,0 l/m 2,2 km/h (1 Bft) NW 314 0 min 0,000 mm 0,0 UV-I 128 W/m 0,2 C 2,3 C 4,8 km/h (1 Bft) 97,87 %
28.11.2017 09:48 2,3 C 4,4 C 86 % 1011,9 hPa 0,0 l/m 1,6 km/h (1 Bft) NW 313 0 min 0,000 mm 0,0 UV-I 126 W/m 0,2 C 2,3 C 3,2 km/h (1 Bft) 97,87 %
28.11.2017 09:50 2,3 C 4,4 C 86 % 1011,9 hPa 0,0 l/m 1,1 km/h (1 Bft) NW 313 0 min 0,000 mm 0,0 UV-I 125 W/m 0,2 C 2,3 C 4,8 km/h (1 Bft) 95,74 %
28.11.2017 09:52 2,3 C 4,4 C 87 % 1011,9 hPa 0,0 l/m 1,5 km/h (1 Bft) NW 313 0 min 0,000 mm 0,0 UV-I 124 W/m 0,4 C 2,3 C 3,2 km/h (1 Bft) 95,83 %
28.11.2017 09:54 2,3 C 4,4 C 87 % 1012,0 hPa 0,0 l/m 1,3 km/h (1 Bft) NW 313 0 min 0,000 mm 0,0 UV-I 125 W/m 0,4 C 2,3 C 4,8 km/h (1 Bft) 95,92 %
28.11.2017 09:56 2,4 C 4,4 C 87 % 1011,9 hPa 0,0 l/m 2,6 km/h (1 Bft) NW 306 0 min 0,000 mm 0,0 UV-I 128 W/m 0,5 C 2,4 C 4,8 km/h (1 Bft) 97,30 %
28.11.2017 09:58 2,4 C 4,4 C 86 % 1011,9 hPa 0,0 l/m 0,7 km/h (0 Bft) NW 306 0 min 0,000 mm 0,0 UV-I 129 W/m 0,3 C 2,4 C 1,6 km/h (1 Bft) 95,74 %
28.11.2017 10:00 2,4 C 4,4 C 87 % 1011,9 hPa 0,0 l/m 0,1 km/h (0 Bft) NW 306 0 min 0,051 mm 0,0 UV-I 127 W/m 0,5 C 2,4 C 1,6 km/h (1 Bft) 94,00 %
28.11.2017 10:02 2,4 C 4,4 C 86 % 1011,9 hPa 0,0 l/m 0,0 km/h (0 Bft) NW 306 0 min 0,000 mm 0,0 UV-I 127 W/m 0,3 C 2,4 C 0,0 km/h (0 Bft) 93,62 %
28.11.2017 10:04 2,4 C 4,4 C 86 % 1011,9 hPa 0,0 l/m 0,0 km/h (0 Bft) NW 306 0 min 0,000 mm 0,0 UV-I 125 W/m 0,3 C 2,4 C 0,0 km/h (0 Bft) 96,00 %
28.11.2017 10:06 2,6 C 4,4 C 86 % 1011,8 hPa 0,0 l/m 0,0 km/h (0 Bft) NW 306 0 min 0,000 mm 0,0 UV-I 125 W/m 0,5 C 2,6 C 0,0 km/h (0 Bft) 93,62 %
28.11.2017 10:08 2,7 C 4,4 C 86 % 1011,8 hPa 0,0 l/m 0,0 km/h (0 Bft) NW 306 0 min 0,000 mm 0,0 UV-I 126 W/m 0,6 C 2,7 C 1,6 km/h (1 Bft) 97,87 %
28.11.2017 10:10 2,7 C 4,4 C 86 % 1011,7 hPa 0,0 l/m 0,0 km/h (0 Bft) NW 306 0 min 0,000 mm 0,0 UV-I 129 W/m 0,6 C 2,7 C 0,0 km/h (0 Bft) 97,87 %
28.11.2017 10:12 2,7 C 4,4 C 85 % 1011,7 hPa 0,0 l/m 2,2 km/h (1 Bft) NW 308 0 min 0,000 mm 0,0 UV-I 125 W/m 0,4 C 2,7 C 4,8 km/h (1 Bft) 94,74 %
28.11.2017 10:14 2,7 C 4,4 C 85 % 1011,6 hPa 0,0 l/m 2,3 km/h (1 Bft) NW 308 0 min 0,000 mm 0,0 UV-I 126 W/m 0,4 C 2,7 C 4,8 km/h (1 Bft) 97,96 %
28.11.2017 10:16 2,7 C 4,4 C 85 % 1011,6 hPa 0,0 l/m 1,4 km/h (1 Bft) NW 308 0 min 0,000 mm 0,0 UV-I 132 W/m 0,4 C 2,7 C 3,2 km/h (1 Bft) 97,87 %
28.11.2017 10:18 2,7 C 4,4 C 85 % 1011,6 hPa 0,0 l/m 2,3 km/h (1 Bft) SW 235 0 min 0,000 mm 0,0 UV-I 143 W/m 0,4 C 2,7 C 3,2 km/h (1 Bft) 97,87 %
28.11.2017 10:20 2,7 C 4,4 C 85 % 1011,5 hPa 0,0 l/m 2,7 km/h (1 Bft) S-SO 157 0 min 0,000 mm 0,0 UV-I 149 W/m 0,4 C 2,7 C 8,0 km/h (2 Bft) 95,74 %
28.11.2017 10:22 2,7 C 4,4 C 85 % 1011,5 hPa 0,0 l/m 2,3 km/h (1 Bft) S-SO 157 0 min 0,000 mm 0,0 UV-I 156 W/m 0,4 C 2,7 C 4,8 km/h (1 Bft) 97,87 %
28.11.2017 10:24 2,8 C 4,4 C 85 % 1011,5 hPa 0,0 l/m 2,3 km/h (1 Bft) S-SO 157 0 min 0,000 mm 0,0 UV-I 153 W/m 0,5 C 2,8 C 4,8 km/h (1 Bft) 95,92 %
28.11.2017 10:26 2,8 C 4,4 C 85 % 1011,4 hPa 0,0 l/m 3,1 km/h (1 Bft) S-SO 158 0 min 0,000 mm 0,0 UV-I 153 W/m 0,5 C 2,8 C 4,8 km/h (1 Bft) 97,87 %
28.11.2017 10:28 2,9 C 4,4 C 84 % 1011,4 hPa 0,0 l/m 3,0 km/h (1 Bft) S-SO 157 0 min 0,000 mm 0,0 UV-I 155 W/m 0,5 C 2,9 C 4,8 km/h (1 Bft) 98,00 %
28.11.2017 10:30 3,0 C 4,4 C 85 % 1011,4 hPa 0,0 l/m 4,2 km/h (1 Bft) S-SO 163 0 min 0,000 mm 0,0 UV-I 150 W/m 0,7 C 3,0 C 8,0 km/h (2 Bft) 97,87 %
28.11.2017 10:32 3,1 C 4,4 C 83 % 1011,4 hPa 0,0 l/m 5,1 km/h (1 Bft) SO 126 0 min 0,000 mm 0,1 UV-I 149 W/m 0,5 C 3,1 C 8,0 km/h (2 Bft) 93,62 %
28.11.2017 10:34 3,2 C 4,4 C 84 % 1011,5 hPa 0,0 l/m 4,8 km/h (1 Bft) W-SW 246 0 min 0,000 mm 0,5 UV-I 146 W/m 0,8 C 3,2 C 8,0 km/h (2 Bft) 97,44 %
28.11.2017 10:36 3,3 C 4,4 C 84 % 1011,5 hPa 0,0 l/m 3,7 km/h (1 Bft) W-NW 290 0 min 0,000 mm 0,5 UV-I 150 W/m 0,9 C 3,3 C 6,4 km/h (2 Bft) 97,87 %
28.11.2017 10:38 3,3 C 4,4 C 83 % 1011,4 hPa 0,0 l/m 0,3 km/h (0 Bft) W-NW 290 0 min 0,000 mm 0,5 UV-I 154 W/m 0,7 C 3,3 C 1,6 km/h (1 Bft) 97,87 %
28.11.2017 10:40 3,3 C 4,4 C 84 % 1011,3 hPa 0,0 l/m 2,7 km/h (1 Bft) O-NO 67 0 min 0,000 mm 0,5 UV-I 162 W/m 0,9 C 3,3 C 6,4 km/h (2 Bft) 95,74 %
28.11.2017 10:42 3,4 C 4,4 C 82 % 1011,2 hPa 0,0 l/m 5,1 km/h (1 Bft) SO 133 0 min 0,000 mm 0,5 UV-I 164 W/m 0,6 C 3,4 C 9,7 km/h (2 Bft) 95,74 %
28.11.2017 10:44 3,4 C 4,4 C 82 % 1011,3 hPa 0,0 l/m 0,5 km/h (0 Bft) SO 133 0 min 0,000 mm 0,5 UV-I 167 W/m 0,6 C 3,4 C 3,2 km/h (1 Bft) 95,74 %
28.11.2017 10:46 3,6 C 4,4 C 83 % 1011,3 hPa 0,0 l/m 1,0 km/h (0 Bft) S 180 0 min 0,000 mm 0,5 UV-I 172 W/m 1,0 C 3,6 C 3,2 km/h (1 Bft) 93,62 %
28.11.2017 10:48 3,5 C 4,4 C 82 % 1011,3 hPa 0,0 l/m 1,1 km/h (1 Bft) S 180 2 min 0,000 mm 0,5 UV-I 186 W/m 0,7 C 3,5 C 3,2 km/h (1 Bft) 97,87 %
28.11.2017 10:50 3,6 C 4,4 C 82 % 1011,2 hPa 0,0 l/m 0,1 km/h (0 Bft) S 180 2 min 0,000 mm 0,5 UV-I 202 W/m 0,8 C 3,6 C 1,6 km/h (1 Bft) 95,74 %
28.11.2017 10:52 3,6 C 4,4 C 82 % 1011,2 hPa 0,0 l/m 1,1 km/h (1 Bft) S 180 2 min 0,000 mm 0,5 UV-I 198 W/m 0,8 C 3,6 C 1,6 km/h (1 Bft) 97,87 %
28.11.2017 10:54 3,7 C 4,4 C 81 % 1011,2 hPa 0,0 l/m 2,9 km/h (1 Bft) S 182 2 min 0,000 mm 0,5 UV-I 196 W/m 0,7 C 3,7 C 4,8 km/h (1 Bft) 94,00 %
28.11.2017 10:56 3,7 C 4,4 C 80 % 1011,2 hPa 0,0 l/m 0,4 km/h (0 Bft) S 182 2 min 0,000 mm 0,5 UV-I 199 W/m 0,6 C 3,7 C 1,6 km/h (1 Bft) 93,62 %
28.11.2017 10:58 3,8 C 4,4 C 79 % 1011,1 hPa 0,0 l/m 0,7 km/h (0 Bft) S 182 2 min 0,000 mm 0,6 UV-I 225 W/m 0,5 C 3,8 C 3,2 km/h (1 Bft) 95,74 %
28.11.2017 11:00 3,8 C 4,4 C 79 % 1011,1 hPa 0,0 l/m 2,4 km/h (1 Bft) S 182 2 min 0,051 mm 0,6 UV-I 229 W/m 0,5 C 3,8 C 4,8 km/h (1 Bft) 95,74 %
28.11.2017 11:02 3,9 C 4,4 C 80 % 1011,1 hPa 0,0 l/m 0,3 km/h (0 Bft) S 182 2 min 0,000 mm 0,6 UV-I 240 W/m 0,8 C 3,9 C 3,2 km/h (1 Bft) 95,74 %
28.11.2017 11:04 4,1 C 4,4 C 79 % 1011,1 hPa 0,0 l/m 0,0 km/h (0 Bft) S 182 2 min 0,000 mm 0,6 UV-I 225 W/m 0,8 C 4,1 C 0,0 km/h (0 Bft) 91,49 %
28.11.2017 11:06 4,1 C 4,4 C 80 % 1011,1 hPa 0,0 l/m 0,1 km/h (0 Bft) S 182 2 min 0,000 mm 0,6 UV-I 219 W/m 1,0 C 4,1 C 1,6 km/h (1 Bft) 95,74 %
28.11.2017 11:08 4,2 C 4,4 C 79 % 1011,1 hPa 0,0 l/m 0,2 km/h (0 Bft) S 182 2 min 0,000 mm 0,6 UV-I 232 W/m 0,9 C 4,2 C 3,2 km/h (1 Bft) 93,62 %
28.11.2017 11:10 4,2 C 4,4 C 79 % 1011,1 hPa 0,0 l/m 0,8 km/h (0 Bft) S 182 2 min 0,000 mm 0,6 UV-I 219 W/m 0,9 C 4,2 C 3,2 km/h (1 Bft) 94,00 %
28.11.2017 11:12 4,3 C 4,4 C 80 % 1011,1 hPa 0,0 l/m 0,1 km/h (0 Bft) S 182 2 min 0,000 mm 0,6 UV-I 232 W/m 1,2 C 4,3 C 1,6 km/h (1 Bft) 93,62 %
28.11.2017 11:14 4,3 C 4,4 C 79 % 1011,1 hPa 0,0 l/m 0,5 km/h (0 Bft) S 182 2 min 0,000 mm 0,6 UV-I 228 W/m 1,0 C 4,3 C 1,6 km/h (1 Bft) 93,75 %
28.11.2017 11:16 4,3 C 4,4 C 79 % 1011,1 hPa 0,0 l/m 2,3 km/h (1 Bft) S 182 2 min 0,000 mm 0,6 UV-I 226 W/m 1,0 C 4,3 C 4,8 km/h (1 Bft) 95,74 %
28.11.2017 11:18 4,4 C 4,4 C 79 % 1011,1 hPa 0,0 l/m 3,0 km/h (1 Bft) S-SW 203 2 min 0,000 mm 0,6 UV-I 217 W/m 1,1 C 4,4 C 4,8 km/h (1 Bft) 94,74 %
28.11.2017 11:20 4,5 C 4,4 C 78 % 1011,1 hPa 0,0 l/m 1,9 km/h (1 Bft) S-SW 203 2 min 0,000 mm 0,6 UV-I 218 W/m 1,0 C 4,5 C 4,8 km/h (1 Bft) 96,00 %
28.11.2017 11:22 4,6 C 4,4 C 77 % 1011,0 hPa 0,0 l/m 1,9 km/h (1 Bft) S-SW 203 2 min 0,000 mm 0,6 UV-I 232 W/m 0,9 C 4,6 C 3,2 km/h (1 Bft) 93,62 %
28.11.2017 11:24 4,6 C 4,4 C 76 % 1010,9 hPa 0,0 l/m 2,0 km/h (1 Bft) S-SW 203 2 min 0,000 mm 0,6 UV-I 220 W/m 0,7 C 4,6 C 3,2 km/h (1 Bft) 94,00 %
28.11.2017 11:26 4,6 C 4,4 C 77 % 1010,9 hPa 0,0 l/m 4,0 km/h (1 Bft) S-SW 211 2 min 0,000 mm 0,6 UV-I 227 W/m 0,9 C 4,6 C 6,4 km/h (2 Bft) 95,74 %
28.11.2017 11:28 4,7 C 4,4 C 78 % 1010,9 hPa 0,0 l/m 4,1 km/h (1 Bft) SW 235 2 min 0,000 mm 0,6 UV-I 226 W/m 1,2 C 4,7 C 6,4 km/h (2 Bft) 97,87 %
28.11.2017 11:30 4,8 C 4,4 C 78 % 1010,9 hPa 0,0 l/m 3,4 km/h (1 Bft) SW 235 2 min 0,000 mm 0,6 UV-I 227 W/m 1,3 C 4,8 C 4,8 km/h (1 Bft) 97,37 %
28.11.2017 11:32 4,8 C 4,4 C 78 % 1010,9 hPa 0,0 l/m 4,6 km/h (1 Bft) S-SW 211 2 min 0,000 mm 0,6 UV-I 228 W/m 1,3 C 4,8 C 6,4 km/h (2 Bft) 97,87 %
28.11.2017 11:34 4,8 C 4,4 C 77 % 1010,9 hPa 0,0 l/m 3,9 km/h (1 Bft) SW 235 2 min 0,000 mm 0,6 UV-I 218 W/m 1,1 C 4,8 C 6,4 km/h (2 Bft) 95,74 %
28.11.2017 11:36 4,8 C 4,4 C 76 % 1010,9 hPa 0,0 l/m 7,5 km/h (2 Bft) S-SW 202 2 min 0,000 mm 0,6 UV-I 221 W/m 0,9 C 3,8 C 11,3 km/h (2 Bft) 95,74 %
28.11.2017 11:38 4,8 C 4,4 C 76 % 1010,9 hPa 0,0 l/m 6,2 km/h (2 Bft) SW 221 2 min 0,000 mm 0,6 UV-I 219 W/m 0,9 C 4,8 C 8,0 km/h (2 Bft) 97,87 %
28.11.2017 11:40 4,7 C 4,4 C 76 % 1010,8 hPa 0,0 l/m 7,5 km/h (2 Bft) S 188 2 min 0,000 mm 0,6 UV-I 230 W/m 0,8 C 3,7 C 9,7 km/h (2 Bft) 94,00 %
28.11.2017 11:42 4,7 C 4,4 C 77 % 1010,8 hPa 0,0 l/m 7,3 km/h (2 Bft) S-SW 209 2 min 0,000 mm 0,6 UV-I 236 W/m 1,0 C 3,9 C 9,7 km/h (2 Bft) 95,74 %
28.11.2017 11:44 4,7 C 4,4 C 77 % 1010,9 hPa 0,0 l/m 8,8 km/h (2 Bft) SW 232 2 min 0,000 mm 0,6 UV-I 237 W/m 1,0 C 2,6 C 12,9 km/h (3 Bft) 98,00 %
28.11.2017 11:46 4,7 C 4,4 C 77 % 1010,9 hPa 0,0 l/m 9,0 km/h (2 Bft) SW 221 2 min 0,000 mm 0,7 UV-I 253 W/m 1,0 C 2,5 C 16,1 km/h (3 Bft) 97,87 %
28.11.2017 11:48 4,8 C 4,4 C 77 % 1010,8 hPa 0,0 l/m 9,3 km/h (2 Bft) SW 229 2 min 0,000 mm 0,6 UV-I 255 W/m 1,1 C 2,4 C 14,5 km/h (3 Bft) 93,62 %
28.11.2017 11:50 4,8 C 4,4 C 76 % 1010,8 hPa 0,0 l/m 9,8 km/h (2 Bft) S-SW 206 2 min 0,000 mm 0,7 UV-I 265 W/m 0,9 C 2,0 C 12,9 km/h (3 Bft) 97,87 %
28.11.2017 11:52 4,7 C 4,4 C 76 % 1010,8 hPa 0,0 l/m 9,3 km/h (2 Bft) S-SO 157 2 min 0,000 mm 0,7 UV-I 277 W/m 0,8 C 2,3 C 14,5 km/h (3 Bft) 95,83 %
28.11.2017 11:54 4,7 C 4,4 C 76 % 1010,7 hPa 0,0 l/m 6,0 km/h (2 Bft) SW 219 2 min 0,000 mm 0,7 UV-I 284 W/m 0,8 C 4,7 C 12,9 km/h (3 Bft) 97,56 %
28.11.2017 11:56 4,8 C 4,4 C 76 % 1010,7 hPa 0,0 l/m 6,9 km/h (2 Bft) SW 236 2 min 0,000 mm 0,6 UV-I 266 W/m 0,9 C 4,4 C 9,7 km/h (2 Bft) 91,49 %
28.11.2017 11:58 4,8 C 4,4 C 77 % 1010,7 hPa 0,0 l/m 5,7 km/h (1 Bft) W 263 2 min 0,000 mm 0,6 UV-I 258 W/m 1,1 C 4,8 C 11,3 km/h (2 Bft) 98,00 %
28.11.2017 12:00 4,8 C 4,4 C 77 % 1010,7 hPa 0,0 l/m 6,5 km/h (2 Bft) SW 226 2 min 0,102 mm 0,6 UV-I 266 W/m 1,1 C 4,7 C 11,3 km/h (2 Bft) 95,74 %
28.11.2017 12:02 4,9 C 4,4 C 78 % 1010,6 hPa 0,0 l/m 5,2 km/h (1 Bft) SW 235 2 min 0,000 mm 0,7 UV-I 273 W/m 1,4 C 4,9 C 8,0 km/h (2 Bft) 95,74 %
28.11.2017 12:04 4,9 C 4,4 C 78 % 1010,6 hPa 0,0 l/m 6,1 km/h (2 Bft) SW 236 2 min 0,000 mm 0,7 UV-I 280 W/m 1,4 C 4,9 C 9,7 km/h (2 Bft) 97,87 %
28.11.2017 12:06 4,9 C 4,4 C 78 % 1010,6 hPa 0,0 l/m 6,5 km/h (2 Bft) W 267 2 min 0,000 mm 0,7 UV-I 289 W/m 1,4 C 4,8 C 12,9 km/h (3 Bft) 97,87 %
28.11.2017 12:08 4,9 C 4,4 C 78 % 1010,6 hPa 0,0 l/m 5,9 km/h (2 Bft) W-SW 238 2 min 0,000 mm 0,6 UV-I 223 W/m 1,4 C 4,9 C 9,7 km/h (2 Bft) 96,00 %
28.11.2017 12:10 4,9 C 4,4 C 78 % 1010,6 hPa 0,0 l/m 5,4 km/h (1 Bft) W 265 0 min 0,000 mm 0,6 UV-I 195 W/m 1,4 C 4,9 C 12,9 km/h (3 Bft) 100,00 %
28.11.2017 12:12 5,0 C 4,4 C 78 % 1010,6 hPa 0,0 l/m 6,9 km/h (2 Bft) SW 217 2 min 0,000 mm 0,6 UV-I 221 W/m 1,5 C 4,6 C 11,3 km/h (2 Bft) 96,00 %
28.11.2017 12:14 5,1 C 4,4 C 77 % 1010,6 hPa 0,0 l/m 8,2 km/h (2 Bft) SW 233 2 min 0,000 mm 0,6 UV-I 208 W/m 1,4 C 3,5 C 12,9 km/h (3 Bft) 97,87 %
28.11.2017 12:16 5,1 C 4,4 C 77 % 1010,5 hPa 0,0 l/m 7,8 km/h (2 Bft) SW 221 2 min 0,000 mm 0,6 UV-I 197 W/m 1,4 C 3,9 C 12,9 km/h (3 Bft) 98,00 %
28.11.2017 12:18 5,1 C 4,4 C 78 % 1010,5 hPa 0,0 l/m 6,3 km/h (2 Bft) S-SO 163 2 min 0,000 mm 0,6 UV-I 205 W/m 1,6 C 5,1 C 9,7 km/h (2 Bft) 95,74 %
28.11.2017 12:20 5,1 C 4,4 C 77 % 1010,4 hPa 0,0 l/m 7,1 km/h (2 Bft) W-SW 244 2 min 0,000 mm 0,6 UV-I 212 W/m 1,4 C 4,5 C 9,7 km/h (2 Bft) 100,00 %
28.11.2017 12:22 5,2 C 4,4 C 77 % 1010,5 hPa 0,0 l/m 9,6 km/h (2 Bft) W-SW 241 2 min 0,000 mm 0,6 UV-I 200 W/m 1,5 C 2,6 C 16,1 km/h (3 Bft) 95,08 %
28.11.2017 12:24 5,2 C 4,4 C 77 % 1010,4 hPa 0,0 l/m 8,6 km/h (2 Bft) SW 214 2 min 0,000 mm 0,6 UV-I 204 W/m 1,5 C 3,3 C 12,9 km/h (3 Bft) 97,92 %
28.11.2017 12:26 5,2 C 4,4 C 78 % 1010,4 hPa 0,0 l/m 5,9 km/h (2 Bft) W-SW 250 2 min 0,000 mm 0,6 UV-I 199 W/m 1,7 C 5,2 C 12,9 km/h (3 Bft) 97,87 %
28.11.2017 12:28 5,2 C 4,4 C 77 % 1010,3 hPa 0,0 l/m 5,7 km/h (1 Bft) S-SW 205 0 min 0,000 mm 0,6 UV-I 175 W/m 1,5 C 5,2 C 9,7 km/h (2 Bft) 97,87 %
28.11.2017 12:30 5,2 C 4,4 C 78 % 1010,3 hPa 0,0 l/m 6,0 km/h (2 Bft) S-SO 155 0 min 0,000 mm 0,6 UV-I 184 W/m 1,7 C 5,2 C 9,7 km/h (2 Bft) 97,87 %
28.11.2017 12:32 5,2 C 4,4 C 78 % 1010,2 hPa 0,0 l/m 6,0 km/h (2 Bft) S-SW 209 0 min 0,000 mm 0,6 UV-I 191 W/m 1,7 C 5,2 C 8,0 km/h (2 Bft) 95,74 %
28.11.2017 12:34 5,3 C 4,4 C 78 % 1010,3 hPa 0,0 l/m 8,4 km/h (2 Bft) SW 232 0 min 0,000 mm 0,5 UV-I 179 W/m 1,8 C 3,6 C 11,3 km/h (2 Bft) 95,74 %
28.11.2017 12:36 5,3 C 4,4 C 78 % 1010,2 hPa 0,0 l/m 7,7 km/h (2 Bft) S-SW 208 0 min 0,000 mm 0,5 UV-I 164 W/m 1,8 C 4,2 C 9,7 km/h (2 Bft) 93,62 %
28.11.2017 12:38 5,4 C 4,4 C 77 % 1010,3 hPa 0,0 l/m 6,1 km/h (2 Bft) S-SW 198 0 min 0,000 mm 0,5 UV-I 160 W/m 1,7 C 5,4 C 8,0 km/h (2 Bft) 94,00 %
28.11.2017 12:40 5,4 C 4,4 C 78 % 1010,2 hPa 0,0 l/m 4,9 km/h (1 Bft) S 183 0 min 0,000 mm 0,5 UV-I 156 W/m 1,9 C 5,4 C 9,7 km/h (2 Bft) 93,62 %
28.11.2017 12:42 5,5 C 4,4 C 77 % 1010,3 hPa 0,0 l/m 6,0 km/h (2 Bft) SW 221 0 min 0,000 mm 0,5 UV-I 153 W/m 1,8 C 5,5 C 9,7 km/h (2 Bft) 97,87 %
28.11.2017 12:44 5,6 C 4,4 C 77 % 1010,2 hPa 0,0 l/m 7,0 km/h (2 Bft) S-SW 198 0 min 0,000 mm 0,5 UV-I 150 W/m 1,9 C 5,1 C 12,9 km/h (3 Bft) 97,87 %
28.11.2017 12:46 5,6 C 4,4 C 77 % 1010,3 hPa 0,0 l/m 5,8 km/h (2 Bft) S 169 0 min 0,000 mm 0,5 UV-I 147 W/m 1,9 C 5,6 C 11,3 km/h (2 Bft) 97,87 %
28.11.2017 12:48 5,6 C 4,4 C 77 % 1010,0 hPa 0,0 l/m 5,8 km/h (2 Bft) S-SW 209 0 min 0,000 mm 0,5 UV-I 146 W/m 1,9 C 5,6 C 11,3 km/h (2 Bft) 95,74 %
28.11.2017 12:50 5,6 C 4,4 C 77 % 1010,1 hPa 0,0 l/m 7,5 km/h (2 Bft) SW 222 0 min 0,000 mm 0,5 UV-I 148 W/m 1,9 C 4,6 C 11,3 km/h (2 Bft) 93,62 %
28.11.2017 12:52 5,7 C 4,4 C 77 % 1010,0 hPa 0,0 l/m 7,1 km/h (2 Bft) SW 236 0 min 0,000 mm 0,5 UV-I 150 W/m 2,0 C 5,1 C 11,3 km/h (2 Bft) 93,62 %
28.11.2017 12:54 5,7 C 4,4 C 77 % 1010,0 hPa 0,0 l/m 4,5 km/h (1 Bft) S-SW 202 0 min 0,000 mm 0,5 UV-I 150 W/m 2,0 C 5,7 C 8,0 km/h (2 Bft) 100,00 %
28.11.2017 12:56 5,7 C 4,4 C 77 % 1010,0 hPa 0,0 l/m 6,3 km/h (2 Bft) S 191 0 min 0,000 mm 0,5 UV-I 148 W/m 2,0 C 5,7 C 9,7 km/h (2 Bft) 95,74 %
28.11.2017 12:58 5,7 C 4,4 C 76 % 1010,0 hPa 0,0 l/m 6,2 km/h (2 Bft) S 170 0 min 0,000 mm 0,0 UV-I 147 W/m 1,8 C 5,7 C 11,3 km/h (2 Bft) 94,00 %
28.11.2017 13:00 5,7 C 4,4 C 76 % 1010,0 hPa 0,0 l/m 6,2 km/h (2 Bft) S-SW 205 0 min 0,101 mm 0,0 UV-I 147 W/m 1,8 C 5,7 C 11,3 km/h (2 Bft) 97,87 %
28.11.2017 13:02 5,7 C 4,4 C 77 % 1010,0 hPa 0,0 l/m 4,8 km/h (1 Bft) W-SW 252 0 min 0,000 mm 0,0 UV-I 149 W/m 2,0 C 5,7 C 6,4 km/h (2 Bft) 97,87 %
28.11.2017 13:04 5,8 C 4,4 C 76 % 1010,0 hPa 0,0 l/m 3,6 km/h (1 Bft) W-SW 249 0 min 0,000 mm 0,0 UV-I 152 W/m 1,9 C 5,8 C 4,8 km/h (1 Bft) 97,87 %
28.11.2017 13:06 5,8 C 4,4 C 75 % 1010,1 hPa 0,0 l/m 5,3 km/h (1 Bft) W 268 0 min 0,000 mm 0,0 UV-I 155 W/m 1,7 C 5,8 C 8,0 km/h (2 Bft) 100,00 %
28.11.2017 13:08 5,8 C 4,4 C 76 % 1010,1 hPa 0,0 l/m 5,0 km/h (1 Bft) W-SW 250 0 min 0,000 mm 0,0 UV-I 155 W/m 1,9 C 5,8 C 9,7 km/h (2 Bft) 100,00 %
28.11.2017 13:10 5,8 C 4,4 C 77 % 1010,1 hPa 0,0 l/m 4,9 km/h (1 Bft) W 270 0 min 0,000 mm 0,0 UV-I 155 W/m 2,1 C 5,8 C 6,4 km/h (2 Bft) 100,00 %
28.11.2017 13:12 5,8 C 4,4 C 76 % 1010,1 hPa 0,0 l/m 6,2 km/h (2 Bft) SW 236 0 min 0,000 mm 0,0 UV-I 155 W/m 1,9 C 5,8 C 8,0 km/h (2 Bft) 100,00 %
28.11.2017 13:14 5,9 C 4,4 C 76 % 1010,1 hPa 0,0 l/m 5,2 km/h (1 Bft) SW 225 0 min 0,000 mm 0,0 UV-I 155 W/m 2,0 C 5,9 C 6,4 km/h (2 Bft) 100,00 %
28.11.2017 13:16 5,9 C 4,4 C 74 % 1010,1 hPa 0,0 l/m 5,3 km/h (1 Bft) SW 232 0 min 0,000 mm 0,0 UV-I 152 W/m 1,6 C 5,9 C 8,0 km/h (2 Bft) 97,87 %
28.11.2017 13:18 6,0 C 4,4 C 75 % 1010,1 hPa 0,0 l/m 4,8 km/h (1 Bft) SW 234 0 min 0,000 mm 0,0 UV-I 149 W/m 1,9 C 6,0 C 6,4 km/h (2 Bft) 100,00 %
28.11.2017 13:20 6,0 C 4,4 C 75 % 1010,0 hPa 0,0 l/m 5,7 km/h (1 Bft) S-SW 209 0 min 0,000 mm 0,0 UV-I 146 W/m 1,9 C 6,0 C 8,0 km/h (2 Bft) 100,00 %
28.11.2017 13:22 6,1 C 4,4 C 75 % 1010,1 hPa 0,0 l/m 5,3 km/h (1 Bft) W-SW 244 0 min 0,000 mm 0,0 UV-I 143 W/m 2,0 C 6,1 C 8,0 km/h (2 Bft) 100,00 %
28.11.2017 13:24 6,1 C 4,4 C 75 % 1010,1 hPa 0,0 l/m 4,0 km/h (1 Bft) SW 229 0 min 0,000 mm 0,0 UV-I 140 W/m 2,0 C 6,1 C 4,8 km/h (1 Bft) 100,00 %
28.11.2017 13:26 6,1 C 4,4 C 76 % 1010,1 hPa 0,0 l/m 4,5 km/h (1 Bft) S-SW 212 0 min 0,000 mm 0,0 UV-I 139 W/m 2,2 C 6,1 C 8,0 km/h (2 Bft) 100,00 %
28.11.2017 13:28 6,1 C 4,4 C 75 % 1010,0 hPa 0,0 l/m 5,5 km/h (1 Bft) S-SW 212 0 min 0,000 mm 0,0 UV-I 139 W/m 2,0 C 6,1 C 8,0 km/h (2 Bft) 100,00 %
28.11.2017 13:30 6,1 C 4,4 C 76 % 1009,9 hPa 0,0 l/m 4,1 km/h (1 Bft) S 180 0 min 0,000 mm 0,0 UV-I 139 W/m 2,2 C 6,1 C 8,0 km/h (2 Bft) 98,00 %
28.11.2017 13:32 6,1 C 4,4 C 75 % 1010,0 hPa 0,0 l/m 4,1 km/h (1 Bft) S-SW 194 0 min 0,000 mm 0,0 UV-I 139 W/m 2,0 C 6,1 C 6,4 km/h (2 Bft) 100,00 %
28.11.2017 13:34 6,1 C 4,4 C 75 % 1009,9 hPa 0,0 l/m 4,5 km/h (1 Bft) W-SW 242 0 min 0,000 mm 0,0 UV-I 139 W/m 2,0 C 6,1 C 6,4 km/h (2 Bft) 100,00 %
28.11.2017 13:36 6,2 C 4,4 C 75 % 1009,9 hPa 0,0 l/m 4,0 km/h (1 Bft) W-SW 241 0 min 0,000 mm 0,0 UV-I 138 W/m 2,1 C 6,2 C 6,4 km/h (2 Bft) 100,00 %
28.11.2017 13:38 6,2 C 4,4 C 76 % 1009,9 hPa 0,0 l/m 1,5 km/h (1 Bft) W-SW 241 0 min 0,000 mm 0,0 UV-I 137 W/m 2,3 C 6,2 C 4,8 km/h (1 Bft) 100,00 %
28.11.2017 13:40 6,1 C 4,4 C 75 % 1009,9 hPa 0,0 l/m 2,8 km/h (1 Bft) W-SW 241 0 min 0,000 mm 0,0 UV-I 135 W/m 2,0 C 6,1 C 4,8 km/h (1 Bft) 100,00 %
28.11.2017 13:42 6,1 C 4,4 C 75 % 1009,8 hPa 0,0 l/m 4,6 km/h (1 Bft) S 188 0 min 0,000 mm 0,0 UV-I 134 W/m 2,0 C 6,1 C 6,4 km/h (2 Bft) 97,87 %
28.11.2017 13:44 6,1 C 4,4 C 75 % 1009,8 hPa 0,0 l/m 3,3 km/h (1 Bft) S 175 0 min 0,000 mm 0,0 UV-I 133 W/m 2,0 C 6,1 C 6,4 km/h (2 Bft) 100,00 %
28.11.2017 13:46 6,2 C 4,4 C 75 % 1009,8 hPa 0,0 l/m 3,0 km/h (1 Bft) S-SW 203 0 min 0,000 mm 0,0 UV-I 130 W/m 2,1 C 6,2 C 6,4 km/h (2 Bft) 100,00 %
28.11.2017 13:48 6,2 C 4,4 C 75 % 1009,7 hPa 0,0 l/m 3,5 km/h (1 Bft) S-SW 196 0 min 0,000 mm 0,0 UV-I 127 W/m 2,1 C 6,2 C 8,0 km/h (2 Bft) 98,08 %
28.11.2017 13:50 6,2 C 4,4 C 74 % 1009,7 hPa 0,0 l/m 1,1 km/h (1 Bft) S-SW 196 0 min 0,000 mm 0,0 UV-I 125 W/m 1,9 C 6,2 C 1,6 km/h (1 Bft) 100,00 %
28.11.2017 13:52 6,2 C 4,4 C 75 % 1009,7 hPa 0,0 l/m 1,2 km/h (1 Bft) S-SW 196 0 min 0,000 mm 0,0 UV-I 122 W/m 2,1 C 6,2 C 3,2 km/h (1 Bft) 100,00 %
28.11.2017 13:54 6,2 C 4,4 C 76 % 1009,8 hPa 0,0 l/m 2,4 km/h (1 Bft) S-SW 196 0 min 0,000 mm 0,0 UV-I 119 W/m 2,3 C 6,2 C 4,8 km/h (1 Bft) 97,87 %
28.11.2017 13:56 6,2 C 4,4 C 75 % 1009,8 hPa 0,0 l/m 1,4 km/h (1 Bft) S-SW 196 0 min 0,000 mm 0,0 UV-I 114 W/m 2,1 C 6,2 C 3,2 km/h (1 Bft) 97,87 %
28.11.2017 13:58 6,2 C 4,4 C 75 % 1009,8 hPa 0,0 l/m 2,9 km/h (1 Bft) S 188 0 min 0,000 mm 0,0 UV-I 111 W/m 2,1 C 6,2 C 6,4 km/h (2 Bft) 100,00 %
28.11.2017 14:00 6,2 C 4,4 C 76 % 1009,8 hPa 0,0 l/m 3,5 km/h (1 Bft) S 189 0 min 0,076 mm 0,0 UV-I 106 W/m 2,3 C 6,2 C 6,4 km/h (2 Bft) 100,00 %
28.11.2017 14:02 6,2 C 4,4 C 75 % 1009,7 hPa 0,0 l/m 2,4 km/h (1 Bft) S-SO 168 0 min 0,000 mm 0,0 UV-I 102 W/m 2,1 C 6,2 C 6,4 km/h (2 Bft) 100,00 %
28.11.2017 14:04 6,2 C 4,4 C 75 % 1009,7 hPa 0,0 l/m 2,2 km/h (1 Bft) S-SO 168 0 min 0,000 mm 0,0 UV-I 99 W/m 2,1 C 6,2 C 6,4 km/h (2 Bft) 100,00 %
28.11.2017 14:06 6,3 C 4,4 C 75 % 1009,7 hPa 0,0 l/m 2,7 km/h (1 Bft) S-SO 168 0 min 0,000 mm 0,0 UV-I 97 W/m 2,2 C 6,3 C 8,0 km/h (2 Bft) 100,00 %
28.11.2017 14:08 6,3 C 4,4 C 76 % 1009,7 hPa 0,0 l/m 2,5 km/h (1 Bft) S-SO 168 0 min 0,000 mm 0,0 UV-I 96 W/m 2,4 C 6,3 C 6,4 km/h (2 Bft) 100,00 %
28.11.2017 14:10 6,3 C 4,4 C 76 % 1009,7 hPa 0,0 l/m 2,0 km/h (1 Bft) S-SO 168 0 min 0,000 mm 0,0 UV-I 94 W/m 2,4 C 6,3 C 6,4 km/h (2 Bft) 100,00 %
28.11.2017 14:12 6,3 C 4,4 C 75 % 1009,7 hPa 0,0 l/m 1,9 km/h (1 Bft) S-SO 168 0 min 0,000 mm 0,0 UV-I 93 W/m 2,2 C 6,3 C 6,4 km/h (2 Bft) 97,87 %
28.11.2017 14:14 6,3 C 4,4 C 75 % 1009,7 hPa 0,0 l/m 2,8 km/h (1 Bft) S-SO 168 0 min 0,000 mm 0,0 UV-I 91 W/m 2,2 C 6,3 C 6,4 km/h (2 Bft) 100,00 %
28.11.2017 14:16 6,3 C 4,4 C 75 % 1009,7 hPa 0,0 l/m 1,6 km/h (1 Bft) S-SO 168 0 min 0,000 mm 0,0 UV-I 90 W/m 2,2 C 6,3 C 6,4 km/h (2 Bft) 95,74 %
28.11.2017 14:18 6,3 C 4,4 C 75 % 1009,6 hPa 0,0 l/m 1,2 km/h (1 Bft) S-SO 168 0 min 0,000 mm 0,0 UV-I 89 W/m 2,2 C 6,3 C 3,2 km/h (1 Bft) 100,00 %
28.11.2017 14:20 6,3 C 4,4 C 75 % 1009,6 hPa 0,0 l/m 0,9 km/h (0 Bft) S-SO 168 0 min 0,000 mm 0,0 UV-I 87 W/m 2,2 C 6,3 C 3,2 km/h (1 Bft) 97,87 %
28.11.2017 14:22 6,3 C 4,4 C 75 % 1009,6 hPa 0,0 l/m 1,1 km/h (1 Bft) S-SO 168 0 min 0,000 mm 0,0 UV-I 86 W/m 2,2 C 6,3 C 3,2 km/h (1 Bft) 100,00 %
28.11.2017 14:24 6,3 C 4,4 C 75 % 1009,6 hPa 0,0 l/m 1,7 km/h (1 Bft) S-SO 168 0 min 0,000 mm 0,0 UV-I 83 W/m 2,2 C 6,3 C 6,4 km/h (2 Bft) 100,00 %
28.11.2017 14:26 6,3 C 4,4 C 76 % 1009,5 hPa 0,0 l/m 1,5 km/h (1 Bft) S-SO 168 0 min 0,000 mm 0,0 UV-I 79 W/m 2,4 C 6,3 C 6,4 km/h (2 Bft) 100,00 %
28.11.2017 14:28 6,3 C 4,4 C 76 % 1009,5 hPa 0,0 l/m 0,3 km/h (0 Bft) S-SO 168 0 min 0,000 mm 0,0 UV-I 77 W/m 2,4 C 6,3 C 3,2 km/h (1 Bft) 97,92 %
28.11.2017 14:30 6,3 C 4,4 C 76 % 1009,5 hPa 0,0 l/m 0,0 km/h (0 Bft) S-SO 168 0 min 0,000 mm 0,0 UV-I 72 W/m 2,4 C 6,3 C 0,0 km/h (0 Bft) 97,87 %
28.11.2017 14:32 6,3 C 4,4 C 76 % 1009,5 hPa 0,0 l/m 0,0 km/h (0 Bft) S-SO 168 0 min 0,000 mm 0,0 UV-I 69 W/m 2,4 C 6,3 C 0,0 km/h (0 Bft) 97,87 %
28.11.2017 14:34 6,3 C 4,4 C 77 % 1009,5 hPa 0,0 l/m 0,0 km/h (0 Bft) S-SO 168 0 min 0,000 mm 0,0 UV-I 64 W/m 2,6 C 6,3 C 0,0 km/h (0 Bft) 97,87 %
28.11.2017 14:36 6,3 C 4,4 C 76 % 1009,5 hPa 0,0 l/m 0,1 km/h (0 Bft) S-SO 168 0 min 0,000 mm 0,0 UV-I 62 W/m 2,4 C 6,3 C 1,6 km/h (1 Bft) 95,12 %
28.11.2017 14:38 6,3 C 4,4 C 77 % 1009,5 hPa 0,0 l/m 1,7 km/h (1 Bft) S-SO 168 0 min 0,000 mm 0,0 UV-I 60 W/m 2,6 C 6,3 C 6,4 km/h (2 Bft) 95,74 %
28.11.2017 14:40 6,3 C 4,4 C 77 % 1009,5 hPa 0,0 l/m 0,1 km/h (0 Bft) S-SO 168 0 min 0,000 mm 0,0 UV-I 60 W/m 2,6 C 6,3 C 1,6 km/h (1 Bft) 97,87 %
28.11.2017 14:42 6,3 C 4,4 C 76 % 1009,4 hPa 0,0 l/m 0,6 km/h (0 Bft) S-SO 168 0 min 0,000 mm 0,0 UV-I 58 W/m 2,4 C 6,3 C 3,2 km/h (1 Bft) 97,87 %
28.11.2017 14:44 6,3 C 4,4 C 77 % 1009,4 hPa 0,0 l/m 0,3 km/h (0 Bft) S-SO 168 0 min 0,000 mm 0,0 UV-I 55 W/m 2,6 C 6,3 C 1,6 km/h (1 Bft) 97,87 %
28.11.2017 14:46 6,3 C 4,4 C 77 % 1009,4 hPa 0,0 l/m 0,8 km/h (0 Bft) S-SO 168 0 min 0,000 mm 0,0 UV-I 53 W/m 2,6 C 6,3 C 1,6 km/h (1 Bft) 97,92 %
28.11.2017 14:48 6,3 C 4,4 C 77 % 1009,4 hPa 0,0 l/m 1,8 km/h (1 Bft) S-SO 168 0 min 0,000 mm 0,0 UV-I 50 W/m 2,6 C 6,3 C 3,2 km/h (1 Bft) 96,00 %
28.11.2017 14:50 6,3 C 4,4 C 77 % 1009,4 hPa 0,0 l/m 1,9 km/h (1 Bft) S-SO 168 0 min 0,000 mm 0,0 UV-I 47 W/m 2,6 C 6,3 C 3,2 km/h (1 Bft) 97,87 %
28.11.2017 14:52 6,3 C 4,4 C 77 % 1009,4 hPa 0,0 l/m 1,6 km/h (1 Bft) S-SO 168 0 min 0,000 mm 0,0 UV-I 47 W/m 2,6 C 6,3 C 3,2 km/h (1 Bft) 95,74 %
28.11.2017 14:54 6,3 C 4,4 C 77 % 1009,4 hPa 0,0 l/m 1,6 km/h (1 Bft) S-SO 168 0 min 0,000 mm 0,0 UV-I 46 W/m 2,6 C 6,3 C 3,2 km/h (1 Bft) 97,37 %
28.11.2017 14:56 6,3 C 4,4 C 77 % 1009,4 hPa 0,0 l/m 0,0 km/h (0 Bft) S-SO 168 0 min 0,000 mm 0,0 UV-I 45 W/m 2,6 C 6,3 C 0,0 km/h (0 Bft) 95,74 %
28.11.2017 14:58 6,3 C 4,4 C 78 % 1009,4 hPa 0,0 l/m 0,0 km/h (0 Bft) S-SO 168 0 min 0,000 mm 0,0 UV-I 44 W/m 2,8 C 6,3 C 0,0 km/h (0 Bft) 98,31 %
28.11.2017 15:00 6,2 C 4,4 C 79 % 1009,4 hPa 0,0 l/m 0,0 km/h (0 Bft) S-SO 168 0 min 0,000 mm 0,0 UV-I 42 W/m 2,8 C 6,2 C 0,0 km/h (0 Bft) 94,29 %
28.11.2017 15:02 6,2 C 4,4 C 80 % 1009,4 hPa 0,0 l/m 1,0 km/h (0 Bft) S-SO 168 0 min 0,026 mm 0,0 UV-I 40 W/m 3,0 C 6,2 C 3,2 km/h (1 Bft) 92,00 %
28.11.2017 15:04 6,2 C 4,4 C 80 % 1009,3 hPa 0,0 l/m 0,0 km/h (0 Bft) S-SO 168 0 min 0,000 mm 0,0 UV-I 40 W/m 3,0 C 6,2 C 1,6 km/h (1 Bft) 100,00 %
28.11.2017 15:06 6,1 C 4,4 C 81 % 1009,3 hPa 0,0 l/m 0,0 km/h (0 Bft) S-SO 168 0 min 0,000 mm 0,0 UV-I 39 W/m 3,1 C 6,1 C 0,0 km/h (0 Bft) 100,00 %
28.11.2017 15:08 6,1 C 4,4 C 82 % 1009,3 hPa 0,0 l/m 0,0 km/h (0 Bft) S-SO 168 0 min 0,000 mm 0,0 UV-I 36 W/m 3,3 C 6,1 C 0,0 km/h (0 Bft) 100,00 %
28.11.2017 15:10 6,1 C 4,4 C 81 % 1009,3 hPa 0,0 l/m 0,0 km/h (0 Bft) S-SO 168 0 min 0,000 mm 0,0 UV-I 34 W/m 3,1 C 6,1 C 0,0 km/h (0 Bft) 97,87 %
28.11.2017 15:12 6,2 C 4,4 C 80 % 1009,4 hPa 0,0 l/m 0,0 km/h (0 Bft) S-SO 168 0 min 0,000 mm 0,0 UV-I 33 W/m 3,0 C 6,2 C 0,0 km/h (0 Bft) 100,00 %
28.11.2017 15:14 6,2 C 4,4 C 80 % 1009,3 hPa 0,0 l/m 0,0 km/h (0 Bft) S-SO 168 0 min 0,000 mm 0,0 UV-I 33 W/m 3,0 C 6,2 C 0,0 km/h (0 Bft) 97,87 %
28.11.2017 15:16 6,2 C 4,4 C 79 % 1009,3 hPa 0,0 l/m 0,0 km/h (0 Bft) S-SO 168 0 min 0,000 mm 0,0 UV-I 32 W/m 2,8 C 6,2 C 0,0 km/h (0 Bft) 97,87 %
28.11.2017 15:18 6,2 C 4,4 C 79 % 1009,3 hPa 0,0 l/m 0,0 km/h (0 Bft) S-SO 168 0 min 0,000 mm 0,0 UV-I 32 W/m 2,8 C 6,2 C 0,0 km/h (0 Bft) 97,87 %
28.11.2017 15:20 6,2 C 4,4 C 78 % 1009,3 hPa 0,0 l/m 0,0 km/h (0 Bft) S-SO 168 0 min 0,000 mm 0,0 UV-I 30 W/m 2,7 C 6,2 C 0,0 km/h (0 Bft) 100,00 %
28.11.2017 15:22 6,2 C 4,4 C 80 % 1009,3 hPa 0,0 l/m 0,0 km/h (0 Bft) S-SO 168 0 min 0,000 mm 0,0 UV-I 29 W/m 3,0 C 6,2 C 0,0 km/h (0 Bft) 100,00 %
28.11.2017 15:24 6,3 C 4,4 C 78 % 1009,3 hPa 0,0 l/m 0,0 km/h (0 Bft) S-SO 168 0 min 0,000 mm 0,0 UV-I 28 W/m 2,8 C 6,3 C 0,0 km/h (0 Bft) 97,87 %
28.11.2017 15:26 6,3 C 4,4 C 79 % 1009,3 hPa 0,0 l/m 0,0 km/h (0 Bft) S-SO 168 0 min 0,000 mm 0,0 UV-I 26 W/m 2,9 C 6,3 C 0,0 km/h (0 Bft) 100,00 %
28.11.2017 15:28 6,2 C 4,4 C 79 % 1009,3 hPa 0,0 l/m 0,0 km/h (0 Bft) S-SO 168 0 min 0,000 mm 0,0 UV-I 25 W/m 2,8 C 6,2 C 0,0 km/h (0 Bft) 100,00 %
28.11.2017 15:30 5,9 C 4,4 C 81 % 1009,2 hPa 0,0 l/m 0,0 km/h (0 Bft) S-SO 168 0 min 0,000 mm 0,0 UV-I 24 W/m 2,9 C 5,9 C 0,0 km/h (0 Bft) 100,00 %
28.11.2017 15:32 5,8 C 4,4 C 81 % 1009,2 hPa 0,0 l/m 0,0 km/h (0 Bft) S-SO 168 0 min 0,000 mm 0,0 UV-I 23 W/m 2,8 C 5,8 C 0,0 km/h (0 Bft) 97,92 %
28.11.2017 15:34 5,7 C 4,4 C 80 % 1009,3 hPa 0,0 l/m 0,0 km/h (0 Bft) S-SO 168 0 min 0,000 mm 0,0 UV-I 21 W/m 2,5 C 5,7 C 0,0 km/h (0 Bft) 97,87 %
28.11.2017 15:36 5,7 C 4,4 C 81 % 1009,3 hPa 0,0 l/m 0,0 km/h (0 Bft) S-SO 168 0 min 0,000 mm 0,0 UV-I 20 W/m 2,7 C 5,7 C 0,0 km/h (0 Bft) 97,87 %
28.11.2017 15:38 5,6 C 4,4 C 81 % 1009,3 hPa 0,0 l/m 0,0 km/h (0 Bft) S-SO 168 0 min 0,000 mm 0,0 UV-I 19 W/m 2,6 C 5,6 C 0,0 km/h (0 Bft) 100,00 %
28.11.2017 15:40 5,5 C 4,4 C 81 % 1009,3 hPa 0,0 l/m 0,0 km/h (0 Bft) S-SO 168 0 min 0,000 mm 0,0 UV-I 18 W/m 2,5 C 5,5 C 0,0 km/h (0 Bft) 100,00 %
28.11.2017 15:42 5,4 C 4,4 C 82 % 1009,3 hPa 0,0 l/m 0,0 km/h (0 Bft) S-SO 168 0 min 0,000 mm 0,0 UV-I 17 W/m 2,6 C 5,4 C 0,0 km/h (0 Bft) 100,00 %
28.11.2017 15:44 5,3 C 4,4 C 82 % 1009,2 hPa 0,0 l/m 0,0 km/h (0 Bft) S-SO 168 0 min 0,000 mm 0,0 UV-I 16 W/m 2,5 C 5,3 C 0,0 km/h (0 Bft) 100,00 %
28.11.2017 15:46 5,2 C 4,4 C 83 % 1009,3 hPa 0,0 l/m 3,1 km/h (1 Bft) S-SO 168 0 min 0,000 mm 0,0 UV-I 16 W/m 2,6 C 5,2 C 6,4 km/h (2 Bft) 97,87 %
28.11.2017 15:48 5,1 C 4,4 C 84 % 1009,3 hPa 0,0 l/m 5,1 km/h (1 Bft) S-SO 168 0 min 0,000 mm 0,0 UV-I 14 W/m 2,6 C 5,1 C 6,4 km/h (2 Bft) 100,00 %
28.11.2017 15:50 5,1 C 4,4 C 84 % 1009,3 hPa 0,0 l/m 6,0 km/h (2 Bft) S-SO 167 0 min 0,000 mm 0,0 UV-I 13 W/m 2,6 C 5,1 C 6,4 km/h (2 Bft) 100,00 %
28.11.2017 15:52 4,9 C 4,4 C 84 % 1009,3 hPa 0,0 l/m 6,0 km/h (2 Bft) S-SO 167 0 min 0,000 mm 0,0 UV-I 12 W/m 2,4 C 4,9 C 6,4 km/h (2 Bft) 100,00 %
28.11.2017 15:54 4,9 C 4,4 C 84 % 1009,3 hPa 0,0 l/m 4,6 km/h (1 Bft) S-SO 167 0 min 0,000 mm 0,0 UV-I 12 W/m 2,4 C 4,9 C 6,4 km/h (2 Bft) 97,37 %
28.11.2017 15:56 4,9 C 4,4 C 85 % 1009,3 hPa 0,0 l/m 2,8 km/h (1 Bft) S-SO 167 0 min 0,000 mm 0,0 UV-I 11 W/m 2,6 C 4,9 C 6,4 km/h (2 Bft) 97,87 %
28.11.2017 15:58 4,9 C 4,4 C 85 % 1009,2 hPa 0,0 l/m 1,3 km/h (1 Bft) S-SO 167 0 min 0,000 mm 0,0 UV-I 11 W/m 2,6 C 4,9 C 3,2 km/h (1 Bft) 100,00 %
28.11.2017 16:00 4,9 C 4,4 C 85 % 1009,2 hPa 0,0 l/m 1,3 km/h (1 Bft) S-SO 168 0 min 0,000 mm 0,0 UV-I 10 W/m 2,6 C 4,9 C 4,8 km/h (1 Bft) 100,00 %
28.11.2017 16:02 4,8 C 4,4 C 86 % 1009,2 hPa 0,0 l/m 3,7 km/h (1 Bft) S-SO 168 0 min 0,025 mm 0,0 UV-I 9 W/m 2,7 C 4,8 C 6,4 km/h (2 Bft) 98,00 %
28.11.2017 16:04 4,8 C 4,4 C 86 % 1009,2 hPa 0,0 l/m 3,9 km/h (1 Bft) S-SO 168 0 min 0,000 mm 0,0 UV-I 8 W/m 2,7 C 4,8 C 6,4 km/h (2 Bft) 100,00 %
28.11.2017 16:06 4,7 C 4,4 C 87 % 1009,2 hPa 0,0 l/m 2,0 km/h (1 Bft) S-SO 168 0 min 0,000 mm 0,0 UV-I 7 W/m 2,7 C 4,7 C 6,4 km/h (2 Bft) 97,87 %
28.11.2017 16:08 4,7 C 4,4 C 87 % 1009,2 hPa 0,0 l/m 2,1 km/h (1 Bft) S-SO 168 0 min 0,000 mm 0,0 UV-I 7 W/m 2,7 C 4,7 C 6,4 km/h (2 Bft) 100,00 %
28.11.2017 16:10 4,7 C 4,4 C 86 % 1009,2 hPa 0,0 l/m 2,5 km/h (1 Bft) S-SO 168 0 min 0,000 mm 0,0 UV-I 5 W/m 2,6 C 4,7 C 6,4 km/h (2 Bft) 100,00 %
28.11.2017 16:12 4,7 C 4,4 C 86 % 1009,2 hPa 0,0 l/m 1,9 km/h (1 Bft) S-SO 168 0 min 0,000 mm 0,0 UV-I 5 W/m 2,6 C 4,7 C 3,2 km/h (1 Bft) 100,00 %
28.11.2017 16:14 4,7 C 4,4 C 86 % 1009,2 hPa 0,0 l/m 0,9 km/h (0 Bft) S-SO 168 0 min 0,000 mm 0,0 UV-I 5 W/m 2,6 C 4,7 C 3,2 km/h (1 Bft) 100,00 %
28.11.2017 16:16 4,7 C 4,4 C 85 % 1009,3 hPa 0,0 l/m 2,9 km/h (1 Bft) S-SO 168 0 min 0,000 mm 0,0 UV-I 5 W/m 2,4 C 4,7 C 6,4 km/h (2 Bft) 100,00 %
28.11.2017 16:18 4,7 C 4,4 C 85 % 1009,3 hPa 0,0 l/m 2,8 km/h (1 Bft) S-SO 168 0 min 0,000 mm 0,0 UV-I 5 W/m 2,4 C 4,7 C 6,4 km/h (2 Bft) 100,00 %
28.11.2017 16:20 4,7 C 4,4 C 85 % 1009,3 hPa 0,0 l/m 2,7 km/h (1 Bft) S-SO 168 0 min 0,000 mm 0,0 UV-I 5 W/m 2,4 C 4,7 C 4,8 km/h (1 Bft) 97,22 %
28.11.2017 16:22 4,7 C 4,4 C 85 % 1009,3 hPa 0,0 l/m 2,4 km/h (1 Bft) S-SO 168 0 min 0,000 mm 0,0 UV-I 0 W/m 2,4 C 4,7 C 3,2 km/h (1 Bft) 95,92 %
28.11.2017 16:24 4,8 C 4,4 C 84 % 1009,2 hPa 0,0 l/m 2,0 km/h (1 Bft) S-SO 168 0 min 0,000 mm 0,0 UV-I 0 W/m 2,3 C 4,8 C 3,2 km/h (1 Bft) 97,87 %
28.11.2017 16:26 4,8 C 4,4 C 84 % 1009,2 hPa 0,0 l/m 4,0 km/h (1 Bft) SW 219 0 min 0,000 mm 0,0 UV-I 0 W/m 2,3 C 4,8 C 8,0 km/h (2 Bft) 97,87 %
28.11.2017 16:28 4,9 C 4,4 C 83 % 1009,2 hPa 0,0 l/m 5,0 km/h (1 Bft) SW 219 0 min 0,000 mm 0,0 UV-I 0 W/m 2,3 C 4,9 C 6,4 km/h (2 Bft) 97,87 %
28.11.2017 16:30 5,0 C 4,4 C 81 % 1009,2 hPa 0,0 l/m 5,3 km/h (1 Bft) S-SW 209 0 min 0,000 mm 0,0 UV-I 0 W/m 2,0 C 5,0 C 8,0 km/h (2 Bft) 95,74 %
28.11.2017 16:32 5,1 C 4,4 C 81 % 1009,2 hPa 0,0 l/m 4,8 km/h (1 Bft) S-SW 211 0 min 0,000 mm 0,0 UV-I 0 W/m 2,1 C 5,1 C 8,0 km/h (2 Bft) 95,92 %
28.11.2017 16:34 5,1 C 4,4 C 80 % 1009,3 hPa 0,0 l/m 5,3 km/h (1 Bft) S-SW 212 0 min 0,000 mm 0,0 UV-I 0 W/m 1,9 C 5,1 C 8,0 km/h (2 Bft) 97,87 %
28.11.2017 16:36 5,1 C 4,4 C 80 % 1009,2 hPa 0,0 l/m 6,0 km/h (2 Bft) S-SW 212 0 min 0,000 mm 0,0 UV-I 0 W/m 1,9 C 5,1 C 9,7 km/h (2 Bft) 89,36 %
28.11.2017 16:38 5,1 C 4,4 C 80 % 1009,3 hPa 0,0 l/m 5,0 km/h (1 Bft) S-SW 207 0 min 0,000 mm 0,0 UV-I 0 W/m 1,9 C 5,1 C 6,4 km/h (2 Bft) 97,87 %
28.11.2017 16:40 5,2 C 4,4 C 80 % 1009,2 hPa 0,0 l/m 5,5 km/h (1 Bft) SW 221 0 min 0,000 mm 0,0 UV-I 0 W/m 2,0 C 5,2 C 8,0 km/h (2 Bft) 97,96 %
28.11.2017 16:42 5,3 C 4,4 C 79 % 1009,3 hPa 0,0 l/m 5,8 km/h (2 Bft) SW 234 0 min 0,000 mm 0,0 UV-I 0 W/m 2,0 C 5,3 C 8,0 km/h (2 Bft) 93,62 %
28.11.2017 16:44 5,3 C 4,4 C 79 % 1009,3 hPa 0,0 l/m 6,0 km/h (2 Bft) W-SW 237 0 min 0,000 mm 0,0 UV-I 0 W/m 2,0 C 5,3 C 9,7 km/h (2 Bft) 95,74 %
28.11.2017 16:46 5,4 C 4,4 C 79 % 1009,3 hPa 0,0 l/m 5,5 km/h (1 Bft) W-SW 239 0 min 0,000 mm 0,0 UV-I 0 W/m 2,1 C 5,4 C 9,7 km/h (2 Bft) 96,00 %
28.11.2017 16:48 5,3 C 4,4 C 79 % 1009,3 hPa 0,0 l/m 4,3 km/h (1 Bft) W-SW 240 0 min 0,000 mm 0,0 UV-I 0 W/m 2,0 C 5,3 C 6,4 km/h (2 Bft) 94,29 %
28.11.2017 16:50 5,3 C 4,4 C 79 % 1009,2 hPa 0,0 l/m 5,2 km/h (1 Bft) S-SW 209 0 min 0,000 mm 0,0 UV-I 0 W/m 2,0 C 5,3 C 6,4 km/h (2 Bft) 95,92 %
28.11.2017 16:52 5,3 C 4,4 C 79 % 1009,2 hPa 0,0 l/m 4,1 km/h (1 Bft) S-SW 210 0 min 0,000 mm 0,0 UV-I 0 W/m 2,0 C 5,3 C 6,4 km/h (2 Bft) 93,62 %
28.11.2017 16:54 5,3 C 4,4 C 79 % 1009,2 hPa 0,0 l/m 3,3 km/h (1 Bft) S-SW 210 0 min 0,000 mm 0,0 UV-I 0 W/m 2,0 C 5,3 C 4,8 km/h (1 Bft) 93,62 %
28.11.2017 16:56 5,3 C 4,4 C 79 % 1009,2 hPa 0,0 l/m 3,6 km/h (1 Bft) S-SW 210 0 min 0,000 mm 0,0 UV-I 0 W/m 2,0 C 5,3 C 4,8 km/h (1 Bft) 95,74 %
28.11.2017 16:58 5,3 C 4,4 C 79 % 1009,2 hPa 0,0 l/m 2,1 km/h (1 Bft) S-SW 210 0 min 0,000 mm 0,0 UV-I 0 W/m 2,0 C 5,3 C 4,8 km/h (1 Bft) 91,49 %
28.11.2017 17:00 5,3 C 4,4 C 78 % 1009,2 hPa 0,0 l/m 3,0 km/h (1 Bft) S-SW 210 0 min 0,000 mm 0,0 UV-I 0 W/m 1,8 C 5,3 C 4,8 km/h (1 Bft) 94,23 %
28.11.2017 17:02 5,4 C 4,4 C 78 % 1009,2 hPa 0,0 l/m 3,7 km/h (1 Bft) S-SW 210 0 min 0,000 mm 0,0 UV-I 0 W/m 1,9 C 5,4 C 4,8 km/h (1 Bft) 93,62 %
28.11.2017 17:04 5,4 C 4,4 C 78 % 1009,2 hPa 0,0 l/m 2,2 km/h (1 Bft) S-SW 210 0 min 0,000 mm 0,0 UV-I 0 W/m 1,9 C 5,4 C 3,2 km/h (1 Bft) 93,62 %
28.11.2017 17:06 5,5 C 4,4 C 78 % 1009,1 hPa 0,0 l/m 2,9 km/h (1 Bft) S-SW 210 0 min 0,000 mm 0,0 UV-I 0 W/m 2,0 C 5,5 C 4,8 km/h (1 Bft) 95,74 %
28.11.2017 17:08 5,6 C 4,4 C 77 % 1009,1 hPa 0,0 l/m 2,2 km/h (1 Bft) S-SW 210 0 min 0,000 mm 0,0 UV-I 0 W/m 1,9 C 5,6 C 4,8 km/h (1 Bft) 97,92 %
28.11.2017 17:10 5,6 C 4,4 C 77 % 1009,1 hPa 0,0 l/m 1,9 km/h (1 Bft) S-SW 210 0 min 0,000 mm 0,0 UV-I 0 W/m 1,9 C 5,6 C 3,2 km/h (1 Bft) 95,74 %
28.11.2017 17:12 5,6 C 4,4 C 77 % 1009,1 hPa 0,0 l/m 2,4 km/h (1 Bft) S-SW 210 0 min 0,000 mm 0,0 UV-I 0 W/m 1,9 C 5,6 C 3,2 km/h (1 Bft) 89,36 %
28.11.2017 17:14 5,6 C 4,4 C 77 % 1009,0 hPa 0,0 l/m 2,3 km/h (1 Bft) S-SW 210 0 min 0,000 mm 0,0 UV-I 0 W/m 1,9 C 5,6 C 3,2 km/h (1 Bft) 92,11 %
28.11.2017 17:16 5,6 C 4,4 C 77 % 1009,0 hPa 0,0 l/m 3,3 km/h (1 Bft) S-SW 210 0 min 0,000 mm 0,0 UV-I 0 W/m 1,9 C 5,6 C 4,8 km/h (1 Bft) 93,62 %
28.11.2017 17:18 5,5 C 4,4 C 77 % 1009,0 hPa 0,0 l/m 3,1 km/h (1 Bft) S-SW 210 0 min 0,000 mm 0,0 UV-I 0 W/m 1,8 C 5,5 C 4,8 km/h (1 Bft) 93,62 %
28.11.2017 17:20 5,4 C 4,4 C 78 % 1008,9 hPa 0,0 l/m 3,2 km/h (1 Bft) S-SW 210 0 min 0,000 mm 0,0 UV-I 0 W/m 1,9 C 5,4 C 4,8 km/h (1 Bft) 93,62 %
28.11.2017 17:22 5,4 C 4,4 C 78 % 1008,9 hPa 0,0 l/m 2,9 km/h (1 Bft) S-SW 210 0 min 0,000 mm 0,0 UV-I 0 W/m 1,9 C 5,4 C 4,8 km/h (1 Bft) 97,87 %
28.11.2017 17:24 5,3 C 4,4 C 79 % 1008,9 hPa 0,0 l/m 3,0 km/h (1 Bft) S-SW 210 0 min 0,000 mm 0,0 UV-I 0 W/m 2,0 C 5,3 C 3,2 km/h (1 Bft) 95,74 %
28.11.2017 17:26 5,2 C 4,4 C 79 % 1008,9 hPa 0,0 l/m 3,2 km/h (1 Bft) S-SW 210 0 min 0,000 mm 0,0 UV-I 0 W/m 1,9 C 5,2 C 4,8 km/h (1 Bft) 97,87 %
28.11.2017 17:28 5,1 C 4,4 C 81 % 1008,8 hPa 0,0 l/m 3,4 km/h (1 Bft) S-SW 210 0 min 0,000 mm 0,0 UV-I 0 W/m 2,1 C 5,1 C 4,8 km/h (1 Bft) 95,74 %
28.11.2017 17:30 5,0 C 4,4 C 81 % 1008,7 hPa 0,0 l/m 2,8 km/h (1 Bft) S-SW 210 0 min 0,000 mm 0,0 UV-I 0 W/m 2,0 C 5,0 C 4,8 km/h (1 Bft) 97,87 %
28.11.2017 17:32 5,0 C 4,4 C 81 % 1008,7 hPa 0,0 l/m 3,0 km/h (1 Bft) S-SW 210 0 min 0,000 mm 0,0 UV-I 0 W/m 2,0 C 5,0 C 4,8 km/h (1 Bft) 97,87 %
28.11.2017 17:34 5,1 C 4,4 C 80 % 1008,7 hPa 0,0 l/m 3,2 km/h (1 Bft) S-SW 210 0 min 0,000 mm 0,0 UV-I 0 W/m 1,9 C 5,1 C 4,8 km/h (1 Bft) 95,74 %
28.11.2017 17:36 5,1 C 4,4 C 80 % 1008,7 hPa 0,0 l/m 2,9 km/h (1 Bft) S-SW 210 0 min 0,000 mm 0,0 UV-I 0 W/m 1,9 C 5,1 C 4,8 km/h (1 Bft) 97,87 %
28.11.2017 17:38 5,1 C 4,4 C 80 % 1008,7 hPa 0,0 l/m 3,2 km/h (1 Bft) S-SW 210 0 min 0,000 mm 0,0 UV-I 0 W/m 1,9 C 5,1 C 4,8 km/h (1 Bft) 97,87 %
28.11.2017 17:40 5,1 C 4,4 C 80 % 1008,7 hPa 0,0 l/m 3,2 km/h (1 Bft) S-SW 210 0 min 0,000 mm 0,0 UV-I 0 W/m 1,9 C 5,1 C 4,8 km/h (1 Bft) 97,87 %
28.11.2017 17:42 5,1 C 4,4 C 80 % 1008,7 hPa 0,0 l/m 2,8 km/h (1 Bft) S-SW 210 0 min 0,000 mm 0,0 UV-I 0 W/m 1,9 C 5,1 C 4,8 km/h (1 Bft) 100,00 %
28.11.2017 17:44 5,1 C 4,4 C 79 % 1008,7 hPa 0,0 l/m 2,4 km/h (1 Bft) S-SW 210 0 min 0,000 mm 0,0 UV-I 0 W/m 1,8 C 5,1 C 3,2 km/h (1 Bft) 100,00 %
28.11.2017 17:46 5,1 C 4,4 C 79 % 1008,7 hPa 0,0 l/m 2,0 km/h (1 Bft) S-SW 210 0 min 0,000 mm 0,0 UV-I 0 W/m 1,8 C 5,1 C 3,2 km/h (1 Bft) 100,00 %
28.11.2017 17:48 5,1 C 4,4 C 79 % 1008,7 hPa 0,0 l/m 1,7 km/h (1 Bft) S-SW 210 0 min 0,000 mm 0,0 UV-I 0 W/m 1,8 C 5,1 C 3,2 km/h (1 Bft) 100,00 %
28.11.2017 17:50 5,0 C 4,4 C 80 % 1008,7 hPa 0,0 l/m 1,3 km/h (1 Bft) S-SW 210 0 min 0,000 mm 0,0 UV-I 0 W/m 1,8 C 5,0 C 3,2 km/h (1 Bft) 97,87 %
28.11.2017 17:52 4,9 C 4,4 C 81 % 1008,7 hPa 0,0 l/m 1,0 km/h (0 Bft) S-SW 210 0 min 0,000 mm 0,0 UV-I 0 W/m 1,9 C 4,9 C 3,2 km/h (1 Bft) 100,00 %
28.11.2017 17:54 4,8 C 4,4 C 81 % 1008,6 hPa 0,0 l/m 0,5 km/h (0 Bft) S-SW 210 0 min 0,000 mm 0,0 UV-I 0 W/m 1,8 C 4,8 C 3,2 km/h (1 Bft) 100,00 %
28.11.2017 17:56 4,7 C 4,4 C 82 % 1008,6 hPa 0,0 l/m 2,1 km/h (1 Bft) S-SW 210 0 min 0,000 mm 0,0 UV-I 0 W/m 1,9 C 4,7 C 3,2 km/h (1 Bft) 100,00 %
28.11.2017 17:58 4,5 C 4,4 C 84 % 1008,6 hPa 0,0 l/m 2,8 km/h (1 Bft) S-SW 210 0 min 0,000 mm 0,0 UV-I 0 W/m 2,0 C 4,5 C 3,2 km/h (1 Bft) 100,00 %
28.11.2017 18:00 4,3 C 4,4 C 85 % 1008,5 hPa 0,0 l/m 1,7 km/h (1 Bft) S-SW 210 0 min 0,000 mm 0,0 UV-I 0 W/m 2,0 C 4,3 C 3,2 km/h (1 Bft) 100,00 %
28.11.2017 18:02 4,2 C 4,4 C 85 % 1008,5 hPa 0,0 l/m 3,4 km/h (1 Bft) S-SW 210 0 min 0,000 mm 0,0 UV-I 0 W/m 1,9 C 4,2 C 4,8 km/h (1 Bft) 98,00 %
28.11.2017 18:04 4,2 C 4,4 C 86 % 1008,5 hPa 0,0 l/m 4,4 km/h (1 Bft) S-SW 210 0 min 0,000 mm 0,0 UV-I 0 W/m 2,1 C 4,2 C 4,8 km/h (1 Bft) 100,00 %
28.11.2017 18:06 4,2 C 4,4 C 86 % 1008,5 hPa 0,0 l/m 3,6 km/h (1 Bft) S-SW 210 0 min 0,000 mm 0,0 UV-I 0 W/m 2,1 C 4,2 C 4,8 km/h (1 Bft) 97,87 %
28.11.2017 18:08 4,2 C 4,4 C 86 % 1008,5 hPa 0,0 l/m 4,7 km/h (1 Bft) S-SW 210 0 min 0,000 mm 0,0 UV-I 0 W/m 2,1 C 4,2 C 6,4 km/h (2 Bft) 97,87 %
28.11.2017 18:10 4,2 C 4,4 C 86 % 1008,5 hPa 0,0 l/m 4,2 km/h (1 Bft) S-SW 210 0 min 0,000 mm 0,0 UV-I 0 W/m 2,1 C 4,2 C 4,8 km/h (1 Bft) 100,00 %
28.11.2017 18:12 4,2 C 4,4 C 86 % 1008,5 hPa 0,0 l/m 4,2 km/h (1 Bft) S-SW 210 0 min 0,000 mm 0,0 UV-I 0 W/m 2,1 C 4,2 C 4,8 km/h (1 Bft) 97,87 %
28.11.2017 18:14 4,3 C 4,4 C 86 % 1008,5 hPa 0,0 l/m 2,8 km/h (1 Bft) S-SW 210 0 min 0,000 mm 0,0 UV-I 0 W/m 2,2 C 4,3 C 4,8 km/h (1 Bft) 100,00 %
28.11.2017 18:16 4,3 C 4,4 C 85 % 1008,5 hPa 0,0 l/m 2,4 km/h (1 Bft) S-SW 210 0 min 0,000 mm 0,0 UV-I 0 W/m 2,0 C 4,3 C 3,2 km/h (1 Bft) 100,00 %
28.11.2017 18:18 4,2 C 4,4 C 85 % 1008,5 hPa 0,0 l/m 1,9 km/h (1 Bft) S-SW 210 0 min 0,000 mm 0,0 UV-I 0 W/m 1,9 C 4,2 C 3,2 km/h (1 Bft) 97,87 %
28.11.2017 18:20 4,1 C 4,4 C 86 % 1008,5 hPa 0,0 l/m 2,2 km/h (1 Bft) S-SW 210 0 min 0,000 mm 0,0 UV-I 0 W/m 2,0 C 4,1 C 3,2 km/h (1 Bft) 100,00 %
28.11.2017 18:22 4,0 C 4,4 C 87 % 1008,4 hPa 0,0 l/m 3,7 km/h (1 Bft) S-SW 209 0 min 0,000 mm 0,0 UV-I 0 W/m 2,0 C 4,0 C 4,8 km/h (1 Bft) 100,00 %
28.11.2017 18:24 4,1 C 4,4 C 87 % 1008,3 hPa 0,0 l/m 2,8 km/h (1 Bft) S-SW 209 0 min 0,000 mm 0,0 UV-I 0 W/m 2,1 C 4,1 C 3,2 km/h (1 Bft) 97,87 %
28.11.2017 18:26 4,3 C 4,4 C 85 % 1008,3 hPa 0,0 l/m 2,3 km/h (1 Bft) S-SW 209 0 min 0,000 mm 0,0 UV-I 0 W/m 2,0 C 4,3 C 3,2 km/h (1 Bft) 100,00 %
28.11.2017 18:28 4,2 C 4,4 C 85 % 1008,3 hPa 0,0 l/m 2,1 km/h (1 Bft) S-SW 209 0 min 0,000 mm 0,0 UV-I 0 W/m 1,9 C 4,2 C 3,2 km/h (1 Bft) 100,00 %
28.11.2017 18:30 4,1 C 4,4 C 86 % 1008,3 hPa 0,0 l/m 1,7 km/h (1 Bft) S-SW 209 0 min 0,000 mm 0,0 UV-I 0 W/m 2,0 C 4,1 C 3,2 km/h (1 Bft) 97,87 %
28.11.2017 18:32 4,0 C 4,4 C 87 % 1008,3 hPa 0,0 l/m 3,4 km/h (1 Bft) S-SW 209 0 min 0,000 mm 0,0 UV-I 0 W/m 2,0 C 4,0 C 4,8 km/h (1 Bft) 97,87 %
28.11.2017 18:34 3,8 C 4,4 C 87 % 1008,3 hPa 0,0 l/m 4,2 km/h (1 Bft) S-SW 207 0 min 0,000 mm 0,0 UV-I 0 W/m 1,8 C 3,8 C 6,4 km/h (2 Bft) 100,00 %
28.11.2017 18:36 3,9 C 4,4 C 87 % 1008,3 hPa 0,0 l/m 3,5 km/h (1 Bft) S-SW 207 0 min 0,000 mm 0,0 UV-I 0 W/m 1,9 C 3,9 C 4,8 km/h (1 Bft) 95,74 %
28.11.2017 18:38 3,9 C 4,4 C 87 % 1008,3 hPa 0,0 l/m 1,1 km/h (1 Bft) S-SW 207 0 min 0,000 mm 0,0 UV-I 0 W/m 1,9 C 3,9 C 3,2 km/h (1 Bft) 97,87 %
28.11.2017 18:40 3,9 C 4,4 C 87 % 1008,3 hPa 0,0 l/m 0,0 km/h (0 Bft) S-SW 207 0 min 0,000 mm 0,0 UV-I 0 W/m 1,9 C 3,9 C 1,6 km/h (1 Bft) 97,87 %
28.11.2017 18:42 3,9 C 4,4 C 88 % 1008,2 hPa 0,0 l/m 1,6 km/h (1 Bft) S-SW 207 0 min 0,000 mm 0,0 UV-I 0 W/m 2,1 C 3,9 C 3,2 km/h (1 Bft) 100,00 %
28.11.2017 18:44 3,7 C 4,4 C 88 % 1008,2 hPa 0,0 l/m 2,3 km/h (1 Bft) S-SW 207 0 min 0,000 mm 0,0 UV-I 0 W/m 1,9 C 3,7 C 3,2 km/h (1 Bft) 100,00 %
28.11.2017 18:46 3,6 C 4,4 C 89 % 1008,2 hPa 0,0 l/m 2,7 km/h (1 Bft) S-SW 207 0 min 0,000 mm 0,0 UV-I 0 W/m 2,0 C 3,6 C 3,2 km/h (1 Bft) 100,00 %
28.11.2017 18:48 3,5 C 4,4 C 89 % 1008,2 hPa 0,0 l/m 1,8 km/h (1 Bft) S-SW 207 0 min 0,000 mm 0,0 UV-I 0 W/m 1,9 C 3,5 C 3,2 km/h (1 Bft) 100,00 %
28.11.2017 18:50 3,4 C 4,4 C 90 % 1008,3 hPa 0,0 l/m 0,7 km/h (0 Bft) S-SW 207 0 min 0,000 mm 0,0 UV-I 0 W/m 1,9 C 3,4 C 1,6 km/h (1 Bft) 100,00 %
28.11.2017 18:52 3,4 C 4,4 C 90 % 1008,3 hPa 0,0 l/m 0,0 km/h (0 Bft) S-SW 207 0 min 0,000 mm 0,0 UV-I 0 W/m 1,9 C 3,4 C 0,0 km/h (0 Bft) 100,00 %
28.11.2017 18:54 3,6 C 4,4 C 89 % 1008,2 hPa 0,0 l/m 0,0 km/h (0 Bft) S-SW 207 0 min 0,000 mm 0,0 UV-I 0 W/m 2,0 C 3,6 C 0,0 km/h (0 Bft) 97,87 %
28.11.2017 18:56 3,6 C 4,4 C 88 % 1008,2 hPa 0,0 l/m 0,0 km/h (0 Bft) S-SW 207 0 min 0,000 mm 0,0 UV-I 0 W/m 1,8 C 3,6 C 1,6 km/h (1 Bft) 100,00 %
28.11.2017 18:58 3,7 C 4,4 C 88 % 1008,2 hPa 0,0 l/m 0,0 km/h (0 Bft) S-SW 207 0 min 0,000 mm 0,0 UV-I 0 W/m 1,9 C 3,7 C 0,0 km/h (0 Bft) 100,00 %
28.11.2017 19:00 3,8 C 4,4 C 88 % 1008,2 hPa 0,0 l/m 0,0 km/h (0 Bft) S-SW 207 0 min 0,000 mm 0,0 UV-I 0 W/m 2,0 C 3,8 C 0,0 km/h (0 Bft) 100,00 %
28.11.2017 19:02 3,8 C 4,4 C 88 % 1008,2 hPa 0,0 l/m 0,0 km/h (0 Bft) S-SW 207 0 min 0,000 mm 0,0 UV-I 0 W/m 2,0 C 3,8 C 0,0 km/h (0 Bft) 95,74 %
28.11.2017 19:04 3,7 C 4,4 C 88 % 1008,1 hPa 0,0 l/m 0,0 km/h (0 Bft) S-SW 207 0 min 0,000 mm 0,0 UV-I 0 W/m 1,9 C 3,7 C 0,0 km/h (0 Bft) 97,87 %
28.11.2017 19:06 3,7 C 4,4 C 89 % 1008,1 hPa 0,0 l/m 0,0 km/h (0 Bft) S-SW 207 0 min 0,000 mm 0,0 UV-I 0 W/m 2,1 C 3,7 C 0,0 km/h (0 Bft) 95,74 %
28.11.2017 19:08 3,7 C 4,4 C 89 % 1008,1 hPa 0,0 l/m 1,8 km/h (1 Bft) S-SW 207 0 min 0,000 mm 0,0 UV-I 0 W/m 2,1 C 3,7 C 3,2 km/h (1 Bft) 95,83 %
28.11.2017 19:10 3,8 C 4,4 C 89 % 1008,1 hPa 0,0 l/m 2,2 km/h (1 Bft) S-SW 207 0 min 0,000 mm 0,0 UV-I 0 W/m 2,2 C 3,8 C 3,2 km/h (1 Bft) 95,74 %
28.11.2017 19:13 3,9 C 4,4 C 88 % 1008,0 hPa 0,0 l/m 1,4 km/h (1 Bft) S-SW 207 0 min 0,000 mm 0,0 UV-I 0 W/m 2,1 C 3,9 C 3,2 km/h (1 Bft) 96,72 %
28.11.2017 19:14 3,8 C 4,4 C 88 % 1008,0 hPa 0,0 l/m 0,1 km/h (0 Bft) S-SW 207 0 min 0,000 mm 0,0 UV-I 0 W/m 2,0 C 3,8 C 1,6 km/h (1 Bft) 100,00 %
28.11.2017 19:16 3,8 C 4,4 C 88 % 1008,0 hPa 0,0 l/m 0,9 km/h (0 Bft) S-SW 207 0 min 0,000 mm 0,0 UV-I 0 W/m 2,0 C 3,8 C 3,2 km/h (1 Bft) 95,74 %
28.11.2017 19:18 3,6 C 4,4 C 88 % 1008,1 hPa 0,0 l/m 2,4 km/h (1 Bft) S-SW 207 0 min 0,000 mm 0,0 UV-I 0 W/m 1,8 C 3,6 C 3,2 km/h (1 Bft) 95,74 %
28.11.2017 19:20 3,6 C 4,4 C 89 % 1008,0 hPa 0,0 l/m 3,2 km/h (1 Bft) S-SW 207 0 min 0,000 mm 0,0 UV-I 0 W/m 2,0 C 3,6 C 4,8 km/h (1 Bft) 95,74 %
28.11.2017 19:22 3,6 C 4,4 C 89 % 1008,0 hPa 0,0 l/m 3,4 km/h (1 Bft) S-SW 207 0 min 0,000 mm 0,0 UV-I 0 W/m 2,0 C 3,6 C 4,8 km/h (1 Bft) 97,87 %
28.11.2017 19:24 3,7 C 4,4 C 89 % 1008,0 hPa 0,0 l/m 3,0 km/h (1 Bft) S-SW 207 0 min 0,000 mm 0,0 UV-I 0 W/m 2,1 C 3,7 C 4,8 km/h (1 Bft) 95,74 %
28.11.2017 19:26 3,7 C 4,4 C 89 % 1007,9 hPa 0,0 l/m 2,0 km/h (1 Bft) S-SW 207 0 min 0,000 mm 0,0 UV-I 0 W/m 2,1 C 3,7 C 3,2 km/h (1 Bft) 98,00 %
28.11.2017 19:28 3,7 C 4,4 C 89 % 1007,9 hPa 0,0 l/m 1,8 km/h (1 Bft) S-SW 207 0 min 0,000 mm 0,0 UV-I 0 W/m 2,1 C 3,7 C 3,2 km/h (1 Bft) 97,87 %
28.11.2017 19:30 3,6 C 4,4 C 89 % 1007,9 hPa 0,0 l/m 2,2 km/h (1 Bft) S-SW 207 0 min 0,000 mm 0,0 UV-I 0 W/m 2,0 C 3,6 C 3,2 km/h (1 Bft) 97,87 %
28.11.2017 19:32 3,5 C 4,4 C 90 % 1008,0 hPa 0,0 l/m 3,3 km/h (1 Bft) O 89 0 min 0,000 mm 0,0 UV-I 0 W/m 2,0 C 3,5 C 4,8 km/h (1 Bft) 91,49 %
28.11.2017 19:34 3,6 C 4,4 C 90 % 1008,0 hPa 0,0 l/m 3,4 km/h (1 Bft) O 89 0 min 0,000 mm 0,0 UV-I 0 W/m 2,1 C 3,6 C 4,8 km/h (1 Bft) 95,74 %
28.11.2017 19:36 3,7 C 4,4 C 89 % 1008,0 hPa 0,0 l/m 3,1 km/h (1 Bft) O 89 0 min 0,000 mm 0,0 UV-I 0 W/m 2,1 C 3,7 C 4,8 km/h (1 Bft) 93,62 %
28.11.2017 19:38 3,7 C 4,4 C 89 % 1008,0 hPa 0,0 l/m 3,2 km/h (1 Bft) O 89 0 min 0,000 mm 0,0 UV-I 0 W/m 2,1 C 3,7 C 4,8 km/h (1 Bft) 97,87 %
28.11.2017 19:40 3,7 C 4,4 C 89 % 1007,9 hPa 0,0 l/m 3,5 km/h (1 Bft) O 89 0 min 0,000 mm 0,0 UV-I 0 W/m 2,1 C 3,7 C 6,4 km/h (2 Bft) 100,00 %
28.11.2017 19:42 3,7 C 4,4 C 88 % 1007,9 hPa 0,0 l/m 3,9 km/h (1 Bft) O 89 0 min 0,000 mm 0,0 UV-I 0 W/m 1,9 C 3,7 C 4,8 km/h (1 Bft) 100,00 %
28.11.2017 19:44 3,5 C 4,4 C 89 % 1007,9 hPa 0,0 l/m 2,6 km/h (1 Bft) O 89 0 min 0,000 mm 0,0 UV-I 0 W/m 1,9 C 3,5 C 4,8 km/h (1 Bft) 97,87 %
28.11.2017 19:46 3,4 C 4,4 C 89 % 1007,9 hPa 0,0 l/m 0,5 km/h (0 Bft) O 89 0 min 0,000 mm 0,0 UV-I 0 W/m 1,8 C 3,4 C 1,6 km/h (1 Bft) 100,00 %
28.11.2017 19:48 3,3 C 4,4 C 90 % 1007,9 hPa 0,0 l/m 0,2 km/h (0 Bft) O 89 0 min 0,000 mm 0,0 UV-I 0 W/m 1,8 C 3,3 C 3,2 km/h (1 Bft) 100,00 %
28.11.2017 19:50 3,3 C 4,4 C 90 % 1007,9 hPa 0,0 l/m 1,6 km/h (1 Bft) O 89 0 min 0,000 mm 0,0 UV-I 0 W/m 1,8 C 3,3 C 3,2 km/h (1 Bft) 97,87 %
28.11.2017 19:52 3,2 C 4,4 C 90 % 1007,9 hPa 0,0 l/m 1,4 km/h (1 Bft) O 89 0 min 0,000 mm 0,0 UV-I 0 W/m 1,7 C 3,2 C 3,2 km/h (1 Bft) 100,00 %
28.11.2017 19:54 3,2 C 4,4 C 90 % 1007,8 hPa 0,0 l/m 1,6 km/h (1 Bft) O 89 0 min 0,000 mm 0,0 UV-I 0 W/m 1,7 C 3,2 C 3,2 km/h (1 Bft) 100,00 %
28.11.2017 19:56 3,0 C 4,4 C 90 % 1007,8 hPa 0,0 l/m 2,0 km/h (1 Bft) O 90 0 min 0,000 mm 0,0 UV-I 0 W/m 1,5 C 3,0 C 3,2 km/h (1 Bft) 97,87 %
28.11.2017 19:58 2,9 C 4,4 C 91 % 1007,9 hPa 0,0 l/m 4,3 km/h (1 Bft) SO 142 0 min 0,000 mm 0,0 UV-I 0 W/m 1,6 C 2,9 C 8,0 km/h (2 Bft) 100,00 %
28.11.2017 20:00 3,1 C 4,4 C 91 % 1007,9 hPa 0,0 l/m 2,2 km/h (1 Bft) SO 138 0 min 0,000 mm 0,0 UV-I 0 W/m 1,8 C 3,1 C 4,8 km/h (1 Bft) 100,00 %
28.11.2017 20:02 3,2 C 4,4 C 90 % 1007,9 hPa 0,0 l/m 1,3 km/h (1 Bft) SO 138 0 min 0,000 mm 0,0 UV-I 0 W/m 1,7 C 3,2 C 3,2 km/h (1 Bft) 97,87 %
28.11.2017 20:04 3,3 C 4,4 C 90 % 1007,9 hPa 0,0 l/m 2,5 km/h (1 Bft) SO 138 0 min 0,000 mm 0,0 UV-I 0 W/m 1,8 C 3,3 C 4,8 km/h (1 Bft) 95,74 %
28.11.2017 20:06 3,3 C 4,4 C 89 % 1007,9 hPa 0,0 l/m 1,4 km/h (1 Bft) SO 138 0 min 0,000 mm 0,0 UV-I 0 W/m 1,7 C 3,3 C 3,2 km/h (1 Bft) 97,87 %
28.11.2017 20:08 3,2 C 4,4 C 89 % 1007,9 hPa 0,0 l/m 0,7 km/h (0 Bft) SO 138 0 min 0,000 mm 0,0 UV-I 0 W/m 1,6 C 3,2 C 3,2 km/h (1 Bft) 100,00 %
28.11.2017 20:10 3,2 C 4,4 C 90 % 1007,9 hPa 0,0 l/m 0,4 km/h (0 Bft) SO 138 0 min 0,000 mm 0,0 UV-I 0 W/m 1,7 C 3,2 C 1,6 km/h (1 Bft) 97,87 %
28.11.2017 20:12 3,1 C 4,4 C 90 % 1007,9 hPa 0,0 l/m 1,0 km/h (0 Bft) SO 138 0 min 0,000 mm 0,0 UV-I 0 W/m 1,6 C 3,1 C 3,2 km/h (1 Bft) 95,74 %
28.11.2017 20:14 3,1 C 4,4 C 90 % 1007,9 hPa 0,0 l/m 1,3 km/h (1 Bft) SO 138 0 min 0,000 mm 0,0 UV-I 0 W/m 1,6 C 3,1 C 4,8 km/h (1 Bft) 100,00 %
28.11.2017 20:16 3,2 C 4,4 C 90 % 1007,9 hPa 0,0 l/m 0,0 km/h (0 Bft) SO 138 0 min 0,000 mm 0,0 UV-I 0 W/m 1,7 C 3,2 C 0,0 km/h (0 Bft) 96,00 %
28.11.2017 20:18 3,2 C 4,4 C 90 % 1007,9 hPa 0,0 l/m 0,0 km/h (0 Bft) SO 138 0 min 0,000 mm 0,0 UV-I 0 W/m 1,7 C 3,2 C 0,0 km/h (0 Bft) 97,87 %
28.11.2017 20:20 3,2 C 4,4 C 90 % 1007,9 hPa 0,0 l/m 0,0 km/h (0 Bft) SO 138 0 min 0,000 mm 0,0 UV-I 0 W/m 1,7 C 3,2 C 0,0 km/h (0 Bft) 97,87 %
28.11.2017 20:22 3,1 C 4,4 C 90 % 1007,8 hPa 0,0 l/m 0,9 km/h (0 Bft) SO 138 0 min 0,000 mm 0,0 UV-I 0 W/m 1,6 C 3,1 C 3,2 km/h (1 Bft) 100,00 %
28.11.2017 20:24 3,1 C 4,4 C 91 % 1007,8 hPa 0,0 l/m 0,0 km/h (0 Bft) SO 138 0 min 0,000 mm 0,0 UV-I 0 W/m 1,8 C 3,1 C 0,0 km/h (0 Bft) 100,00 %
28.11.2017 20:26 3,1 C 4,4 C 91 % 1007,8 hPa 0,0 l/m 0,0 km/h (0 Bft) SO 138 0 min 0,000 mm 0,0 UV-I 0 W/m 1,8 C 3,1 C 0,0 km/h (0 Bft) 97,87 %
28.11.2017 20:28 3,1 C 4,4 C 91 % 1007,9 hPa 0,0 l/m 1,5 km/h (1 Bft) SO 138 0 min 0,000 mm 0,0 UV-I 0 W/m 1,8 C 3,1 C 3,2 km/h (1 Bft) 100,00 %
28.11.2017 20:30 3,2 C 4,4 C 90 % 1007,8 hPa 0,0 l/m 1,6 km/h (1 Bft) SO 138 0 min 0,000 mm 0,0 UV-I 0 W/m 1,7 C 3,2 C 3,2 km/h (1 Bft) 97,87 %
28.11.2017 20:32 3,2 C 4,4 C 90 % 1007,8 hPa 0,0 l/m 1,5 km/h (1 Bft) SO 138 0 min 0,000 mm 0,0 UV-I 0 W/m 1,7 C 3,2 C 3,2 km/h (1 Bft) 91,49 %
28.11.2017 20:34 3,3 C 4,4 C 90 % 1007,8 hPa 0,0 l/m 0,9 km/h (0 Bft) SO 138 0 min 0,000 mm 0,0 UV-I 0 W/m 1,8 C 3,3 C 3,2 km/h (1 Bft) 97,87 %
28.11.2017 20:36 3,3 C 4,4 C 90 % 1007,8 hPa 0,0 l/m 0,0 km/h (0 Bft) SO 138 0 min 0,000 mm 0,0 UV-I 0 W/m 1,8 C 3,3 C 0,0 km/h (0 Bft) 97,87 %
28.11.2017 20:38 3,3 C 4,4 C 90 % 1007,8 hPa 0,0 l/m 0,0 km/h (0 Bft) SO 138 0 min 0,000 mm 0,0 UV-I 0 W/m 1,8 C 3,3 C 0,0 km/h (0 Bft) 95,74 %
28.11.2017 20:40 3,2 C 4,4 C 90 % 1007,8 hPa 0,0 l/m 0,9 km/h (0 Bft) SO 138 0 min 0,000 mm 0,0 UV-I 0 W/m 1,7 C 3,2 C 3,2 km/h (1 Bft) 97,87 %
28.11.2017 20:42 3,2 C 4,4 C 90 % 1007,8 hPa 0,0 l/m 1,0 km/h (0 Bft) SO 138 0 min 0,000 mm 0,0 UV-I 0 W/m 1,7 C 3,2 C 3,2 km/h (1 Bft) 97,30 %
28.11.2017 20:44 3,3 C 4,4 C 90 % 1007,7 hPa 0,0 l/m 0,5 km/h (0 Bft) SO 138 0 min 0,000 mm 0,0 UV-I 0 W/m 1,8 C 3,3 C 3,2 km/h (1 Bft) 98,08 %
28.11.2017 20:46 3,3 C 4,4 C 90 % 1007,7 hPa 0,0 l/m 2,7 km/h (1 Bft) SO 138 0 min 0,000 mm 0,0 UV-I 0 W/m 1,8 C 3,3 C 3,2 km/h (1 Bft) 97,87 %
28.11.2017 20:48 3,3 C 4,4 C 90 % 1007,7 hPa 0,0 l/m 2,5 km/h (1 Bft) SO 138 0 min 0,000 mm 0,0 UV-I 0 W/m 1,8 C 3,3 C 3,2 km/h (1 Bft) 93,62 %
28.11.2017 20:50 3,3 C 4,4 C 90 % 1007,7 hPa 0,0 l/m 1,5 km/h (1 Bft) SO 138 0 min 0,000 mm 0,0 UV-I 0 W/m 1,8 C 3,3 C 3,2 km/h (1 Bft) 98,00 %
28.11.2017 20:52 3,3 C 4,4 C 90 % 1007,7 hPa 0,0 l/m 0,0 km/h (0 Bft) SO 138 0 min 0,000 mm 0,0 UV-I 0 W/m 1,8 C 3,3 C 0,0 km/h (0 Bft) 97,37 %
28.11.2017 20:54 3,3 C 4,4 C 90 % 1007,6 hPa 0,0 l/m 0,0 km/h (0 Bft) SO 138 0 min 0,000 mm 0,0 UV-I 0 W/m 1,8 C 3,3 C 1,6 km/h (1 Bft) 97,87 %
28.11.2017 20:56 3,2 C 4,4 C 90 % 1007,6 hPa 0,0 l/m 0,7 km/h (0 Bft) SO 138 0 min 0,000 mm 0,0 UV-I 0 W/m 1,7 C 3,2 C 3,2 km/h (1 Bft) 98,00 %
28.11.2017 20:58 3,3 C 4,4 C 90 % 1007,7 hPa 0,0 l/m 2,4 km/h (1 Bft) SO 138 0 min 0,000 mm 0,0 UV-I 0 W/m 1,8 C 3,3 C 3,2 km/h (1 Bft) 98,11 %
28.11.2017 21:00 3,3 C 4,4 C 90 % 1007,6 hPa 0,0 l/m 3,1 km/h (1 Bft) SO 138 0 min 0,000 mm 0,0 UV-I 0 W/m 1,8 C 3,3 C 4,8 km/h (1 Bft) 97,87 %
28.11.2017 21:02 3,2 C 4,4 C 90 % 1007,7 hPa 0,0 l/m 2,6 km/h (1 Bft) SO 138 0 min 0,000 mm 0,0 UV-I 0 W/m 1,7 C 3,2 C 3,2 km/h (1 Bft) 97,37 %
28.11.2017 21:04 3,2 C 4,4 C 90 % 1007,6 hPa 0,0 l/m 1,4 km/h (1 Bft) SO 138 0 min 0,000 mm 0,0 UV-I 0 W/m 1,7 C 3,2 C 3,2 km/h (1 Bft) 97,87 %
28.11.2017 21:06 3,2 C 4,4 C 90 % 1007,6 hPa 0,0 l/m 1,6 km/h (1 Bft) SO 138 0 min 0,000 mm 0,0 UV-I 0 W/m 1,7 C 3,2 C 3,2 km/h (1 Bft) 97,87 %
28.11.2017 21:08 3,3 C 4,4 C 90 % 1007,5 hPa 0,0 l/m 1,5 km/h (1 Bft) SO 138 0 min 0,000 mm 0,0 UV-I 0 W/m 1,8 C 3,3 C 3,2 km/h (1 Bft) 97,87 %
28.11.2017 21:10 3,2 C 4,4 C 90 % 1007,5 hPa 0,0 l/m 0,0 km/h (0 Bft) SO 138 0 min 0,000 mm 0,0 UV-I 0 W/m 1,7 C 3,2 C 0,0 km/h (0 Bft) 98,00 %
28.11.2017 21:12 3,2 C 4,4 C 90 % 1007,5 hPa 0,0 l/m 0,1 km/h (0 Bft) SO 138 0 min 0,000 mm 0,0 UV-I 0 W/m 1,7 C 3,2 C 1,6 km/h (1 Bft) 95,92 %
28.11.2017 21:14 3,1 C 4,4 C 91 % 1007,5 hPa 0,0 l/m 0,1 km/h (0 Bft) SO 138 0 min 0,000 mm 0,0 UV-I 0 W/m 1,8 C 3,1 C 1,6 km/h (1 Bft) 95,74 %
28.11.2017 21:16 3,0 C 4,4 C 91 % 1007,5 hPa 0,0 l/m 1,4 km/h (1 Bft) SO 138 0 min 0,000 mm 0,0 UV-I 0 W/m 1,7 C 3,0 C 3,2 km/h (1 Bft) 93,62 %
28.11.2017 21:18 3,0 C 4,4 C 92 % 1007,5 hPa 0,0 l/m 2,2 km/h (1 Bft) SO 138 0 min 0,000 mm 0,0 UV-I 0 W/m 1,8 C 3,0 C 3,2 km/h (1 Bft) 93,62 %
28.11.2017 21:20 3,1 C 4,4 C 91 % 1007,4 hPa 0,0 l/m 2,2 km/h (1 Bft) SO 138 0 min 0,000 mm 0,0 UV-I 0 W/m 1,8 C 3,1 C 4,8 km/h (1 Bft) 93,88 %
28.11.2017 21:22 3,1 C 4,4 C 91 % 1007,4 hPa 0,0 l/m 2,1 km/h (1 Bft) SO 138 0 min 0,000 mm 0,0 UV-I 0 W/m 1,8 C 3,1 C 3,2 km/h (1 Bft) 95,74 %
28.11.2017 21:24 3,1 C 4,4 C 91 % 1007,3 hPa 0,0 l/m 1,8 km/h (1 Bft) SO 138 0 min 0,000 mm 0,0 UV-I 0 W/m 1,8 C 3,1 C 3,2 km/h (1 Bft) 94,74 %
28.11.2017 21:26 2,9 C 4,4 C 90 % 1007,3 hPa 0,0 l/m 1,5 km/h (1 Bft) SO 138 0 min 0,000 mm 0,0 UV-I 0 W/m 1,4 C 2,9 C 3,2 km/h (1 Bft) 96,00 %
28.11.2017 21:28 2,9 C 4,4 C 91 % 1007,3 hPa 0,0 l/m 1,3 km/h (1 Bft) SO 138 0 min 0,000 mm 0,0 UV-I 0 W/m 1,6 C 2,9 C 3,2 km/h (1 Bft) 88,57 %
28.11.2017 21:30 2,9 C 4,4 C 91 % 1007,3 hPa 0,0 l/m 1,3 km/h (1 Bft) SO 138 0 min 0,000 mm 0,0 UV-I 0 W/m 1,6 C 2,9 C 3,2 km/h (1 Bft) 96,88 %
28.11.2017 21:32 2,9 C 4,4 C 91 % 1007,3 hPa 0,0 l/m 1,5 km/h (1 Bft) SO 138 0 min 0,000 mm 0,0 UV-I 0 W/m 1,6 C 2,9 C 3,2 km/h (1 Bft) 91,49 %
28.11.2017 21:34 3,0 C 4,4 C 91 % 1007,3 hPa 0,0 l/m 0,4 km/h (0 Bft) SO 138 0 min 0,000 mm 0,0 UV-I 0 W/m 1,7 C 3,0 C 1,6 km/h (1 Bft) 95,74 %
28.11.2017 21:36 3,0 C 4,4 C 91 % 1007,3 hPa 0,0 l/m 2,0 km/h (1 Bft) SO 138 0 min 0,000 mm 0,0 UV-I 0 W/m 1,7 C 3,0 C 3,2 km/h (1 Bft) 93,62 %
28.11.2017 21:38 3,0 C 4,4 C 91 % 1007,3 hPa 0,0 l/m 2,6 km/h (1 Bft) SO 138 0 min 0,000 mm 0,0 UV-I 0 W/m 1,7 C 3,0 C 3,2 km/h (1 Bft) 95,74 %
28.11.2017 21:40 3,0 C 4,4 C 91 % 1007,2 hPa 0,0 l/m 2,6 km/h (1 Bft) SO 138 0 min 0,000 mm 0,0 UV-I 0 W/m 1,7 C 3,0 C 3,2 km/h (1 Bft) 95,74 %
28.11.2017 21:42 2,9 C 4,4 C 91 % 1007,2 hPa 0,0 l/m 3,0 km/h (1 Bft) SO 138 0 min 0,000 mm 0,0 UV-I 0 W/m 1,6 C 2,9 C 4,8 km/h (1 Bft) 95,74 %
28.11.2017 21:44 2,9 C 4,4 C 91 % 1007,2 hPa 0,0 l/m 3,1 km/h (1 Bft) SO 138 0 min 0,000 mm 0,0 UV-I 0 W/m 1,6 C 2,9 C 4,8 km/h (1 Bft) 97,87 %
28.11.2017 21:46 2,9 C 4,4 C 91 % 1007,2 hPa 0,0 l/m 3,7 km/h (1 Bft) SO 138 0 min 0,000 mm 0,0 UV-I 0 W/m 1,6 C 2,9 C 4,8 km/h (1 Bft) 95,83 %
28.11.2017 21:48 2,9 C 4,4 C 91 % 1007,3 hPa 0,0 l/m 3,1 km/h (1 Bft) SO 138 0 min 0,000 mm 0,0 UV-I 0 W/m 1,6 C 2,9 C 4,8 km/h (1 Bft) 93,62 %
28.11.2017 21:50 2,8 C 4,4 C 91 % 1007,3 hPa 0,0 l/m 2,2 km/h (1 Bft) SO 138 0 min 0,000 mm 0,0 UV-I 0 W/m 1,5 C 2,8 C 3,2 km/h (1 Bft) 97,37 %
28.11.2017 21:52 2,7 C 4,4 C 91 % 1007,3 hPa 0,0 l/m 0,8 km/h (0 Bft) SO 138 0 min 0,000 mm 0,0 UV-I 0 W/m 1,4 C 2,7 C 3,2 km/h (1 Bft) 97,87 %
28.11.2017 21:54 2,6 C 4,4 C 91 % 1007,3 hPa 0,0 l/m 0,1 km/h (0 Bft) SO 138 0 min 0,000 mm 0,0 UV-I 0 W/m 1,3 C 2,6 C 1,6 km/h (1 Bft) 100,00 %
28.11.2017 21:56 2,6 C 4,4 C 92 % 1007,3 hPa 0,0 l/m 1,5 km/h (1 Bft) SO 138 0 min 0,000 mm 0,0 UV-I 0 W/m 1,4 C 2,6 C 3,2 km/h (1 Bft) 100,00 %
28.11.2017 21:58 2,5 C 4,4 C 92 % 1007,3 hPa 0,0 l/m 1,2 km/h (1 Bft) SO 138 0 min 0,000 mm 0,0 UV-I 0 W/m 1,3 C 2,5 C 3,2 km/h (1 Bft) 100,00 %
28.11.2017 22:00 2,4 C 4,4 C 92 % 1007,3 hPa 0,0 l/m 0,9 km/h (0 Bft) SO 138 0 min 0,000 mm 0,0 UV-I 0 W/m 1,2 C 2,4 C 3,2 km/h (1 Bft) 97,87 %
28.11.2017 22:02 2,3 C 4,4 C 92 % 1007,3 hPa 0,0 l/m 0,0 km/h (0 Bft) SO 138 0 min 0,000 mm 0,0 UV-I 0 W/m 1,1 C 2,3 C 0,0 km/h (0 Bft) 98,00 %
28.11.2017 22:04 2,3 C 4,4 C 92 % 1007,3 hPa 0,0 l/m 0,0 km/h (0 Bft) SO 138 0 min 0,000 mm 0,0 UV-I 0 W/m 1,1 C 2,3 C 0,0 km/h (0 Bft) 97,87 %
28.11.2017 22:06 2,2 C 4,4 C 92 % 1007,3 hPa 0,0 l/m 0,0 km/h (0 Bft) SO 138 0 min 0,000 mm 0,0 UV-I 0 W/m 1,0 C 2,2 C 0,0 km/h (0 Bft) 100,00 %
28.11.2017 22:08 2,2 C 4,4 C 93 % 1007,3 hPa 0,0 l/m 0,0 km/h (0 Bft) SO 138 0 min 0,000 mm 0,0 UV-I 0 W/m 1,2 C 2,2 C 0,0 km/h (0 Bft) 97,87 %
28.11.2017 22:10 2,0 C 4,4 C 92 % 1007,3 hPa 0,0 l/m 0,0 km/h (0 Bft) SO 138 0 min 0,000 mm 0,0 UV-I 0 W/m 0,8 C 2,0 C 0,0 km/h (0 Bft) 97,87 %
28.11.2017 22:12 2,0 C 4,4 C 93 % 1007,3 hPa 0,0 l/m 0,0 km/h (0 Bft) SO 138 0 min 0,000 mm 0,0 UV-I 0 W/m 1,0 C 2,0 C 0,0 km/h (0 Bft) 100,00 %
28.11.2017 22:14 1,9 C 4,4 C 93 % 1007,3 hPa 0,0 l/m 0,0 km/h (0 Bft) SO 138 0 min 0,000 mm 0,0 UV-I 0 W/m 0,9 C 1,9 C 1,6 km/h (1 Bft) 95,74 %
28.11.2017 22:16 1,8 C 4,4 C 93 % 1007,4 hPa 0,0 l/m 1,0 km/h (0 Bft) SO 138 0 min 0,000 mm 0,0 UV-I 0 W/m 0,8 C 1,8 C 3,2 km/h (1 Bft) 100,00 %
28.11.2017 22:18 1,8 C 4,4 C 93 % 1007,3 hPa 0,0 l/m 2,3 km/h (1 Bft) SO 138 0 min 0,000 mm 0,0 UV-I 0 W/m 0,8 C 1,8 C 3,2 km/h (1 Bft) 100,00 %
28.11.2017 22:20 1,8 C 4,4 C 94 % 1007,3 hPa 0,0 l/m 1,8 km/h (1 Bft) SO 138 0 min 0,000 mm 0,0 UV-I 0 W/m 0,9 C 1,8 C 3,2 km/h (1 Bft) 100,00 %
28.11.2017 22:22 1,9 C 4,4 C 94 % 1007,3 hPa 0,0 l/m 2,1 km/h (1 Bft) SO 138 0 min 0,000 mm 0,0 UV-I 0 W/m 1,0 C 1,9 C 3,2 km/h (1 Bft) 100,00 %
28.11.2017 22:24 1,9 C 4,4 C 95 % 1007,3 hPa 0,0 l/m 1,5 km/h (1 Bft) SO 138 0 min 0,000 mm 0,0 UV-I 0 W/m 1,2 C 1,9 C 1,6 km/h (1 Bft) 97,87 %
28.11.2017 22:26 1,9 C 4,4 C 95 % 1007,3 hPa 0,0 l/m 0,5 km/h (0 Bft) SO 138 0 min 0,000 mm 0,0 UV-I 0 W/m 1,2 C 1,9 C 1,6 km/h (1 Bft) 100,00 %
28.11.2017 22:28 1,7 C 4,4 C 94 % 1007,3 hPa 0,0 l/m 0,0 km/h (0 Bft) SO 138 0 min 0,000 mm 0,0 UV-I 0 W/m 0,8 C 1,7 C 0,0 km/h (0 Bft) 100,00 %
28.11.2017 22:30 1,6 C 4,4 C 94 % 1007,3 hPa 0,0 l/m 0,0 km/h (0 Bft) SO 138 0 min 0,000 mm 0,0 UV-I 0 W/m 0,7 C 1,6 C 0,0 km/h (0 Bft) 100,00 %
28.11.2017 22:32 1,4 C 4,4 C 94 % 1007,3 hPa 0,0 l/m 0,0 km/h (0 Bft) SO 138 0 min 0,000 mm 0,0 UV-I 0 W/m 0,5 C 1,4 C 0,0 km/h (0 Bft) 100,00 %
28.11.2017 22:34 1,4 C 4,4 C 94 % 1007,3 hPa 0,0 l/m 0,0 km/h (0 Bft) SO 138 0 min 0,000 mm 0,0 UV-I 0 W/m 0,5 C 1,4 C 0,0 km/h (0 Bft) 95,74 %
28.11.2017 22:36 1,4 C 4,4 C 94 % 1007,2 hPa 0,0 l/m 0,0 km/h (0 Bft) SO 138 0 min 0,000 mm 0,0 UV-I 0 W/m 0,5 C 1,4 C 0,0 km/h (0 Bft) 100,00 %
28.11.2017 22:38 1,3 C 4,4 C 94 % 1007,2 hPa 0,0 l/m 0,0 km/h (0 Bft) SO 138 0 min 0,000 mm 0,0 UV-I 0 W/m 0,4 C 1,3 C 0,0 km/h (0 Bft) 93,62 %
28.11.2017 22:40 1,3 C 4,4 C 94 % 1007,2 hPa 0,0 l/m 0,0 km/h (0 Bft) SO 138 0 min 0,000 mm 0,0 UV-I 0 W/m 0,4 C 1,3 C 1,6 km/h (1 Bft) 100,00 %
28.11.2017 22:42 1,3 C 4,4 C 95 % 1007,2 hPa 0,0 l/m 0,0 km/h (0 Bft) SO 138 0 min 0,000 mm 0,0 UV-I 0 W/m 0,6 C 1,3 C 0,0 km/h (0 Bft) 100,00 %
28.11.2017 22:44 1,2 C 4,4 C 94 % 1007,1 hPa 0,0 l/m 1,1 km/h (1 Bft) SO 138 0 min 0,000 mm 0,0 UV-I 0 W/m 0,3 C 1,2 C 3,2 km/h (1 Bft) 97,87 %
28.11.2017 22:46 1,2 C 4,4 C 95 % 1007,1 hPa 0,0 l/m 2,2 km/h (1 Bft) SO 138 0 min 0,000 mm 0,0 UV-I 0 W/m 0,5 C 1,2 C 3,2 km/h (1 Bft) 100,00 %
28.11.2017 22:48 1,3 C 4,4 C 95 % 1007,1 hPa 0,0 l/m 2,7 km/h (1 Bft) SO 138 0 min 0,000 mm 0,0 UV-I 0 W/m 0,6 C 1,3 C 3,2 km/h (1 Bft) 100,00 %
28.11.2017 22:50 1,3 C 4,4 C 95 % 1007,1 hPa 0,0 l/m 2,4 km/h (1 Bft) SO 138 0 min 0,000 mm 0,0 UV-I 0 W/m 0,6 C 1,3 C 3,2 km/h (1 Bft) 100,00 %
28.11.2017 22:52 1,3 C 4,4 C 95 % 1007,1 hPa 0,0 l/m 2,2 km/h (1 Bft) SO 138 0 min 0,000 mm 0,0 UV-I 0 W/m 0,6 C 1,3 C 3,2 km/h (1 Bft) 97,87 %
28.11.2017 22:54 1,3 C 4,4 C 95 % 1007,1 hPa 0,0 l/m 1,5 km/h (1 Bft) SO 138 0 min 0,000 mm 0,0 UV-I 0 W/m 0,6 C 1,3 C 3,2 km/h (1 Bft) 97,87 %
28.11.2017 22:56 1,2 C 4,4 C 95 % 1007,1 hPa 0,0 l/m 1,8 km/h (1 Bft) SO 138 0 min 0,000 mm 0,0 UV-I 0 W/m 0,5 C 1,2 C 3,2 km/h (1 Bft) 97,87 %
28.11.2017 22:58 1,0 C 4,4 C 94 % 1007,1 hPa 0,0 l/m 2,0 km/h (1 Bft) SO 138 0 min 0,000 mm 0,0 UV-I 0 W/m 0,1 C 1,0 C 3,2 km/h (1 Bft) 93,62 %
28.11.2017 23:00 0,9 C 4,4 C 95 % 1007,1 hPa 0,0 l/m 1,8 km/h (1 Bft) SO 138 0 min 0,000 mm 0,0 UV-I 0 W/m 0,2 C 0,9 C 3,2 km/h (1 Bft) 100,00 %
28.11.2017 23:02 0,9 C 4,4 C 95 % 1007,1 hPa 0,0 l/m 1,1 km/h (1 Bft) SO 138 0 min 0,000 mm 0,0 UV-I 0 W/m 0,2 C 0,9 C 1,6 km/h (1 Bft) 97,87 %
28.11.2017 23:04 0,8 C 4,4 C 95 % 1007,1 hPa 0,0 l/m 1,5 km/h (1 Bft) SO 138 0 min 0,000 mm 0,0 UV-I 0 W/m 0,1 C 0,8 C 3,2 km/h (1 Bft) 100,00 %
28.11.2017 23:06 0,8 C 4,4 C 95 % 1007,1 hPa 0,0 l/m 0,4 km/h (0 Bft) SO 138 0 min 0,000 mm 0,0 UV-I 0 W/m 0,1 C 0,8 C 1,6 km/h (1 Bft) 97,87 %
28.11.2017 23:08 1,0 C 4,4 C 96 % 1007,1 hPa 0,0 l/m 0,0 km/h (0 Bft) SO 138 0 min 0,000 mm 0,0 UV-I 0 W/m 0,4 C 1,0 C 0,0 km/h (0 Bft) 100,00 %
28.11.2017 23:10 1,0 C 4,4 C 95 % 1007,1 hPa 0,0 l/m 0,0 km/h (0 Bft) SO 138 0 min 0,000 mm 0,0 UV-I 0 W/m 0,3 C 1,0 C 0,0 km/h (0 Bft) 100,00 %
28.11.2017 23:12 1,0 C 4,4 C 95 % 1007,1 hPa 0,0 l/m 0,0 km/h (0 Bft) SO 138 0 min 0,000 mm 0,0 UV-I 0 W/m 0,3 C 1,0 C 0,0 km/h (0 Bft) 100,00 %
28.11.2017 23:14 1,1 C 4,4 C 96 % 1007,0 hPa 0,0 l/m 0,0 km/h (0 Bft) SO 138 0 min 0,000 mm 0,0 UV-I 0 W/m 0,5 C 1,1 C 0,0 km/h (0 Bft) 100,00 %
28.11.2017 23:16 1,2 C 4,4 C 96 % 1007,0 hPa 0,0 l/m 0,0 km/h (0 Bft) SO 138 0 min 0,000 mm 0,0 UV-I 0 W/m 0,6 C 1,2 C 0,0 km/h (0 Bft) 100,00 %
28.11.2017 23:18 1,3 C 4,4 C 96 % 1007,0 hPa 0,0 l/m 0,0 km/h (0 Bft) SO 138 0 min 0,000 mm 0,0 UV-I 0 W/m 0,7 C 1,3 C 0,0 km/h (0 Bft) 97,87 %
28.11.2017 23:20 1,3 C 4,4 C 95 % 1007,0 hPa 0,0 l/m 0,0 km/h (0 Bft) SO 138 0 min 0,000 mm 0,0 UV-I 0 W/m 0,6 C 1,3 C 0,0 km/h (0 Bft) 100,00 %
28.11.2017 23:22 1,2 C 4,4 C 95 % 1007,0 hPa 0,0 l/m 0,0 km/h (0 Bft) SO 138 0 min 0,000 mm 0,0 UV-I 0 W/m 0,5 C 1,2 C 0,0 km/h (0 Bft) 97,87 %
28.11.2017 23:24 1,1 C 4,4 C 95 % 1007,0 hPa 0,0 l/m 0,2 km/h (0 Bft) SO 138 0 min 0,000 mm 0,0 UV-I 0 W/m 0,4 C 1,1 C 1,6 km/h (1 Bft) 97,87 %
28.11.2017 23:26 0,9 C 4,4 C 95 % 1007,0 hPa 0,0 l/m 0,6 km/h (0 Bft) SO 138 0 min 0,000 mm 0,0 UV-I 0 W/m 0,2 C 0,9 C 1,6 km/h (1 Bft) 97,87 %
28.11.2017 23:29 0,8 C 4,4 C 95 % 1007,0 hPa 0,0 l/m 0,0 km/h (0 Bft) SO 138 0 min 0,000 mm 0,0 UV-I 0 W/m 0,1 C 0,8 C 0,0 km/h (0 Bft) 95,77 %
28.11.2017 23:30 0,9 C 4,4 C 95 % 1007,0 hPa 0,0 l/m 0,5 km/h (0 Bft) SO 138 0 min 0,000 mm 0,0 UV-I 0 W/m 0,2 C 0,9 C 1,6 km/h (1 Bft) 100,00 %
28.11.2017 23:32 0,9 C 4,4 C 95 % 1007,0 hPa 0,0 l/m 2,9 km/h (1 Bft) SO 138 0 min 0,000 mm 0,0 UV-I 0 W/m 0,2 C 0,9 C 4,8 km/h (1 Bft) 97,37 %
28.11.2017 23:34 0,9 C 4,4 C 96 % 1007,0 hPa 0,0 l/m 3,8 km/h (1 Bft) SO 138 0 min 0,000 mm 0,0 UV-I 0 W/m 0,3 C 0,9 C 4,8 km/h (1 Bft) 97,87 %
28.11.2017 23:36 0,9 C 4,4 C 95 % 1007,0 hPa 0,0 l/m 3,9 km/h (1 Bft) SO 138 0 min 0,000 mm 0,0 UV-I 0 W/m 0,2 C 0,9 C 4,8 km/h (1 Bft) 95,74 %
28.11.2017 23:38 0,9 C 4,4 C 95 % 1007,0 hPa 0,0 l/m 4,0 km/h (1 Bft) SO 138 0 min 0,000 mm 0,0 UV-I 0 W/m 0,2 C 0,9 C 4,8 km/h (1 Bft) 98,00 %
28.11.2017 23:40 0,9 C 4,4 C 95 % 1007,0 hPa 0,0 l/m 3,3 km/h (1 Bft) SO 138 0 min 0,000 mm 0,0 UV-I 0 W/m 0,2 C 0,9 C 4,8 km/h (1 Bft) 97,92 %
28.11.2017 23:42 0,9 C 4,4 C 95 % 1007,0 hPa 0,0 l/m 3,0 km/h (1 Bft) SO 138 0 min 0,000 mm 0,0 UV-I 0 W/m 0,2 C 0,9 C 3,2 km/h (1 Bft) 97,87 %
28.11.2017 23:44 0,8 C 4,4 C 95 % 1007,0 hPa 0,0 l/m 2,5 km/h (1 Bft) SO 138 0 min 0,000 mm 0,0 UV-I 0 W/m 0,1 C 0,8 C 3,2 km/h (1 Bft) 95,74 %
28.11.2017 23:46 0,7 C 4,4 C 95 % 1007,0 hPa 0,0 l/m 2,6 km/h (1 Bft) SO 138 0 min 0,000 mm 0,0 UV-I 0 W/m -0,0 C 0,7 C 3,2 km/h (1 Bft) 98,00 %
28.11.2017 23:48 0,6 C 4,4 C 95 % 1007,0 hPa 0,0 l/m 2,4 km/h (1 Bft) SO 138 0 min 0,000 mm 0,0 UV-I 0 W/m -0,1 C 0,6 C 3,2 km/h (1 Bft) 95,74 %
28.11.2017 23:50 0,7 C 4,4 C 96 % 1007,0 hPa 0,0 l/m 2,3 km/h (1 Bft) SO 138 0 min 0,000 mm 0,0 UV-I 0 W/m 0,1 C 0,7 C 3,2 km/h (1 Bft) 93,62 %
28.11.2017 23:52 0,8 C 4,4 C 96 % 1007,0 hPa 0,0 l/m 2,4 km/h (1 Bft) SO 138 0 min 0,000 mm 0,0 UV-I 0 W/m 0,2 C 0,8 C 3,2 km/h (1 Bft) 97,87 %
28.11.2017 23:54 1,0 C 4,4 C 96 % 1007,0 hPa 0,0 l/m 2,4 km/h (1 Bft) SO 138 0 min 0,000 mm 0,0 UV-I 0 W/m 0,4 C 1,0 C 3,2 km/h (1 Bft) 94,74 %
28.11.2017 23:56 1,1 C 4,4 C 96 % 1006,9 hPa 0,0 l/m 2,7 km/h (1 Bft) SO 138 0 min 0,000 mm 0,0 UV-I 0 W/m 0,5 C 1,1 C 4,8 km/h (1 Bft) 97,87 %
28.11.2017 23:58 1,1 C 4,4 C 96 % 1006,9 hPa 0,0 l/m 3,3 km/h (1 Bft) SO 138 0 min 0,000 mm 0,0 UV-I 0 W/m 0,5 C 1,1 C 4,8 km/h (1 Bft) 97,87 %
_ Min-Zeit 23:48 00:00 00:02 23:56 - 00:50 - - - - - - 00:02 08:26 00:50 21:28
Minimum _ 0,6 C 4,4 C 71 % 1006,9 hPa - 0,0 km/h (0 Bft) - - - - - - -1,9 C 0,3 C 0,0 km/h (0 Bft) 88,57 %
_ Max-Zeit 14:06 00:00 23:08 00:00 00:00 11:50 - - 10:48 12:00 11:46 12:06 15:08 14:06 11:46 00:02
Maximum _ 6,3 C 4,4 C 96 % 1017,2 hPa 0,0 l/m 9,8 km/h
S-SW (2 Bft)
- - 2 min 0,102 mm 0,7 UV-I 289 W/m 3,3 C 6,3 C 16,1 km/h
SW (3 Bft)
100,00 %
Durchschnitt _ 3,2 C 4,4 C 84 % 1011,1 hPa #0,0 l/m 2,3 km/h (1 Bft) S-SO - #1:38 h #0,457 mm 0,6 UV-I 110 W/m 0,7 C 3,1 C 4,1 km/h (1 Bft) 97,47 %